[[{"header":{"parameterUnit":"m.s-1","parameterCategory":1,"la1":31.0,"la2":29.5877,"lo1":-88.7671,"lo2":-86.6584,"dx":0.0162,"dy":0.0185,"nx":115,"ny":88,"refTime":"2022-11-22T18:00:00:Z","depth":0,"parameterNumber":2,"parameterNumberName":"U-component_of_WINDS"},"data":[0.0,0.0,0.0,0.0,0.0,0.0,0.0,0.0,0.0,0.0,0.0,0.0,0.0,0.0,0.0,0.0,0.0,0.0,0.0,0.0,0.0,0.0,0.0,0.0,0.0,0.0,0.0,0.0,0.0,0.0,0.0,0.0,0.0,0.0,0.0,0.0,0.0,0.0,0.0,0.0,0.0,0.0,0.0,0.0,0.0,0.0,0.0,0.0,0.0,0.0,0.0,0.0,0.0,0.0,0.0,0.0,0.0,0.0,0.0,0.0,0.0,0.0,0.0,0.0,0.0,0.0,0.0,0.0,0.0,0.0,0.0,0.0,0.0,0.0,0.0,0.0,0.0,0.0,0.0,0.0,0.0,0.0,0.0,0.0,0.0,0.0,0.0,0.0,0.0,0.0,0.0,0.0,0.0,0.0,0.0,0.0,0.0,0.0,0.0,0.0,0.0,0.0,0.0,0.0,0.0,0.0,0.0,0.0,0.0,0.0,0.0,0.0,0.0,0.0,0.0,0.0,0.0,0.0,0.0,0.0,0.0,0.0,0.0,0.0,0.0,0.0,0.0,0.0,0.0,0.0,0.0,0.0,0.0,0.0,0.0,0.0,0.0,0.0,0.0,0.0,0.0,0.0,0.0,0.0,0.0,0.0,0.0,0.0,0.0,0.0,0.0,0.0,0.0,0.0,0.0,0.0,0.0,0.0,0.0,0.0,0.0,0.0,0.0,0.0,0.0,0.0,0.0,0.0,0.0,0.0,0.0,0.0,0.0,0.0,0.0,0.0,0.0,0.0,0.0,0.0,0.0,0.0,0.0,0.0,0.0,0.0,0.0,0.0,0.0,0.0,0.0,0.0,0.0,0.0,0.0,0.0,0.0,0.0,0.0,0.0,0.0,0.0,0.0,0.0,0.0,0.0,0.0,0.0,0.0,0.0,0.0,0.0,0.0,0.0,0.0,0.0,0.0,0.0,0.0,0.0,0.0,0.0,0.0,0.0,0.0,0.0,0.0,0.0,0.0,0.0,0.0,0.0,0.0,0.0,0.0,0.0,0.0,0.0,0.0,0.0,0.0,0.0,0.0,0.0,0.0,0.0,0.0,0.0,0.0,0.0,0.0,0.0,0.0,0.0,0.0,0.0,0.0,0.0,0.0,0.0,0.0,0.0,0.0,0.0,0.0,0.0,0.0,0.0,0.0,0.0,0.0,0.0,0.0,0.0,0.0,0.0,0.0,0.0,0.0,0.0,0.0,0.0,0.0,0.0,0.0,0.0,0.0,0.0,0.0,0.0,0.0,0.0,0.0,0.0,0.0,0.0,0.0,0.0,0.0,0.0,0.0,0.0,0.0,0.0,0.0,0.0,0.0,0.0,0.0,0.0,0.0,0.0,0.0,0.0,0.0,0.0,0.0,0.0,0.0,0.0,0.0,0.0,0.0,0.0,0.0,0.0,0.0,0.0,0.0,0.0,0.0,0.0,0.0,0.0,0.0,0.0,0.0,0.0,0.0,0.0,0.0,0.0,0.0,0.0,0.0,0.0,0.0,0.0,0.0,0.0,0.0,0.0,0.0,0.0,0.0,0.0,0.0,0.0,0.0,0.0,0.0,0.0,0.0,0.0,0.0,0.0,0.0,0.0,0.0,0.0,0.0,0.0,0.0,0.0,0.0,0.0,0.0,0.0,0.0,0.0,0.0,0.0,0.0,0.0,0.0,0.0,0.0,0.0,0.0,0.0,0.0,0.0,0.0,0.0,0.0,0.0,0.0,0.0,0.0,0.0,0.0,0.0,0.0,0.0,0.0,0.0,0.0,0.0,0.0,0.0,0.0,0.0,0.0,0.0,0.0,0.0,0.0,0.0,0.0,0.0,0.0,0.0,0.0,0.0,0.0,0.0,0.0,0.0,0.0,0.0,0.0,0.0,0.0,0.0,0.0,0.0,0.0,0.0,0.0,0.0,0.0,0.0,0.0,0.0,0.0,0.0,0.0,0.0,0.0,0.0,0.0,0.0,0.0,0.0,0.0,0.0,0.0,0.0,0.0,0.0,0.0,0.0,0.0,0.0,0.0,0.0,0.0,0.0,0.0,0.0,0.0,0.0,0.0,0.0,0.0,0.0,0.0,0.0,0.0,0.0,0.0,0.0,0.0,0.0,0.0,0.0,0.0,0.0,0.0,0.0,0.0,0.0,0.0,0.0,0.0,0.0,0.0,0.0,0.0,0.0,0.0,0.0,0.0,0.0,0.0,0.0,0.0,0.0,0.0,0.0,0.0,0.0,0.0,0.0,0.0,0.0,0.0,0.0,0.0,0.0,0.0,0.0,0.0,0.0,0.0,0.0,0.0,0.0,0.0,0.0,0.0,0.0,0.0,0.0,0.0,0.0,0.0,0.0,0.0,0.0,0.0,0.0,0.0,0.0,0.0,0.0,0.0,0.0,0.0,0.0,0.0,0.0,0.0,0.0,0.0,0.0,0.0,0.0,0.0,0.0,0.0,0.0,0.0,0.0,0.0,0.0,0.0,0.0,0.0,0.0,0.0,0.0,0.0,0.0,0.0,0.0,0.0,0.0,0.0,0.0,0.0,0.0,0.0,0.0,0.0,0.0,0.0,0.0,0.0,0.0,0.0,0.0,0.0,0.0,0.0,0.0,0.0,0.0,0.0,0.0,0.0,0.0,0.0,0.0,0.0,0.0,0.0,0.0,0.0,0.0,0.0,0.0,0.0,0.0,0.0,0.0,0.0,0.0,0.0,0.0,0.0,0.0,0.0,0.0,0.0,0.0,0.0,0.0,0.0,0.0,0.0,0.0,0.0,0.0,0.0,0.0,0.0,0.0,0.0,0.0,0.0,0.0,0.0,0.0,0.0,0.0,0.0,0.0,0.0,0.0,0.0,0.0,0.0,0.0,0.0,0.0,0.0,0.0,0.0,0.0,0.0,0.0,0.0,0.0,0.0,0.0,0.0,0.0,0.0,0.0,0.0,0.0,0.0,0.0,0.0,0.0,0.0,0.0,0.0,0.0,0.0,0.0,0.0,0.0,0.0,0.0,0.0,0.0,0.0,0.0,0.0,0.0,0.0,0.0,0.0,0.0,0.0,0.0,0.0,0.0,0.0,0.0,0.0,0.0,0.0,0.0,0.0,0.0,0.0,0.0,0.0,0.0,0.0,0.0,0.0,0.0,0.0,0.0,0.0,0.0,0.0,0.0,0.0,0.0,0.0,0.0,0.0,0.0,0.0,0.0,0.0,0.0,0.0,0.0,0.0,0.0,0.0,0.0,0.0,0.0,0.0,0.0,0.0,0.0,0.0,0.0,0.0,0.0,0.0,0.0,0.0,0.0,0.0,0.0,0.0,0.0,0.0,0.0,0.0,0.0,0.0,0.0,0.0,0.0,0.0,0.0,0.0,0.0,0.0,0.0,0.0,0.0,0.0,0.0,0.0,0.0,0.0,0.0,0.0,0.0,0.0,0.0,0.0,0.0,0.0,0.0,0.0,0.0,0.0,0.0,0.0,0.0,0.0,0.0,0.0,0.0,0.0,0.0,0.0,0.0,0.0,0.0,0.0,0.0,0.0,0.0,0.0,0.0,0.0,0.0,0.0,0.0,0.0,0.0,0.0,0.0,0.0,0.0,0.0,0.0,0.0,0.0,0.0,0.0,0.0,0.0,0.0,0.0,0.0,0.0,0.0,0.0,0.0,0.0,0.0,0.0,0.0,0.0,0.0,0.0,0.0,0.0,0.0,0.0,0.0,0.0,0.0,0.0,0.0,0.0,0.0,0.0,0.0,0.0,0.0,0.0,0.0,0.0,0.0,0.0,0.0,0.0,0.0,0.0,0.0,0.0,0.0,0.0,0.0,0.0,0.0,0.0,0.0,0.0,0.0,0.0,0.0,0.0,0.0,0.0,0.0,0.0,0.0,0.0,0.0,0.0,0.0,0.0,0.0,0.0,0.0,0.0,0.0,0.0,0.0,0.0,0.0,0.0,0.0,0.0,0.0,0.0,0.0,0.0,0.0,0.0,0.0,0.0,0.0,0.0,0.0,0.0,0.0,0.0,0.0,0.0,0.0,0.0,0.0,0.0,0.0,0.0,0.0,0.0,0.0,0.0,0.0,0.0,0.0,0.0,0.0,0.0,0.0,0.0,0.0,0.0,0.0,0.0,0.0,0.0,0.0,0.0,0.0,0.0,0.0,0.0,0.0,0.0,0.0,0.0,0.0,0.0,0.0,0.0,0.0,0.0,0.0,0.0,0.0,0.0,0.0,0.0,-4.0516,0.0,0.0,0.0,-4.0323,0.0,0.0,0.0,0.0,0.0,0.0,0.0,0.0,0.0,0.0,0.0,0.0,0.0,0.0,0.0,0.0,0.0,0.0,0.0,0.0,0.0,0.0,0.0,0.0,0.0,0.0,0.0,0.0,0.0,0.0,0.0,0.0,0.0,0.0,0.0,0.0,0.0,0.0,0.0,0.0,0.0,0.0,0.0,0.0,0.0,0.0,0.0,0.0,0.0,0.0,0.0,0.0,0.0,0.0,0.0,0.0,0.0,0.0,0.0,0.0,0.0,0.0,0.0,0.0,0.0,0.0,0.0,0.0,0.0,0.0,0.0,0.0,0.0,0.0,0.0,0.0,0.0,0.0,0.0,0.0,0.0,0.0,0.0,0.0,0.0,0.0,0.0,0.0,0.0,0.0,0.0,0.0,0.0,0.0,0.0,0.0,0.0,0.0,0.0,0.0,0.0,0.0,0.0,0.0,0.0,0.0,0.0,0.0,0.0,0.0,-4.0516,-4.0516,-4.0516,-4.0516,-4.0477,0.0,0.0,0.0,0.0,0.0,0.0,0.0,0.0,0.0,0.0,0.0,0.0,0.0,0.0,0.0,0.0,0.0,0.0,0.0,0.0,0.0,0.0,0.0,0.0,0.0,0.0,0.0,0.0,0.0,0.0,0.0,0.0,0.0,0.0,0.0,0.0,0.0,0.0,0.0,0.0,0.0,0.0,0.0,0.0,0.0,0.0,0.0,0.0,0.0,0.0,0.0,0.0,0.0,0.0,0.0,0.0,0.0,0.0,0.0,0.0,0.0,0.0,0.0,0.0,0.0,0.0,0.0,0.0,0.0,0.0,0.0,0.0,0.0,0.0,0.0,0.0,0.0,0.0,0.0,0.0,0.0,0.0,0.0,0.0,0.0,0.0,0.0,0.0,0.0,0.0,0.0,0.0,0.0,0.0,0.0,0.0,0.0,0.0,0.0,0.0,0.0,0.0,0.0,0.0,0.0,0.0,0.0,0.0,0.0,0.0,0.0,0.0,-4.0516,-4.0516,-4.0439,0.0,0.0,0.0,0.0,0.0,0.0,0.0,0.0,0.0,0.0,0.0,0.0,0.0,0.0,0.0,0.0,0.0,0.0,0.0,0.0,0.0,0.0,0.0,0.0,0.0,0.0,0.0,0.0,0.0,0.0,0.0,0.0,0.0,0.0,0.0,0.0,0.0,0.0,0.0,0.0,0.0,0.0,0.0,0.0,0.0,0.0,0.0,0.0,0.0,0.0,0.0,0.0,0.0,0.0,0.0,0.0,0.0,0.0,0.0,0.0,0.0,0.0,0.0,0.0,0.0,0.0,0.0,0.0,0.0,0.0,0.0,0.0,0.0,0.0,0.0,0.0,0.0,0.0,0.0,0.0,0.0,0.0,0.0,0.0,0.0,0.0,0.0,0.0,0.0,0.0,0.0,0.0,0.0,0.0,0.0,0.0,0.0,0.0,0.0,0.0,0.0,0.0,0.0,0.0,0.0,0.0,0.0,0.0,0.0,0.0,-4.0516,-4.0516,-4.0516,0.0,-4.04,0.0,0.0,0.0,0.0,0.0,0.0,0.0,0.0,0.0,0.0,0.0,0.0,0.0,0.0,0.0,0.0,0.0,0.0,0.0,0.0,0.0,0.0,0.0,0.0,0.0,0.0,0.0,0.0,0.0,0.0,0.0,0.0,0.0,0.0,0.0,0.0,0.0,0.0,0.0,0.0,0.0,0.0,0.0,0.0,0.0,0.0,0.0,0.0,0.0,0.0,0.0,0.0,0.0,0.0,0.0,0.0,0.0,0.0,0.0,0.0,0.0,0.0,0.0,0.0,0.0,0.0,0.0,0.0,0.0,0.0,0.0,0.0,0.0,0.0,0.0,0.0,0.0,0.0,0.0,0.0,0.0,0.0,0.0,0.0,0.0,0.0,0.0,0.0,0.0,0.0,0.0,0.0,0.0,0.0,0.0,0.0,0.0,0.0,0.0,0.0,0.0,0.0,0.0,0.0,0.0,0.0,0.0,0.0,0.0,0.0,-4.1204,-4.1204,-4.0696,-4.0427,0.0,0.0,0.0,0.0,0.0,0.0,0.0,0.0,0.0,0.0,0.0,0.0,0.0,0.0,0.0,0.0,0.0,0.0,0.0,0.0,0.0,0.0,0.0,0.0,0.0,0.0,0.0,0.0,0.0,0.0,0.0,0.0,0.0,0.0,0.0,0.0,0.0,0.0,0.0,0.0,0.0,0.0,0.0,0.0,0.0,0.0,0.0,0.0,0.0,0.0,0.0,0.0,0.0,0.0,0.0,0.0,0.0,0.0,0.0,0.0,0.0,0.0,0.0,0.0,0.0,0.0,0.0,0.0,0.0,0.0,0.0,0.0,0.0,0.0,0.0,0.0,0.0,0.0,0.0,0.0,0.0,0.0,0.0,0.0,0.0,0.0,0.0,0.0,0.0,0.0,0.0,0.0,0.0,0.0,0.0,0.0,0.0,0.0,0.0,0.0,0.0,0.0,0.0,0.0,0.0,0.0,0.0,0.0,0.0,0.0,-4.2504,-4.1949,-4.1681,-4.1097,-4.0637,-4.0407,0.0,0.0,0.0,0.0,0.0,0.0,0.0,0.0,0.0,0.0,0.0,0.0,0.0,0.0,0.0,0.0,0.0,0.0,0.0,0.0,0.0,0.0,0.0,0.0,0.0,0.0,0.0,0.0,0.0,0.0,0.0,0.0,0.0,0.0,0.0,0.0,0.0,0.0,0.0,0.0,0.0,0.0,0.0,0.0,0.0,0.0,0.0,0.0,0.0,0.0,0.0,0.0,0.0,0.0,0.0,0.0,0.0,0.0,0.0,0.0,0.0,0.0,0.0,0.0,0.0,0.0,0.0,0.0,0.0,0.0,0.0,0.0,0.0,0.0,0.0,0.0,0.0,0.0,0.0,0.0,0.0,0.0,0.0,0.0,0.0,0.0,0.0,0.0,0.0,0.0,0.0,0.0,0.0,0.0,0.0,0.0,0.0,0.0,0.0,0.0,0.0,0.0,0.0,0.0,0.0,0.0,0.0,0.0,-4.4135,-4.3282,-4.2477,-4.1757,-4.1642,-4.1259,0.0,0.0,0.0,0.0,0.0,0.0,0.0,0.0,0.0,0.0,0.0,0.0,0.0,0.0,0.0,0.0,0.0,0.0,0.0,0.0,0.0,0.0,0.0,0.0,0.0,0.0,0.0,0.0,0.0,0.0,0.0,0.0,0.0,0.0,0.0,0.0,0.0,0.0,0.0,0.0,0.0,0.0,0.0,0.0,0.0,0.0,0.0,0.0,0.0,0.0,0.0,0.0,0.0,0.0,0.0,0.0,0.0,0.0,0.0,0.0,0.0,0.0,0.0,0.0,0.0,0.0,0.0,0.0,0.0,0.0,0.0,0.0,0.0,0.0,0.0,0.0,0.0,0.0,0.0,0.0,0.0,0.0,0.0,0.0,0.0,0.0,0.0,0.0,0.0,0.0,0.0,0.0,0.0,0.0,0.0,0.0,0.0,0.0,0.0,0.0,0.0,0.0,0.0,0.0,0.0,0.0,0.0,0.0,0.0,-4.493,-4.4087,-4.3225,-4.2432,-4.1858,-4.1437,0.0,0.0,0.0,0.0,0.0,0.0,0.0,0.0,0.0,0.0,0.0,0.0,0.0,0.0,0.0,0.0,0.0,0.0,0.0,0.0,0.0,0.0,0.0,0.0,0.0,0.0,0.0,0.0,0.0,0.0,0.0,0.0,0.0,0.0,0.0,0.0,0.0,0.0,0.0,0.0,0.0,0.0,0.0,0.0,0.0,0.0,0.0,0.0,0.0,0.0,0.0,0.0,0.0,0.0,0.0,0.0,0.0,0.0,0.0,0.0,0.0,0.0,0.0,0.0,0.0,0.0,0.0,0.0,0.0,0.0,0.0,0.0,0.0,0.0,0.0,0.0,0.0,0.0,0.0,0.0,0.0,0.0,0.0,0.0,0.0,0.0,0.0,0.0,0.0,0.0,0.0,0.0,0.0,0.0,0.0,0.0,0.0,0.0,0.0,0.0,0.0,0.0,0.0,0.0,0.0,0.0,0.0,0.0,0.0,-4.5708,-4.535,-4.4641,-4.3573,-4.2962,-4.2286,0.0,0.0,0.0,0.0,0.0,0.0,0.0,0.0,0.0,0.0,0.0,0.0,0.0,0.0,0.0,0.0,0.0,0.0,0.0,0.0,0.0,0.0,0.0,0.0,0.0,0.0,0.0,0.0,0.0,0.0,0.0,0.0,0.0,0.0,0.0,0.0,0.0,0.0,0.0,0.0,0.0,0.0,0.0,0.0,0.0,0.0,0.0,0.0,0.0,0.0,0.0,0.0,0.0,0.0,0.0,0.0,0.0,0.0,0.0,0.0,0.0,0.0,0.0,0.0,0.0,0.0,0.0,0.0,0.0,0.0,0.0,0.0,0.0,0.0,0.0,0.0,0.0,0.0,0.0,0.0,0.0,0.0,0.0,0.0,0.0,0.0,0.0,0.0,0.0,0.0,0.0,0.0,0.0,0.0,0.0,0.0,0.0,0.0,0.0,0.0,0.0,0.0,0.0,0.0,0.0,0.0,0.0,0.0,-4.5692,-4.6446,-4.7196,-4.6804,-4.5194,-4.508,-4.3972,0.0,0.0,0.0,0.0,0.0,0.0,0.0,0.0,0.0,0.0,0.0,0.0,0.0,0.0,0.0,0.0,0.0,0.0,0.0,0.0,0.0,0.0,0.0,0.0,0.0,0.0,0.0,0.0,0.0,0.0,0.0,0.0,0.0,0.0,0.0,0.0,0.0,0.0,0.0,0.0,0.0,0.0,0.0,0.0,0.0,0.0,0.0,0.0,0.0,0.0,0.0,0.0,0.0,0.0,0.0,0.0,0.0,0.0,0.0,0.0,0.0,0.0,0.0,0.0,0.0,0.0,0.0,0.0,0.0,0.0,0.0,0.0,0.0,0.0,0.0,0.0,0.0,0.0,0.0,0.0,0.0,0.0,0.0,0.0,0.0,0.0,0.0,0.0,0.0,0.0,0.0,0.0,0.0,0.0,0.0,0.0,0.0,0.0,0.0,0.0,0.0,0.0,0.0,0.0,0.0,0.0,0.0,0.0,0.0,-4.8023,-4.8732,-4.8617,-4.7555,-4.7024,-4.5846,0.0,0.0,0.0,0.0,0.0,0.0,0.0,0.0,0.0,0.0,0.0,0.0,0.0,0.0,0.0,0.0,0.0,0.0,0.0,0.0,0.0,0.0,0.0,0.0,0.0,0.0,0.0,0.0,0.0,0.0,0.0,0.0,0.0,0.0,0.0,0.0,0.0,0.0,0.0,0.0,0.0,0.0,0.0,0.0,0.0,0.0,0.0,0.0,0.0,0.0,0.0,0.0,0.0,0.0,0.0,0.0,0.0,0.0,0.0,0.0,0.0,0.0,0.0,0.0,0.0,0.0,0.0,0.0,0.0,0.0,0.0,0.0,0.0,0.0,0.0,0.0,0.0,0.0,0.0,0.0,0.0,0.0,0.0,0.0,0.0,0.0,0.0,0.0,0.0,0.0,0.0,0.0,0.0,0.0,0.0,0.0,0.0,0.0,0.0,0.0,0.0,0.0,0.0,0.0,0.0,0.0,0.0,0.0,0.0,-5.1269,-5.1624,-5.133,-5.0237,-4.948,-4.7902,-4.547,0.0,0.0,0.0,0.0,0.0,0.0,0.0,0.0,0.0,0.0,0.0,0.0,0.0,0.0,0.0,0.0,0.0,0.0,0.0,0.0,0.0,0.0,0.0,0.0,0.0,0.0,0.0,0.0,0.0,0.0,0.0,0.0,0.0,0.0,0.0,0.0,0.0,0.0,0.0,0.0,0.0,0.0,0.0,0.0,0.0,0.0,0.0,0.0,0.0,0.0,0.0,0.0,0.0,0.0,0.0,0.0,0.0,0.0,0.0,0.0,0.0,0.0,0.0,0.0,0.0,0.0,0.0,0.0,0.0,0.0,0.0,0.0,0.0,0.0,0.0,0.0,0.0,0.0,0.0,0.0,0.0,0.0,0.0,0.0,0.0,0.0,0.0,0.0,0.0,0.0,0.0,0.0,0.0,0.0,0.0,0.0,0.0,0.0,0.0,0.0,0.0,0.0,0.0,0.0,0.0,0.0,0.0,0.0,-5.564,-5.5659,-5.4894,-5.3192,-5.2381,-5.0219,0.0,0.0,0.0,0.0,0.0,0.0,0.0,0.0,0.0,0.0,0.0,0.0,0.0,0.0,0.0,0.0,0.0,0.0,0.0,0.0,0.0,0.0,0.0,0.0,0.0,0.0,0.0,0.0,0.0,0.0,0.0,0.0,0.0,0.0,0.0,0.0,0.0,0.0,0.0,0.0,0.0,0.0,0.0,0.0,0.0,0.0,0.0,0.0,0.0,0.0,0.0,0.0,0.0,0.0,0.0,0.0,0.0,0.0,0.0,0.0,0.0,0.0,0.0,0.0,0.0,0.0,0.0,0.0,0.0,0.0,0.0,0.0,0.0,0.0,0.0,0.0,0.0,0.0,0.0,0.0,0.0,0.0,0.0,0.0,0.0,0.0,0.0,0.0,0.0,0.0,0.0,0.0,0.0,0.0,0.0,0.0,0.0,0.0,0.0,0.0,0.0,0.0,0.0,0.0,0.0,0.0,0.0,0.0,0.0,-5.8545,-5.9684,-5.8964,-5.6323,-5.5081,-5.3127,0.0,0.0,0.0,0.0,0.0,0.0,0.0,0.0,0.0,0.0,0.0,0.0,0.0,0.0,0.0,0.0,0.0,0.0,0.0,0.0,0.0,0.0,0.0,0.0,0.0,0.0,0.0,0.0,0.0,0.0,0.0,0.0,0.0,0.0,0.0,0.0,0.0,0.0,0.0,0.0,0.0,0.0,0.0,0.0,0.0,0.0,0.0,0.0,0.0,0.0,0.0,0.0,0.0,0.0,0.0,0.0,0.0,0.0,0.0,0.0,0.0,0.0,0.0,0.0,0.0,0.0,0.0,0.0,0.0,0.0,0.0,0.0,0.0,0.0,0.0,0.0,0.0,0.0,0.0,0.0,0.0,0.0,0.0,0.0,0.0,0.0,0.0,0.0,0.0,0.0,0.0,0.0,0.0,0.0,0.0,0.0,0.0,0.0,0.0,0.0,0.0,0.0,0.0,0.0,0.0,0.0,0.0,0.0,-5.8165,-5.9671,-6.1426,-6.149,-5.97,-5.779,-5.5361,0.0,0.0,0.0,0.0,0.0,0.0,0.0,0.0,0.0,0.0,0.0,0.0,0.0,0.0,0.0,0.0,0.0,0.0,0.0,0.0,0.0,0.0,0.0,0.0,0.0,0.0,0.0,0.0,0.0,0.0,0.0,0.0,0.0,0.0,0.0,0.0,0.0,0.0,0.0,0.0,0.0,0.0,0.0,0.0,0.0,0.0,0.0,0.0,0.0,0.0,0.0,0.0,0.0,0.0,0.0,0.0,0.0,0.0,0.0,0.0,0.0,0.0,0.0,0.0,0.0,0.0,0.0,0.0,0.0,0.0,0.0,0.0,0.0,0.0,0.0,0.0,0.0,0.0,0.0,0.0,0.0,0.0,0.0,0.0,0.0,0.0,0.0,0.0,0.0,0.0,0.0,0.0,0.0,0.0,0.0,0.0,0.0,0.0,0.0,0.0,0.0,0.0,0.0,0.0,0.0,0.0,0.0,0.0,-5.9176,-5.9945,-6.18,-6.2805,-6.2732,-6.0211,-5.7083,0.0,0.0,0.0,0.0,0.0,0.0,0.0,0.0,0.0,0.0,0.0,0.0,0.0,0.0,0.0,0.0,0.0,0.0,0.0,0.0,0.0,0.0,0.0,0.0,0.0,0.0,0.0,0.0,0.0,0.0,0.0,0.0,0.0,0.0,0.0,0.0,0.0,0.0,0.0,0.0,0.0,0.0,0.0,0.0,0.0,0.0,0.0,0.0,0.0,0.0,0.0,0.0,0.0,0.0,0.0,0.0,0.0,0.0,0.0,0.0,0.0,0.0,0.0,0.0,0.0,0.0,0.0,0.0,0.0,0.0,0.0,0.0,0.0,0.0,0.0,0.0,0.0,0.0,0.0,0.0,0.0,0.0,0.0,0.0,0.0,0.0,0.0,0.0,0.0,0.0,0.0,0.0,0.0,0.0,0.0,0.0,0.0,0.0,0.0,0.0,0.0,0.0,0.0,0.0,0.0,0.0,0.0,0.0,-6.0108,-6.1342,-6.2413,-6.2904,-6.2805,-6.066,-5.854,0.0,0.0,0.0,0.0,0.0,0.0,0.0,0.0,0.0,0.0,0.0,0.0,0.0,0.0,0.0,0.0,0.0,0.0,0.0,0.0,0.0,0.0,0.0,0.0,0.0,0.0,0.0,0.0,0.0,0.0,0.0,0.0,0.0,0.0,0.0,0.0,0.0,0.0,0.0,0.0,0.0,0.0,0.0,0.0,0.0,0.0,0.0,0.0,-5.1476,0.0,0.0,0.0,0.0,0.0,0.0,0.0,0.0,0.0,0.0,0.0,0.0,0.0,0.0,0.0,0.0,0.0,0.0,0.0,0.0,0.0,0.0,0.0,0.0,0.0,0.0,0.0,0.0,0.0,0.0,0.0,0.0,0.0,0.0,0.0,0.0,0.0,0.0,0.0,0.0,0.0,0.0,0.0,0.0,0.0,0.0,0.0,0.0,0.0,0.0,0.0,0.0,0.0,0.0,0.0,0.0,0.0,0.0,0.0,-6.0558,-6.2303,-6.2708,-6.3247,-6.387,-6.1811,-5.9686,0.0,0.0,0.0,0.0,0.0,0.0,0.0,0.0,0.0,0.0,0.0,0.0,0.0,0.0,0.0,0.0,0.0,0.0,0.0,0.0,0.0,0.0,0.0,0.0,0.0,0.0,0.0,0.0,0.0,0.0,0.0,0.0,0.0,0.0,0.0,0.0,0.0,0.0,0.0,0.0,0.0,0.0,0.0,0.0,0.0,0.0,0.0,0.0,0.0,0.0,0.0,0.0,0.0,0.0,0.0,0.0,0.0,0.0,0.0,0.0,0.0,0.0,0.0,0.0,0.0,0.0,0.0,0.0,0.0,0.0,0.0,0.0,0.0,0.0,0.0,0.0,0.0,0.0,0.0,0.0,0.0,0.0,0.0,0.0,0.0,0.0,0.0,0.0,0.0,0.0,0.0,0.0,0.0,0.0,0.0,0.0,0.0,0.0,0.0,0.0,0.0,0.0,0.0,0.0,0.0,0.0,0.0,-5.9133,-6.12,-6.3064,-6.3185,-6.387,-6.5228,-6.3297,-6.0785,-5.7872,0.0,0.0,0.0,0.0,0.0,0.0,0.0,0.0,0.0,0.0,0.0,0.0,0.0,0.0,0.0,0.0,0.0,0.0,0.0,0.0,0.0,0.0,0.0,0.0,0.0,0.0,0.0,0.0,0.0,0.0,0.0,0.0,0.0,0.0,0.0,0.0,0.0,0.0,-4.9487,-5.2472,0.0,0.0,0.0,0.0,0.0,0.0,0.0,0.0,-5.7931,0.0,0.0,0.0,0.0,0.0,0.0,0.0,0.0,0.0,0.0,0.0,0.0,0.0,0.0,0.0,0.0,0.0,0.0,0.0,0.0,0.0,0.0,0.0,0.0,0.0,0.0,0.0,0.0,0.0,0.0,0.0,0.0,0.0,0.0,0.0,0.0,0.0,0.0,0.0,0.0,0.0,0.0,0.0,0.0,0.0,0.0,0.0,0.0,0.0,0.0,0.0,0.0,0.0,0.0,0.0,0.0,-5.935,-6.1522,-6.3062,-6.392,-6.4567,-6.5044,-6.5264,-6.4301,-6.2409,-5.9504,0.0,0.0,0.0,0.0,0.0,0.0,0.0,0.0,0.0,0.0,0.0,0.0,0.0,0.0,0.0,0.0,0.0,0.0,0.0,0.0,0.0,0.0,0.0,0.0,0.0,0.0,0.0,0.0,0.0,0.0,0.0,0.0,0.0,0.0,0.0,0.0,0.0,0.0,0.0,-5.6636,-5.8568,0.0,0.0,0.0,0.0,0.0,0.0,0.0,0.0,-5.894,0.0,0.0,0.0,0.0,0.0,0.0,0.0,0.0,0.0,0.0,0.0,0.0,0.0,0.0,0.0,0.0,0.0,0.0,0.0,0.0,0.0,0.0,0.0,0.0,0.0,0.0,0.0,0.0,0.0,0.0,0.0,0.0,0.0,0.0,0.0,0.0,0.0,0.0,0.0,0.0,0.0,0.0,0.0,0.0,0.0,0.0,0.0,0.0,0.0,0.0,0.0,0.0,0.0,0.0,0.0,-6.0388,-6.2604,-6.4254,-6.5264,-6.5338,-6.5705,-6.6476,-6.5025,-6.3197,0.0,0.0,0.0,0.0,0.0,0.0,0.0,0.0,0.0,0.0,0.0,0.0,0.0,0.0,0.0,0.0,0.0,0.0,0.0,0.0,0.0,0.0,0.0,0.0,0.0,0.0,0.0,0.0,0.0,0.0,0.0,0.0,0.0,0.0,0.0,0.0,0.0,0.0,0.0,0.0,-5.9575,-6.1444,-6.3615,0.0,0.0,0.0,0.0,0.0,0.0,-6.3451,-6.2361,0.0,0.0,0.0,0.0,0.0,0.0,0.0,0.0,0.0,0.0,0.0,0.0,0.0,0.0,0.0,0.0,0.0,0.0,0.0,0.0,0.0,0.0,0.0,0.0,0.0,0.0,0.0,0.0,0.0,0.0,0.0,0.0,0.0,0.0,0.0,0.0,0.0,0.0,0.0,0.0,0.0,0.0,0.0,0.0,0.0,0.0,0.0,0.0,0.0,0.0,0.0,0.0,0.0,0.0,0.0,-6.1115,-6.3468,-6.5283,-6.6402,-6.6035,-6.6402,-6.7577,-6.5602,-6.3798,0.0,0.0,0.0,0.0,0.0,0.0,0.0,0.0,0.0,0.0,0.0,0.0,0.0,0.0,0.0,0.0,0.0,0.0,0.0,0.0,0.0,0.0,0.0,0.0,0.0,0.0,0.0,0.0,0.0,0.0,0.0,0.0,0.0,0.0,0.0,0.0,0.0,0.0,0.0,0.0,0.0,-6.389,-6.6225,-6.6021,0.0,0.0,0.0,0.0,-6.6671,-6.6128,0.0,0.0,0.0,0.0,0.0,0.0,0.0,0.0,0.0,0.0,0.0,0.0,0.0,0.0,0.0,0.0,0.0,0.0,0.0,0.0,0.0,0.0,0.0,0.0,0.0,0.0,0.0,0.0,0.0,0.0,0.0,0.0,0.0,0.0,0.0,0.0,0.0,0.0,0.0,0.0,0.0,0.0,0.0,0.0,0.0,0.0,0.0,0.0,0.0,0.0,0.0,0.0,0.0,0.0,0.0,0.0,-6.2003,-6.4894,-6.6423,-6.6512,-6.71,-6.753,-6.7677,-6.622,-6.4449,0.0,0.0,0.0,0.0,0.0,0.0,0.0,0.0,0.0,0.0,0.0,0.0,0.0,0.0,0.0,0.0,0.0,0.0,0.0,0.0,0.0,0.0,0.0,0.0,0.0,0.0,0.0,0.0,0.0,0.0,0.0,0.0,0.0,0.0,0.0,0.0,0.0,0.0,0.0,0.0,0.0,-6.5364,-6.7184,-6.7348,-6.7581,0.0,0.0,-6.759,-6.8362,-6.7851,0.0,0.0,0.0,0.0,0.0,0.0,0.0,0.0,0.0,0.0,0.0,0.0,0.0,0.0,0.0,0.0,0.0,0.0,0.0,0.0,0.0,0.0,0.0,0.0,0.0,0.0,0.0,0.0,0.0,0.0,0.0,0.0,0.0,0.0,0.0,0.0,0.0,0.0,0.0,0.0,0.0,0.0,0.0,0.0,0.0,0.0,0.0,0.0,0.0,0.0,0.0,0.0,0.0,0.0,0.0,-6.1263,-6.2761,-6.5727,-6.7447,-6.7871,-6.8201,-6.8385,-6.8385,-6.7067,-6.5053,0.0,0.0,0.0,0.0,0.0,0.0,0.0,0.0,0.0,0.0,0.0,0.0,0.0,0.0,0.0,0.0,0.0,0.0,0.0,0.0,0.0,0.0,0.0,0.0,0.0,0.0,0.0,0.0,0.0,0.0,0.0,0.0,0.0,0.0,0.0,0.0,0.0,0.0,0.0,0.0,0.0,0.0,-6.7993,-6.8671,0.0,0.0,0.0,-6.8914,-6.8816,0.0,0.0,0.0,0.0,0.0,0.0,0.0,0.0,0.0,0.0,0.0,0.0,0.0,0.0,0.0,0.0,0.0,0.0,0.0,0.0,0.0,0.0,0.0,0.0,0.0,0.0,0.0,0.0,0.0,0.0,0.0,0.0,0.0,0.0,0.0,0.0,0.0,0.0,0.0,0.0,0.0,0.0,0.0,0.0,0.0,0.0,0.0,0.0,0.0,0.0,0.0,0.0,0.0,0.0,0.0,0.0,0.0,-6.3516,-6.646,-6.8311,-6.8898,-6.9302,-6.9412,-6.9192,-6.8231,0.0,0.0,0.0,0.0,0.0,0.0,0.0,0.0,0.0,0.0,0.0,0.0,0.0,0.0,0.0,0.0,0.0,0.0,0.0,0.0,0.0,0.0,0.0,0.0,0.0,0.0,0.0,-4.8186,0.0,0.0,0.0,0.0,0.0,0.0,0.0,0.0,0.0,0.0,0.0,0.0,0.0,0.0,-6.6838,-6.8304,-6.9482,-7.0185,0.0,0.0,-7.012,-6.9512,-6.9969,-6.9623,0.0,0.0,0.0,0.0,0.0,0.0,0.0,0.0,0.0,0.0,0.0,0.0,0.0,0.0,0.0,0.0,0.0,0.0,0.0,0.0,0.0,0.0,0.0,0.0,0.0,0.0,0.0,0.0,0.0,0.0,0.0,0.0,0.0,0.0,0.0,0.0,0.0,0.0,0.0,0.0,0.0,0.0,0.0,0.0,0.0,0.0,0.0,0.0,0.0,0.0,0.0,0.0,0.0,0.0,0.0,-6.4365,-6.7306,-6.8898,-6.8972,-7.0339,-7.0807,-7.0036,-7.0064,-6.8668,0.0,0.0,0.0,0.0,0.0,0.0,0.0,0.0,0.0,0.0,0.0,0.0,0.0,0.0,0.0,0.0,0.0,0.0,0.0,0.0,0.0,0.0,0.0,0.0,0.0,0.0,0.0,0.0,0.0,0.0,0.0,0.0,0.0,0.0,0.0,0.0,0.0,0.0,0.0,0.0,0.0,-6.7093,-6.7937,-6.9543,-7.0689,0.0,0.0,-7.112,-7.1126,-7.1175,-7.0617,-6.8926,0.0,0.0,0.0,0.0,0.0,0.0,0.0,0.0,0.0,0.0,0.0,0.0,0.0,0.0,0.0,0.0,0.0,0.0,0.0,0.0,0.0,0.0,0.0,0.0,0.0,0.0,0.0,0.0,0.0,0.0,0.0,0.0,0.0,0.0,0.0,0.0,0.0,0.0,0.0,0.0,0.0,0.0,0.0,0.0,0.0,0.0,0.0,0.0,0.0,0.0,0.0,0.0,0.0,-6.3752,-6.514,-6.8603,-7.0624,-7.1138,-7.2202,-7.2642,-7.2312,-7.1498,-6.9804,0.0,0.0,0.0,0.0,0.0,0.0,0.0,0.0,0.0,0.0,0.0,0.0,0.0,0.0,0.0,0.0,0.0,0.0,0.0,0.0,0.0,0.0,0.0,0.0,0.0,0.0,0.0,0.0,-5.7693,-5.8656,-5.8562,0.0,0.0,0.0,0.0,0.0,0.0,0.0,0.0,0.0,0.0,-6.75,-6.9769,-7.0713,0.0,0.0,-7.1645,-7.1775,-7.2043,-7.2104,-7.1893,-7.1288,-6.9798,0.0,0.0,0.0,0.0,0.0,0.0,0.0,0.0,0.0,0.0,0.0,0.0,0.0,0.0,0.0,0.0,0.0,0.0,0.0,0.0,0.0,0.0,0.0,0.0,0.0,0.0,0.0,0.0,0.0,0.0,0.0,0.0,0.0,0.0,0.0,0.0,0.0,0.0,0.0,0.0,0.0,0.0,0.0,0.0,0.0,0.0,0.0,0.0,0.0,0.0,0.0,0.0,-6.489,-6.6346,-6.988,-7.1945,-7.2496,-7.3744,-7.4294,-7.4037,-7.328,-7.1637,0.0,0.0,0.0,0.0,0.0,0.0,0.0,0.0,0.0,0.0,0.0,0.0,0.0,0.0,0.0,0.0,0.0,0.0,0.0,0.0,0.0,0.0,0.0,0.0,0.0,0.0,0.0,0.0,-6.0408,-6.0894,-5.9966,0.0,0.0,0.0,0.0,0.0,0.0,0.0,0.0,0.0,0.0,-6.8282,-7.055,-7.1401,-7.1842,-7.2165,-7.2284,-7.2531,-7.2824,-7.2921,-7.3071,-7.3386,0.0,0.0,0.0,0.0,0.0,0.0,0.0,0.0,0.0,0.0,0.0,0.0,0.0,0.0,0.0,0.0,0.0,0.0,0.0,0.0,0.0,0.0,0.0,0.0,0.0,0.0,0.0,0.0,0.0,0.0,-5.5511,0.0,0.0,0.0,0.0,0.0,0.0,0.0,0.0,0.0,0.0,0.0,0.0,0.0,0.0,0.0,0.0,0.0,0.0,0.0,0.0,0.0,0.0,-6.6507,-6.8044,-7.0983,-7.2532,-7.2642,-7.4845,-7.5689,-7.4992,-7.5579,-7.4537,-7.1444,0.0,0.0,0.0,0.0,0.0,0.0,0.0,0.0,0.0,0.0,0.0,0.0,0.0,0.0,0.0,0.0,0.0,0.0,0.0,0.0,0.0,0.0,0.0,0.0,0.0,0.0,-6.0397,-6.1261,-6.1244,0.0,0.0,0.0,0.0,0.0,0.0,0.0,0.0,0.0,0.0,-6.76,-6.9504,-6.9793,-7.1216,-7.2396,-7.267,-7.3029,-7.3356,-7.3613,-7.3753,-7.4084,0.0,0.0,0.0,0.0,0.0,0.0,0.0,0.0,0.0,0.0,0.0,0.0,0.0,0.0,0.0,0.0,0.0,0.0,0.0,0.0,0.0,0.0,0.0,0.0,0.0,0.0,0.0,-6.0214,-5.9728,0.0,0.0,0.0,0.0,0.0,0.0,0.0,0.0,0.0,0.0,0.0,-6.3319,-6.4361,0.0,0.0,0.0,0.0,0.0,0.0,0.0,0.0,0.0,0.0,0.0,0.0,-6.8146,-6.9743,-7.2602,-7.4625,-7.5689,-7.7047,-7.7635,-7.7378,-7.7084,-7.5198,-7.1628,0.0,0.0,0.0,0.0,0.0,0.0,0.0,0.0,0.0,0.0,0.0,0.0,0.0,0.0,0.0,0.0,0.0,0.0,0.0,0.0,0.0,0.0,0.0,0.0,0.0,-6.1741,0.0,0.0,0.0,0.0,0.0,0.0,0.0,0.0,0.0,0.0,0.0,-6.7466,-6.8774,-6.9812,-7.1075,-7.2675,-7.2944,-7.324,0.0,0.0,0.0,0.0,0.0,0.0,0.0,0.0,0.0,0.0,0.0,0.0,0.0,0.0,-6.904,-6.6791,-6.6364,-6.6403,-6.6364,0.0,0.0,0.0,0.0,0.0,0.0,0.0,0.0,0.0,0.0,0.0,0.0,0.0,0.0,0.0,0.0,-6.39,0.0,0.0,0.0,0.0,0.0,0.0,0.0,0.0,-6.6993,-6.7062,-6.6272,-6.7346,-6.7309,0.0,-6.6476,-6.5136,0.0,0.0,0.0,0.0,0.0,0.0,0.0,0.0,-7.0017,-7.1323,-7.4228,-7.6246,-7.7273,-7.8442,-7.9029,-7.8993,-7.7928,-7.6086,-7.3603,-7.1536,-6.9263,0.0,0.0,0.0,0.0,0.0,0.0,0.0,0.0,0.0,0.0,0.0,0.0,0.0,0.0,0.0,0.0,0.0,0.0,0.0,0.0,0.0,0.0,0.0,-6.4224,0.0,0.0,0.0,0.0,0.0,0.0,0.0,0.0,0.0,-6.5022,-6.724,-6.9454,-7.0698,-7.1374,-7.2432,-7.432,0.0,0.0,0.0,0.0,0.0,0.0,0.0,-7.8535,-7.9571,-7.9585,-7.9504,-7.954,-7.8375,-7.7274,-7.6693,0.0,0.0,-7.1436,-7.0661,-7.0661,-7.0661,-7.0893,-7.1126,-7.1126,-7.2483,-7.3684,0.0,0.0,0.0,0.0,0.0,0.0,0.0,0.0,-6.8142,-6.8142,0.0,-6.8104,0.0,0.0,0.0,0.0,0.0,0.0,0.0,0.0,-6.9899,-6.989,-6.9272,-6.9336,-6.9272,-6.9289,-6.988,-6.9482,-6.8095,-6.5271,0.0,0.0,0.0,0.0,0.0,0.0,-7.2097,-7.2907,-7.5749,-7.731,-7.7524,-7.8993,-7.98,-7.98,-7.8222,-7.731,-7.7194,-7.4338,-7.2032,-7.0413,-6.7553,0.0,0.0,0.0,0.0,0.0,0.0,0.0,0.0,0.0,0.0,0.0,0.0,0.0,0.0,0.0,0.0,0.0,0.0,0.0,0.0,-6.5322,0.0,0.0,0.0,0.0,0.0,0.0,0.0,0.0,0.0,0.0,-6.7599,-6.8882,-7.0067,-7.086,0.0,0.0,0.0,0.0,-7.6274,-7.7386,-7.7698,-7.7913,-7.8211,-7.9133,-8.0177,-8.1172,0.0,0.0,-8.2819,-8.2122,-8.1504,-8.1542,-8.1387,-8.0019,-7.5291,-7.441,-7.4304,-7.4304,-7.4953,-7.5457,-7.5583,-7.6736,-7.7898,-7.4396,0.0,0.0,0.0,0.0,-7.2138,-7.2406,-7.2444,-7.3055,-7.2941,-7.2406,-7.2406,0.0,0.0,0.0,0.0,0.0,0.0,-7.1127,-7.1556,-7.2769,-7.3054,-7.2406,-7.2957,-7.2957,-7.2435,-7.2558,-7.218,-7.125,-7.0928,-6.9737,-6.779,0.0,0.0,0.0,0.0,-7.393,-7.5235,-7.6631,-7.8154,-7.991,-8.0424,-8.0645,-8.0645,-7.9066,-7.7928,-7.731,-7.5903,-7.4154,-7.2106,-7.0505,0.0,0.0,0.0,0.0,0.0,0.0,0.0,0.0,0.0,0.0,0.0,0.0,0.0,0.0,0.0,0.0,0.0,0.0,0.0,-6.6674,-6.7952,-6.8491,0.0,0.0,0.0,0.0,0.0,0.0,0.0,0.0,0.0,-7.1395,-7.293,-7.3878,0.0,0.0,-7.6284,-7.6575,-7.7209,-7.7937,-7.8791,-7.9523,0.0,0.0,-8.1633,-8.2314,-8.2699,-8.3273,-8.3708,-8.3747,-8.3515,-8.336,-8.336,-8.336,-8.2831,-8.1579,-8.0159,-7.9373,-7.9373,-7.9567,-7.9722,-7.9772,-8.0624,-8.1359,-7.9398,-7.7526,-7.573,-7.5195,-7.5539,-7.5997,-7.6418,-7.6723,-7.7258,-7.7182,-7.6685,-7.6685,-7.5959,-7.4698,-7.4354,0.0,0.0,0.0,-7.4783,-7.483,-7.5694,-7.5521,-7.456,-7.511,-7.5139,-7.4691,-7.5219,-7.508,-7.4441,-7.544,-7.4908,-7.3046,0.0,0.0,-7.3572,-7.5072,-7.6273,-7.7206,-7.8216,-7.9507,-8.0975,-8.1305,-8.1489,-8.1452,-8.0241,-7.914,-7.8332,-7.6864,-7.5462,-7.4081,-7.221,-7.0155,0.0,0.0,0.0,0.0,0.0,0.0,0.0,0.0,0.0,0.0,0.0,-5.8142,0.0,0.0,0.0,0.0,-6.577,-6.8028,-6.992,-7.0254,0.0,0.0,0.0,0.0,0.0,0.0,0.0,-7.1437,-7.2617,-7.3644,-7.4417,-7.6323,-7.7093,-7.5622,-7.7001,-7.8299,-7.8684,0.0,-7.9523,-8.0368,-8.0981,-8.1504,-8.2004,-8.2817,-8.3639,-8.4268,-8.4643,-8.4927,-8.5088,-8.5101,-8.5101,-8.5101,-8.5101,-8.5101,-8.5101,-8.4211,-8.3283,-8.2664,-8.2548,-8.2548,-8.2548,-8.3206,-8.3786,-8.3868,-8.2913,-7.9895,-7.8978,-7.9569,-7.9607,-8.0028,-8.0697,-8.0697,-8.0697,-8.0697,-8.0697,-8.0238,-7.9454,-7.8596,0.0,-7.9398,-7.8955,-7.8732,-7.8685,-7.8566,-7.7669,-7.6121,-7.6338,-7.6447,-7.6423,-7.7641,-7.7982,-7.7555,-7.8758,-7.9202,-7.8767,-7.753,-7.6781,-7.667,-7.8106,-7.8823,-7.8809,-8.0241,-8.1012,-8.1122,-8.1819,-8.2186,-8.2186,-8.1415,-8.0645,-7.9874,-7.7635,-7.6313,-7.6019,-7.3164,-7.1487,-7.1301,0.0,0.0,0.0,0.0,0.0,0.0,0.0,0.0,0.0,0.0,0.0,0.0,0.0,0.0,0.0,-6.8684,0.0,-7.269,-7.2273,0.0,0.0,0.0,-7.1611,-7.2526,-7.2773,-7.3121,-7.3733,0.0,0.0,-7.6729,0.0,-7.9776,-7.7481,-7.8521,-7.9811,-8.0684,-8.0763,-8.1016,-8.1904,-8.2093,-8.2179,-8.2402,-8.3195,-8.4237,-8.5465,-8.6,-8.6053,-8.6346,-8.648,-8.6558,-8.6494,-8.661,-8.6571,-8.661,-8.6416,-8.6145,-8.4559,-8.4289,-8.4289,-8.4327,-8.4869,-8.5333,-8.4518,-8.4824,-8.4059,-8.3104,-8.213,-8.2111,-8.2225,-8.2378,-8.2378,-8.2416,-8.2416,-8.2416,-8.1958,-8.1156,-8.0315,-8.0009,-8.0238,-8.0793,-8.0804,-8.045,-8.0984,-8.0606,-7.9456,-7.95,-7.9328,-7.8951,-7.9222,-7.9332,-7.9281,-8.0141,-8.0546,-8.0461,-8.0677,-8.0194,-7.9019,-7.9349,-7.9832,-8.0424,-8.0791,-8.1305,-8.1893,-8.2076,-8.2186,-8.2186,-8.1415,-8.0938,-8.0718,-7.9543,-7.8038,-7.6203,-7.5671,-7.4445,-7.2182,-7.0492,0.0,0.0,0.0,0.0,0.0,0.0,0.0,0.0,0.0,-6.3709,-6.4385,0.0,-6.9546,0.0,-7.1847,-7.3265,-7.3595,-7.3483,0.0,0.0,-7.3515,-7.3791,-7.4749,-7.5062,-7.5492,-7.6236,-7.7737,-7.8532,-7.8043,-8.0477,-8.1833,-8.0631,-8.0954,-8.1452,-8.1665,-8.2133,-8.2473,-8.2762,-8.3213,-8.3576,-8.3615,-8.4098,-8.467,-8.5341,-8.579,-8.6033,-8.6114,-8.638,-8.661,-8.661,-8.661,-8.661,-8.6648,-8.661,-8.6532,-8.6107,-8.6029,-8.5991,-8.5991,-8.6145,-8.6261,-8.6275,-8.6658,-8.6658,-8.6123,-8.5244,-8.4862,-8.49,-8.5244,-8.5282,-8.5244,-8.5244,-8.5244,-8.5015,-8.4556,-8.4098,-8.3868,-8.3907,-8.4403,-8.4246,-8.3637,-8.4142,-8.3734,-8.2507,-8.2617,-8.2277,-8.1636,-8.1636,-8.1489,-8.1262,-8.1674,-8.1776,-8.1562,-8.1966,-8.1746,-8.0901,-8.0865,-8.1085,-8.1525,-8.1195,-8.1232,-8.1636,-8.1672,-8.1856,-8.2186,-8.1782,-8.1379,-8.1012,-8.0241,-7.8961,-7.7181,-7.6564,-7.5489,-7.3775,-7.2325,-7.0701,0.0,0.0,0.0,0.0,0.0,0.0,0.0,0.0,0.0,0.0,0.0,-7.1893,-7.3016,-7.3921,-7.4754,-7.5442,-7.5152,-7.5294,-7.6119,-7.5898,-7.6039,-7.6905,-7.7105,-7.7445,-7.8107,-7.9277,-7.9971,-7.9768,-8.1606,-8.2879,-8.2393,-8.2683,-8.295,-8.2962,-8.3288,-8.35,-8.35,-8.3824,-8.4046,-8.3993,-8.4153,-8.4452,-8.4899,-8.5464,-8.5992,-8.6436,-8.7032,-8.747,-8.7649,-8.7704,-8.777,-8.7731,-8.777,-8.777,-8.777,-8.777,-8.7461,-8.6764,-8.661,-8.6583,-8.8301,-8.8415,-8.8415,-8.8415,-8.8339,-8.7613,-8.7613,-8.811,-8.811,-8.811,-8.811,-8.811,-8.811,-8.811,-8.811,-8.8051,-8.7989,-8.8089,-8.7628,-8.6778,-8.7163,-8.6487,-8.502,-8.5298,-8.503,-8.4238,-8.4159,-8.3797,-8.318,-8.3091,-8.2758,-8.2219,-8.2186,-8.2186,-8.2186,-8.2186,-8.2186,-8.2186,-8.1493,-8.1126,-8.1126,-8.1057,-8.1424,-8.2084,-8.2121,-8.1791,-8.1094,-8.0397,-7.9526,-7.8451,-7.6902,-7.594,-7.5669,-7.4127,-7.2572,0.0,-7.0338,0.0,0.0,0.0,0.0,0.0,0.0,0.0,0.0,-7.182,-7.3812,-7.5297,-7.5481,-7.613,-7.7507,-7.7036,-7.7144,-7.8484,-7.8086,-7.7941,-7.8738,-7.8847,-7.9056,-7.953,-8.0283,-8.0947,-8.1292,-8.2445,-8.3215,-8.3255,-8.3563,-8.3843,-8.4009,-8.4035,-8.4035,-8.411,-8.4073,-8.4031,-8.4009,-8.3982,-8.417,-8.4657,-8.5407,-8.607,-8.6853,-8.7673,-8.8406,-8.8722,-8.8828,-8.8977,-8.9188,-8.9163,-8.9163,-8.9085,-8.9005,-8.8499,-8.7301,-8.6939,-8.6713,-8.9485,-9.0135,-9.0135,-9.0135,-9.0135,-8.9982,-8.9218,-8.811,-8.811,-8.811,-8.811,-8.811,-8.811,-8.811,-8.811,-8.7845,-8.7414,-8.7905,-8.7474,-8.6416,-8.7452,-8.7247,-8.6087,-8.6568,-8.6518,-8.5902,-8.5404,-8.4815,-8.4064,-8.3588,-8.2941,-8.2186,-8.2186,-8.2186,-8.2186,0.0,0.0,0.0,-8.1908,-8.1732,-8.1699,-8.1566,-8.1535,-8.1681,-8.1717,0.0,-8.1498,-8.1316,-8.0552,-7.9132,-7.8602,0.0,0.0,0.0,0.0,0.0,0.0,0.0,0.0,0.0,0.0,0.0,-7.3229,-7.3269,-7.2219,-7.4247,-7.6022,-7.6963,-7.7651,-7.8159,-7.8448,-7.834,-7.8376,-7.8629,-7.8557,-7.8774,-7.9571,-7.968,-7.9932,-8.069,-8.1216,-8.1589,-8.1688,-8.2287,-8.286,-8.3157,-8.3358,-8.3564,-8.3822,-8.3993,-8.411,-8.411,-8.3967,-8.4084,-8.4554,-8.4601,-8.4853,-8.5619,-8.6185,-8.6568,-8.68,-8.7246,-8.7766,-8.8321,-8.8367,-8.8656,-8.9117,-8.9201,-8.9353,-8.924,-8.8961,-8.8524,-8.8216,-8.8139,-8.8,-9.0211,0.0,-9.0631,-9.0631,0.0,-9.0631,-9.0135,-8.9332,-8.9332,-8.9332,-8.9332,-8.9332,-8.9332,-8.9311,-8.9022,-8.8737,-8.8463,-8.8426,-8.8279,-8.799,-8.8606,-8.8737,-8.8426,-8.8722,-8.8355,-8.7386,-8.7061,-8.6022,-8.4324,-8.433,-8.365,-8.2223,-8.259,-8.2557,-8.2055,-8.1952,-8.1769,-8.1469,-8.1333,-8.1267,-8.1167,-8.1066,-8.1178,-8.1579,0.0,0.0,0.0,0.0,0.0,0.0,0.0,0.0,0.0,0.0,0.0,-7.6348,-7.5515,-7.4718,-7.3993,-7.4247,-7.4826,-7.5623,-7.6058,-7.5949,-7.5116,-7.6565,-7.7651,-7.805,-7.8448,-7.8847,-7.9245,-7.9281,-7.9462,-7.9825,-7.9897,-8.0078,-8.044,-8.0476,-8.0658,-8.102,-8.1304,-8.1478,-8.1441,-8.1879,-8.2169,-8.2292,-8.2823,-8.3194,-8.3206,-8.362,-8.3902,-8.3924,-8.4179,-8.4405,-8.4675,-8.5065,-8.54,-8.5906,-8.6471,-8.6937,-8.7205,-8.8142,-8.9,-8.9511,-8.9905,-9.0375,-9.076,-9.089,-9.0908,-9.0926,-9.0799,-9.053,-9.0291,-8.9207,-8.8021,-9.0631,-9.0631,-9.0631,-9.0631,-9.0631,-9.0631,-9.0631,-9.0631,0.0,0.0,0.0,-9.0508,-9.0465,-9.0405,-8.9811,-8.9478,-8.9376,-8.9076,-8.9103,-8.9402,-8.9714,-9.0014,-9.0257,-9.0383,-8.9764,-8.8506,-8.8369,-8.6981,-8.4518,-8.5108,-8.4352,-8.2406,-8.3074,-8.3154,-8.2291,-8.1829,-8.1428,-8.1054,-8.0908,-8.0768,-8.0597,-8.0529,-8.0857,-8.1512,-8.1512,-8.1512,-8.1512,-8.1512,-8.1152,-8.0432,-8.0359,-7.9965,-7.9173,-7.9136,-7.8774,-7.7977,-7.7796,-7.7651,-7.7507,-7.747,-7.7977,-7.9028,-7.8666,-7.8122,-7.7579,-7.8122,-7.8557,-7.8702,-7.8955,-7.9426,-8.0042,-8.0404,-8.0802,-8.1454,-8.1527,-8.1527,-8.1527,-8.1527,-8.1599,-8.1527,-8.1599,-8.1491,-8.1491,-8.1811,-8.1875,-8.1734,-8.2488,-8.3078,-8.301,-8.3616,-8.4114,-8.4199,-8.4666,-8.4982,-8.5126,-8.5514,-8.5998,-8.6334,-8.6885,-8.7436,-8.8129,-8.9252,-9.0314,-9.0827,-9.1657,-9.2091,-9.2467,-9.2449,-9.2633,-9.2782,-9.2586,-9.2353,-9.1846,-8.9892,-8.8121,-9.0631,-9.0631,-9.0631,-9.0631,-9.0631,-9.0631,-9.0631,-9.0631,-9.0631,-9.0593,-9.0551,-9.0037,-8.9811,-8.9787,-8.9182,-8.8673,-8.8235,-8.913,-8.905,0.0,-8.9763,-8.9968,-8.9076,-8.9616,-8.9427,-8.8726,-8.8226,-8.7078,-8.549,-8.559,-8.4459,-8.2428,-8.342,-8.3975,-8.3619,-8.2308,-8.1838,-8.2316,-8.1661,-8.1263,-8.1228,-8.1088,-8.1055,-8.1163,-8.1163,-8.1163,-8.1163,-8.12,-8.1127,-8.0983,-8.0983,-8.0875,-8.0766,-8.0766,-8.0404,-7.9607,-7.8919,-7.8231,-7.7579,-7.7507,-7.8448,-8.0549,-8.1273,-8.0476,-7.7796,-7.7615,-7.7941,-7.8666,-7.9933,-8.0802,-8.102,-8.207,-8.2794,-8.3012,-8.312,-8.312,-8.3012,-8.3048,-8.3048,-8.3048,-8.3157,-8.2937,-8.2567,-8.2567,-8.2572,-8.2609,-8.265,-8.3226,-8.4073,-8.4488,-8.4898,-8.5334,-8.5566,-8.5916,-8.6243,-8.6554,-8.6957,-8.7669,-8.7812,-8.8214,-8.8852,-8.9397,-9.0117,-9.1141,-9.1552,-9.1922,-9.2495,-9.2588,-9.2695,-9.2802,-9.2176,-9.1394,-9.1282,-8.9968,-8.9001,-9.0631,-9.0631,-9.0631,-9.0631,-9.0631,-9.0631,-9.0405,-9.0144,-9.0083,-9.0083,-9.0037,-8.9478,-8.922,-8.9167,-8.8578,-8.8316,-8.8375,-8.8257,-8.8287,-8.8405,-8.8887,-8.9023,-8.8832,-8.9114,-8.8887,-8.8287,-8.7923,-8.6989,-8.5603,-8.5461,-8.4414,-8.2555,-8.3072,-8.3514,-8.3736,-8.3046,-8.2794,-8.3048,-8.1958,-8.134,-8.1234,-8.1164,-8.1309,-8.1744,-8.1744,-8.1961,-8.2396,-8.2396,-8.2396,-8.2396,-8.2396,-8.2396,-8.2396,-8.2396,-8.2251,-8.1853,-8.1491,-8.1128,-8.0766,-8.073,-8.102,-8.1708,-8.207,-8.1527,-7.9607,-7.9861,-8.0078,-8.0042,-8.073,-8.1092,-8.1128,-8.178,-8.2215,-8.2179,-8.2541,-8.2831,-8.2903,-8.3265,-8.3483,-8.3483,-8.3483,-8.3335,-8.2848,-8.2809,-8.2577,-8.2274,-8.2314,-8.3113,-8.484,-8.5221,-8.5343,-8.5662,-8.6087,-8.6429,-8.6784,-8.723,-8.7638,-8.8047,-8.8455,-8.8864,-8.9347,-8.9867,-9.0769,-9.1423,-9.1918,-9.2428,-9.2991,-9.3056,-9.3138,-9.3169,-9.2549,-9.1908,-9.161,-9.0644,-8.9583,-9.0631,-9.0631,-9.0631,-9.0631,-9.0631,-9.0631,-9.0235,-8.9714,-8.9714,-8.9528,-8.9246,-8.8776,-8.8578,-8.8521,-8.796,-8.7929,-8.8265,-8.7591,-8.7715,-8.8492,-8.8265,-8.8257,-8.855,-8.8578,-8.8294,-8.7746,-8.7484,-8.6752,-8.5616,-8.526,-8.457,-8.3368,-8.2792,-8.3084,-8.4174,-8.3701,-8.3555,-8.37,-8.2504,-8.1779,-8.1635,-8.1635,-8.1961,-8.2505,-8.2577,-8.2831,-8.3446,-8.3483,-8.3483,-8.3483,-8.3483,-8.3483,-8.3483,-8.3483,-8.3483,-8.3483,-8.3483,-8.3483,-8.3483,-8.3298,-8.297,-8.2573,-8.2277,-8.1912,-8.1409,-8.1804,-8.1776,-8.1021,-8.0984,-8.1092,-8.1165,-8.1527,-8.1708,-8.1925,-8.2432,-8.3048,-8.3157,-8.3664,-8.4026,-8.4026,-8.3952,-8.3726,-8.331,-8.3115,-8.279,-8.2217,-8.2317,-8.3454,-8.5153,-8.5722,-8.5905,-8.6232,-8.6709,-8.7081,-8.7118,-8.7601,-8.801,-8.8084,-8.8567,-8.8938,-8.9347,-9.0387,-9.1279,-9.1529,-9.2166,-9.27,-9.3258,-9.3389,-9.3444,-9.3477,-9.2742,-9.203,-9.1363,-9.0587,-8.9592,-9.0631,-9.0631,-9.0631,-9.0631,-9.0572,-9.061,-9.0273,-8.9752,-8.9714,-8.905,-8.8279,-8.8028,-8.8028,-8.7898,-8.7435,-8.7274,-8.7372,-8.7618,-8.7904,-8.809,-8.8492,-8.8471,-8.7991,-8.796,-8.7651,-8.7129,-8.6889,-8.6346,-8.5583,-8.5297,-8.5045,-8.4646,-8.3157,-8.3483,-8.5259,-8.4244,-8.3881,-8.4533,-8.3737,-8.3302,-8.3265,-8.3265,-8.3301,-8.3374,-8.3374,-8.341,-8.3591,-8.3483,-8.3519,-8.3483,-8.3555,-8.3519,-8.3519,-8.3519,-8.3519,-8.3519,-8.3519,-8.3483,-8.3409,-8.2696,-8.2553,-8.2973,-8.2353,-8.186,-8.1754,-8.1817,-8.1318,-8.0511,-8.0731,-8.1057,-8.1165,-8.2323,-8.3191,-8.3585,-8.4134,-8.475,-8.5183,-8.5619,-8.5692,-8.5692,-8.5095,-8.4848,-8.4232,-8.3863,-8.3508,-8.2971,-8.3345,-8.417,-8.5254,-8.5991,-8.673,-8.7428,-8.7904,-8.7867,-8.7898,-8.801,-8.8084,-8.8084,-8.8158,-8.8604,-8.9198,-8.9607,-8.9942,-9.1316,-9.1873,-9.238,-9.2881,-9.3243,-9.3306,-9.3246,-9.233,-9.0827,-8.9598,-8.9217,-8.8992,-9.0631,-9.0631,-9.0631,-9.0383,-9.0182,-9.0923,-9.0783,-9.0001,-9.084,-9.0706,-8.9922,-8.9535,-8.89,-8.8136,-8.8311,-8.8598,-8.8893,-8.835,-8.8294,-8.8541,-8.8032,-8.7623,-8.7361,-8.7261,-8.7024,-8.6821,-8.6501,-8.621,-8.581,-8.5191,-8.4863,-8.4753,-8.4063,-8.446,-8.5728,-8.5221,-8.5112,-8.5366,-8.5076,-8.4895,-8.4786,-8.3953,-8.37,-8.4171,-8.4207,-8.446,-8.4859,-8.4895,-8.4895,-8.4895,-8.4931,-8.4895,-8.4931,-8.4931,-8.4895,-8.4858,-8.4367,-8.3785,-8.3264,-8.2813,-8.275,-8.3069,-8.2725,-8.2541,-8.2462,-8.2076,-8.1543,-8.113,-8.0906,-8.0835,-8.091,-8.1952,-8.2607,-8.2576,-8.3672,-8.4598,-8.4277,-8.5048,-8.5489,-8.5489,-8.5064,-8.4661,-8.4207,-8.374,-8.3429,-8.3253,-8.3568,-8.4052,-8.4801,-8.5198,-8.5954,-8.7022,-8.7361,-8.7595,-8.799,-8.8084,-8.8084,-8.8158,-8.8493,-8.9013,-8.9161,-9.0239,-9.0907,-9.1019,-9.1725,-9.2198,-9.2397,-9.295,-9.3205,-9.2965,-9.2088,-9.0543,-8.9074,-8.8879,-8.8964,-9.0623,-9.0705,-9.0933,-9.0875,-9.0713,-9.1507,-9.1453,-9.0815,-9.1567,-9.1552,-9.0991,-9.0695,-8.9895,-8.8869,-8.9199,-8.9624,-8.9851,-8.8895,-8.8672,-8.893,-8.7759,-8.715,-8.715,-8.6788,-8.6608,-8.6573,-8.6283,-8.5882,-8.5408,-8.4716,-8.4279,-8.4062,-8.4026,-8.4569,-8.5475,-8.5547,-8.5583,-8.5547,-8.5547,-8.5475,-8.5076,-8.4098,-8.399,-8.4895,-8.4569,-8.4823,-8.5837,-8.5692,-8.5692,-8.5873,-8.5646,-8.5492,-8.5492,-8.5261,-8.5067,-8.5028,-8.4431,-8.3727,-8.3042,-8.2601,-8.2387,-8.2561,-8.2276,-8.2013,-8.2083,-8.17,-8.1422,-8.1283,-8.0821,-8.0538,-8.0716,-8.1266,-8.1378,-8.1125,-8.2847,-8.3566,-8.317,-8.4105,-8.4783,-8.4666,-8.4462,-8.4171,-8.374,-8.3429,-8.3208,-8.3208,-8.3208,-8.3481,-8.4112,-8.434,-8.4718,-8.624,-8.6518,-8.7003,-8.7884,-8.8084,-8.8047,-8.7935,-8.827,-8.8716,-8.8827,-8.9979,-9.1167,-9.0722,-9.191,-9.2649,-9.2635,-9.2965,-9.2811,-9.2397,-9.1597,-9.0415,-8.8898,-8.8869,-8.8908,-9.0692,-9.1014,-9.1786,-9.2295,-9.2875,-9.2399,-9.214,-9.1846,-9.1535,-9.0902,-9.0504,-9.0902,-9.069,-8.9933,-8.9642,-8.9454,-8.9454,-8.9202,-8.9056,-8.9055,-8.8071,-8.7559,-8.7523,-8.6794,-8.6429,-8.6429,-8.6174,-8.5299,-8.3845,-8.3628,-8.312,-8.2505,-8.2613,-8.3265,-8.4533,-8.475,-8.475,-8.475,-8.475,-8.4424,-8.3736,-8.3555,-8.4171,-8.5366,-8.4352,-8.4316,-8.5547,-8.5149,-8.5039,-8.5873,-8.488,-8.4365,-8.436,-8.3614,-8.3226,-8.3174,-8.3086,-8.2998,-8.2706,-8.1574,-8.0961,-8.1349,-8.0418,-7.968,-8.0421,-8.0319,-8.0217,-8.024,-8.0134,-8.0186,-8.0463,-8.0753,-8.1086,-8.148,-8.1839,-8.2234,-8.2601,-8.3356,-8.3677,-8.367,-8.3791,-8.374,-8.3341,-8.3208,-8.3208,-8.3208,-8.3208,-8.3481,-8.3987,-8.3743,-8.4107,-8.5117,-8.5783,-8.6274,-8.7667,-8.7898,-8.7564,-8.7564,-8.7824,-8.8084,-8.7935,-8.8158,-8.9384,-9.0499,-9.1539,-9.2282,-9.2728,-9.2686,-9.2166,-9.171,-9.121,-9.0106,-8.878,-8.8733,-8.8766,-9.1746,-9.2269,-9.1989,-9.1831,-9.1816,-9.2436,-9.2241,-9.1565,-9.2294,-9.2397,-9.203,-9.1902,-9.1678,-9.136,-9.0814,-9.0519,-9.0482,-8.9933,-8.9677,-8.9567,-8.88,-8.807,-8.7559,-8.7121,-8.6683,-8.6246,-8.6062,-8.5368,-8.4316,-8.3772,-8.3338,-8.312,-8.3048,-8.3374,-8.3845,-8.3917,-8.3917,-8.3917,-8.3917,-8.3772,-8.3446,-8.2976,-8.3265,-8.4243,-8.3809,-8.399,-8.5076,-8.3826,-8.3409,-8.4238,-8.2856,-8.2079,-8.2107,-8.2232,-8.2232,-8.2106,-8.2084,-8.1804,-8.127,-8.0663,-8.0384,-8.0588,-7.9747,-7.916,-7.9363,-7.9092,-7.8788,-7.8788,-7.8788,-7.8992,-7.9714,-8.0558,-8.1078,-8.0932,-8.1713,-8.2032,-8.1945,-8.2496,-8.3068,-8.3024,-8.3271,-8.3385,-8.3262,-8.3208,-8.3208,-8.3208,-8.3208,-8.3314,-8.3383,-8.2991,-8.302,-8.4278,-8.4499,-8.4701,-8.6283,-8.6969,-8.7192,-8.7452,-8.7712,-8.8121,-8.8195,-8.9124,-9.0387,-9.0722,-9.1539,-9.2208,-9.2728,-9.2802,-9.2133,-9.1237,-9.0738,-9.0088,-8.8591,-8.8623,-8.8696,-9.2275,-9.2831,-9.2175,-9.1917,-9.2021,-9.2488,-9.2349,-9.1746,-9.2398,-9.2686,-9.2588,-9.2047,-9.1729,-9.162,-9.1171,-9.1014,-9.0978,-9.047,-9.029,-9.0217,-8.9376,-8.8721,-8.8138,-8.7516,-8.6932,-8.6351,-8.5767,-8.5076,-8.4316,-8.3483,-8.3012,-8.2686,-8.2722,-8.2867,-8.3048,-8.3084,-8.3084,-8.3084,-8.3084,-8.2902,-8.2355,-8.207,-8.1851,-8.1872,-8.213,-8.2821,-8.3795,-8.2464,-8.192,-8.2205,-8.1125,-8.0228,-8.0032,-8.0359,-8.0605,-8.0467,-8.044,-8.0185,-7.958,-7.9295,-7.9194,-7.9431,-7.8822,-7.845,-7.8653,-7.828,-7.8044,-7.801,-7.801,-7.8247,-7.8653,-7.9635,-8.019,-7.9935,-8.0734,-8.0945,-8.0102,-8.0845,-8.1548,-8.2101,-8.2769,-8.3033,-8.2928,-8.3103,-8.3173,-8.3208,-8.3033,-8.2857,-8.2752,-8.2023,-8.188,-8.3216,-8.3229,-8.3902,-8.5266,-8.6264,-8.6486,-8.6709,-8.801,-8.8418,-8.8976,-9.0053,-9.087,-9.113,-9.1613,-9.2245,-9.2616,-9.2728,-9.2096,-9.1093,-9.0637,-9.0143,-8.92,-8.8547,-8.8585,-9.2196,-9.2645,-9.2319,-9.2737,-9.3358,-9.2612,-9.2517,-9.2542,-9.1728,-9.1584,-9.1764,-9.1247,-9.09,-9.0701,-9.0701,-9.0621,-9.0661,-9.071,-9.0788,-9.0716,-8.9866,-8.9353,-8.9063,-8.7759,-8.6962,-8.6597,-8.5366,-8.4279,-8.3483,-8.265,-8.1961,-8.1309,-8.1309,-8.1708,-8.2287,-8.2287,-8.2287,-8.2287,-8.2287,-8.1524,-8.0056,-8.0655,-8.0356,-7.9069,-7.9546,-8.0574,-8.1894,-8.1172,-8.0699,-8.0696,-7.9813,-7.8909,-7.8244,-7.8235,-7.8108,-7.8307,-7.8176,-7.8093,-7.8059,-7.757,-7.7671,-7.801,-7.7435,-7.7401,-7.7874,-7.7841,-7.7739,-7.7705,-7.769,-7.7776,-7.7612,-7.7747,-7.815,-7.8857,-7.9025,-7.8505,-7.7933,-7.8414,-7.9603,-8.0972,-8.2296,-8.2787,-8.2506,-8.2787,-8.3173,-8.3103,-8.2647,-8.2225,-8.212,-8.1067,-8.0734,-8.1698,-8.2396,-8.3216,-8.4493,-8.5632,-8.5706,-8.6041,-8.7787,-8.8938,-8.9496,-9.0424,-9.1353,-9.1762,-9.2171,-9.2765,-9.2765,-9.2839,-9.2468,-9.1613,-9.1051,-9.0345,-8.9479,-8.8791,-8.8517,-9.311,-9.2952,-9.2621,-9.2465,-9.2525,-9.2087,-9.1766,-9.1399,-9.1055,-9.1016,-9.0941,-9.0819,-9.0621,-9.0618,-9.0618,-9.0618,-9.0618,-9.0661,-9.0701,-9.0625,-9.0368,-8.9603,-8.8662,-8.8082,-8.6996,-8.5475,-8.4388,-8.3446,-8.265,-8.1889,-8.1309,-8.1165,-8.1092,-8.1237,-8.1491,-8.1491,-8.1491,-8.1491,-8.1491,-8.0873,-7.9908,-8.0023,-7.9601,-7.8606,-7.8688,-7.8846,-7.8675,-7.838,-7.8529,-7.9029,-7.7628,-7.6958,-7.7193,-7.7232,-7.7468,-7.7908,-7.801,-7.801,-7.7976,-7.7773,-7.7638,-7.7807,-7.7299,-7.7029,-7.713,-7.6758,-7.6487,-7.6454,-7.6275,-7.6249,-7.6671,-7.6691,-7.6977,-7.7699,-7.7564,-7.7311,-7.7061,-7.7987,-7.9591,-8.1322,-8.2155,-8.2471,-8.2787,-8.3103,-8.3138,-8.3138,-8.2541,-8.205,-8.1839,-8.0681,-8.0475,-8.1703,-8.2106,-8.2892,-8.4585,-8.5966,-8.6486,-8.6895,-8.827,-8.9607,-9.0202,-9.087,-9.1762,-9.2319,-9.2765,-9.2951,-9.2988,-9.2839,-9.2542,-9.2133,-9.1502,-9.0642,-8.9607,-8.9076,-8.8797,-9.2761,-9.2458,-9.2052,-9.1839,-9.173,-9.1509,-9.1091,-9.0621,-9.074,-9.0701,-9.0621,-9.0618,-9.0618,-9.0618,-9.0618,-9.0618,-9.0618,-9.0618,-9.0618,-9.0618,-9.0618,-8.9857,-8.8626,-8.801,-8.6742,-8.4895,-8.3881,-8.3084,-8.2287,-8.1527,-8.1092,-8.1092,-8.1092,-8.1128,-8.1092,-8.1092,-8.1092,-8.1056,-8.0803,-8.0175,-7.9483,-7.9249,-7.8682,-7.7633,-7.7719,-7.7449,-7.6668,-7.6576,-7.6816,-7.7078,-7.6245,-7.598,-7.642,-7.6454,-7.6657,-7.6995,-7.713,-7.7096,-7.713,-7.7029,-7.713,-7.7063,-7.6724,-7.6454,-7.6386,-7.5912,-7.5709,-7.5566,-7.5455,-7.5531,-7.6005,-7.6107,-7.6258,-7.6773,-7.6606,-7.634,-7.6442,-7.7397,-7.8556,-8.0026,-8.1034,-8.1761,-8.2225,-8.2682,-8.2928,-8.2998,-8.2331,-8.1664,-8.1348,-8.0294,-8.0728,-8.1335,-8.1998,-8.3244,-8.5021,-8.6226,-8.723,-8.801,-8.8938,-9.009,-9.0982,-9.1688,-9.2505,-9.2653,-9.2951,-9.2951,-9.2988,-9.2988,-9.2765,-9.2319,-9.1948,-9.1242,-9.0387,-8.9533,-8.9119,-9.1546,-9.1396,-9.0897,-9.1053,-9.1322,-9.0897,-9.0697,-9.0618,-9.0618,-9.0581,-9.0618,-9.0618,-9.0618,-9.0618,-9.0618,-9.0618,-9.0618,-9.0618,-9.0509,-9.0436,-9.0364,-8.9857,-8.8807,-8.7539,-8.609,-8.4605,-8.3809,-8.3012,-8.207,-8.1418,-8.1092,-8.1092,-8.1092,-8.1092,-8.1056,-8.1056,-8.0948,-8.0767,-8.0135,-7.9249,-7.8399,-7.8357,-7.7589,-7.6007,-7.6576,-7.6668,-7.6007,-7.5865,-7.5771,-7.5757,-7.5757,-7.5709,-7.5709,-7.5709,-7.5811,-7.5912,-7.5743,-7.5845,-7.5777,-7.5946,-7.5912,-7.5946,-7.5879,-7.5676,-7.5777,-7.5865,-7.5769,-7.5575,-7.5497,-7.5569,-7.579,-7.5838,-7.6036,-7.6196,-7.6051,-7.574,-7.5575,-7.67,-7.7743,-7.8291,-7.9557,-8.0961,-8.1242,-8.1839,-8.2401,-8.2612,-8.1874,-8.1207,-8.0646,-8.0155,-8.0146,-8.0887,-8.1995,-8.3654,-8.5434,-8.6679,-8.7675,-8.8493,-8.931,-9.0202,-9.139,-9.2208,-9.2765,-9.2914,-9.2988,-9.2988,-9.2988,-9.2988,-9.2988,-9.2765,-9.2356,-9.191,-9.113,-9.009,-8.9336,-9.162,-9.0897,-9.113,-9.1091,-9.0858,-9.0657,-9.0618,-9.0618,-9.0618,-9.0618,-9.0618,-9.0618,-9.0618,-9.0618,-9.0618,-9.0618,-9.0618,-9.0618,-9.0219,-8.9748,-8.9712,-8.8879,-8.772,-8.667,-8.5366,-8.399,-8.3591,-8.2758,-8.1491,-8.1237,-8.1092,-8.1092,-8.1092,-8.1056,-8.1021,-8.0436,-8.0173,-8.0023,-7.9249,-7.8357,-7.7624,-7.7449,-7.6861,-7.5913,-7.596,-7.596,-7.5676,-7.5676,-7.5676,-7.5676,-7.5676,-7.5676,-7.5676,-7.5676,-7.5628,-7.5628,-7.5676,-7.5676,-7.5676,-7.5676,-7.5676,-7.5676,-7.5695,-7.5676,-7.5709,-7.6024,-7.6114,-7.6136,-7.6257,-7.6357,-7.6353,-7.6266,-7.6244,-7.621,-7.5949,-7.5739,-7.6008,-7.6436,-7.7273,-7.8911,-7.971,-8.047,-8.1313,-8.1769,-8.2085,-8.212,-8.1558,-8.0681,-8.0189,-8.0021,-7.9999,-8.1263,-8.2495,-8.4135,-8.5668,-8.6957,-8.8053,-8.8864,-8.9533,-9.0053,-9.1279,-9.2356,-9.2728,-9.2988,-9.2988,-9.2988,-9.2988,-9.2988,-9.2988,-9.2988,-9.2802,-9.2356,-9.1279,-9.0244,-8.9547,-9.1208,-9.0621,-9.0975,-9.0936,-9.0657,-9.0618,-9.0618,-9.0618,-9.0618,-9.0618,-9.0618,-9.0618,-9.0618,-9.0618,-9.0618,-9.0618,-9.0618,-9.0618,-9.0147,-8.9386,-8.8698,-8.7865,-8.6996,-8.6235,-8.504,-8.3627,-8.3483,-8.2577,-8.1382,-8.1092,-8.1092,-8.1092,-8.1092,-8.0876,-8.0473,-8.0099,-7.9562,-7.913,-7.8315,-7.758,-7.713,-7.6713,-7.6288,-7.5771,-7.5676,-7.5676,-7.5676,-7.5676,-7.5676,-7.5676,-7.5709,-7.5662,-7.5532,-7.5566,-7.5566,-7.5566,-7.5518,-7.5532,-7.5676,-7.5676,-7.5662,-7.5633,-7.5754,-7.5908,-7.598,-7.6371,-7.6709,-7.6576,-7.664,-7.6786,-7.6997,-7.7105,-7.721,-7.7255,-7.6907,-7.6609,-7.649,-7.669,-7.7406,-7.8502,-7.9177,-7.9698,-8.0997,-8.1102,-8.1313,-8.1348,-8.0926,-8.033,-7.9908,-7.988,-8.0232,-8.1515,-8.2956,-8.461,-8.5935,-8.7193,-8.7978,-8.8827,-8.9793,-9.0276,-9.1242,-9.2393,-9.2765,-9.2988,-9.2988,-9.2988,-9.2988,-9.2988,-9.2988,-9.2988,-9.2988,-9.2579,-9.1502,-9.0703,-8.9932,-9.0618,-9.0618,-9.0618,-9.0618,-9.0618,-9.0618,-9.0618,-9.0618,-9.0618,-9.0618,-9.0618,-9.0618,-9.0618,-9.0618,-9.0618,-9.0545,-9.0436,-9.0328,-8.9748,-8.8807,-8.7756,-8.6851,-8.6778,-8.6199,-8.5004,-8.37,-8.3483,-8.2541,-8.1454,-8.1092,-8.1092,-8.1021,-8.0985,-8.051,-7.9911,-7.9562,-7.9009,-7.8231,-7.7405,-7.6951,-7.6713,-7.616,-7.5818,-7.5723,-7.5676,-7.5676,-7.5676,-7.5676,-7.5709,-7.5662,-7.5676,-7.5566,-7.5373,-7.5359,-7.5411,-7.5478,-7.5512,-7.5575,-7.5701,-7.5769,-7.5687,-7.5677,-7.6151,-7.6389,-7.6374,-7.681,-7.7093,-7.6973,-7.6853,-7.7196,-7.7503,-7.808,-7.8384,-7.8453,-7.8539,-7.7898,-7.7227,-7.7297,-7.7623,-7.7606,-7.8279,-7.8953,-7.9522,-7.9838,-8.0049,-8.0716,-8.033,-8.0084,-7.9978,-8.0126,-8.0732,-8.1804,-8.3373,-8.5045,-8.6271,-8.746,-8.7969,-8.8641,-8.9793,-9.0573,-9.139,-9.2282,-9.2728,-9.2988,-9.2988,-9.2988,-9.2988,-9.2988,-9.2988,-9.2988,-9.2988,-9.2505,-9.1841,-9.1239,-9.0566,-9.0618,-9.0618,-9.0618,-9.0618,-9.0618,-9.0618,-9.0618,-9.0618,-9.0618,-9.0581,-9.0581,-9.0581,-9.0545,-9.0545,-9.0436,-9.0292,-8.9676,-8.9531,-8.8915,-8.7503,-8.6634,-8.6163,-8.6163,-8.5945,-8.5004,-8.3845,-8.3483,-8.2613,-8.1454,-8.1092,-8.1056,-8.0985,-8.0436,-7.9947,-7.9601,-7.8392,-7.7659,-7.7263,-7.6485,-7.6101,-7.6101,-7.5865,-7.5676,-7.5676,-7.5676,-7.5676,-7.5676,-7.5676,-7.5614,-7.5518,-7.5566,-7.5518,-7.5493,-7.5833,-7.6019,-7.5871,-7.5822,-7.597,-7.6151,-7.6102,-7.6019,-7.6169,-7.6592,-7.6961,-7.6944,-7.7325,-7.7589,-7.7651,-7.7893,-7.8034,-7.8179,-7.8378,-7.8755,-7.9111,-7.8936,-7.8736,-7.8855,-7.8612,-7.8363,-7.8376,-7.8483,-7.889,-7.9662,-7.9698,-7.9838,-7.9978,-7.9908,-7.9803,-8.0014,-8.0259,-8.1077,-8.1979,-8.384,-8.5408,-8.6027,-8.7231,-8.8154,-8.8716,-8.9793,-9.0759,-9.1576,-9.2319,-9.2802,-9.2988,-9.2988,-9.2988,-9.2988,-9.2988,-9.2988,-9.2988,-9.2918,-9.2369,-9.1861,-9.1441,-9.0876,-9.0618,-9.0618,-9.0618,-9.0618,-9.0618,-9.0618,-9.0618,-9.0618,-9.0618,-9.0364,-9.0074,-9.0038,-8.9821,-8.9495,-8.9459,-8.9205,-8.8843,-8.8408,-8.7865,-8.6996,-8.6308,-8.5945,-8.5909,-8.5764,-8.5076,-8.37,-8.3483,-8.2577,-8.1491,-8.1056,-8.084,-8.0509,-8.0021,-7.9245,-7.86,-7.7572,-7.6951,-7.6439,-7.6007,-7.5676,-7.5676,-7.5676,-7.5676,-7.5676,-7.5676,-7.5676,-7.5676,-7.5532,-7.547,-7.5373,-7.5359,-7.543,-7.5587,-7.614,-7.6408,-7.6341,-7.6341,-7.6442,-7.6592,-7.6592,-7.6542,-7.6576,-7.7093,-7.7291,-7.7455,-7.7747,-7.8093,-7.814,-7.8299,-7.8511,-7.8477,-7.8503,-7.8871,-7.9447,-7.9331,-7.9293,-7.951,-7.9103,-7.864,-7.8596,-7.8574,-7.875,-7.9066,-7.9311,-7.9276,-7.9276,-7.9276,-7.9241,-7.9978,-8.033,-8.1137,-8.2291,-8.427,-8.5548,-8.5919,-8.6925,-8.8297,-8.9013,-8.9867,-9.0759,-9.1576,-9.2282,-9.2951,-9.2988,-9.2988,-9.2988,-9.2988,-9.2988,-9.3025,-9.3025,-9.2843,-9.2269,-9.1845,-9.1462,-9.074,-9.0292,-9.0436,-9.0436,-9.04,-9.0436,-9.04,-9.0292,-9.0183,-9.0219,-8.9748,-8.9314,-8.9241,-8.8915,-8.8408,-8.8297,-8.8188,-8.7865,-8.7285,-8.6778,-8.667,-8.6163,-8.5945,-8.5909,-8.5764,-8.5185,-8.3772,-8.3555,-8.265,-8.1672,-8.1093,-8.0694,-7.9947,-7.9601,-7.8764,-7.7484,-7.6895,-7.6485,-7.5865,-7.5771,-7.5676,-7.5676,-7.5676,-7.5676,-7.5676,-7.558,-7.5614,-7.5566,-7.5422,-7.5228,-7.5179,-7.5118,-7.5322,-7.5722,-7.6287,-7.6686,-7.6635,-7.6668,-7.6955,-7.716,-7.716,-7.7058,-7.6886,-7.7466,-7.778,-7.7768,-7.81,-7.8365,-7.8444,-7.8511,-7.8444,-7.8345,-7.8217,-7.8674,-7.9226,-7.9405,-7.9515,-7.9624,-7.9066,-7.8679,-7.8609,-7.8574,-7.8679,-7.8679,-7.8785,-7.8644,-7.8574,-7.8609,-7.896,-7.9768,-8.047,-8.1277,-8.2489,-8.4402,-8.6138,-8.6673,-8.6993,-8.8361,-8.9384,-9.0127,-9.0907,-9.1688,-9.2393,-9.2988,-9.2988,-9.2988,-9.2988,-9.3136,-9.3285,-9.3285,-9.3136,-9.307,-9.2899,-9.2301,-9.1582,-9.0737,-8.8988,-8.9603,-8.9603,-8.9603,-8.9603,-8.9603,-8.9241,-8.8698,-8.8734,-8.8514,-8.8444,-8.8408,-8.8336,-8.8116,-8.8152,-8.7829,-8.7141,-8.6525,-8.6199,-8.6163,-8.5945,-8.5909,-8.5909,-8.5873,-8.5366,-8.4533,-8.3845,-8.2939,-8.207,-8.1418,-8.0656,-7.9831,-7.9089,-7.8097,-7.7219,-7.6392,-7.6007,-7.5723,-7.5676,-7.5676,-7.5676,-7.5676,-7.5628,-7.5628,-7.5518,-7.5422,-7.5325,-7.5164,-7.4968,-7.4788,-7.5272,-7.5421,-7.5535,-7.6151,-7.655,-7.6679,-7.6959,-7.7329,-7.7637,-7.7481,-7.7481,-7.7647,-7.8059,-7.8352,-7.8312,-7.8411,-7.8511,-7.8511,-7.8477,-7.8312,-7.7649,-7.7751,-7.8051,-7.8419,-7.8498,-7.8532,-7.9259,-7.9101,-7.8574,-7.8574,-7.8574,-7.8574,-7.8574,-7.8574,-7.8574,-7.8574,-7.8574,-7.9311,-8.033,-8.0891,-8.1496,-8.292,-8.4532,-8.6174,-8.7563,-8.7771,-8.8493,-8.9681,-9.0536,-9.1242,-9.1985,-9.2616,-9.2988,-9.3211,-9.3136,-9.3062,-9.3248,-9.3582,-9.3842,-9.3917,-9.3816,-9.3647,-9.2716,-9.1802,-9.1171,-8.8444,-8.8807,-8.8807,-8.8807,-8.877,-8.8807,-8.8589,-8.8224,-8.8188,-8.7935,-8.7645,-8.7537,-8.7358,-8.7104,-8.7032,-8.6742,-8.6416,-8.6126,-8.5909,-8.5909,-8.5909,-8.5909,-8.5945,-8.5945,-8.5692,-8.504,-8.4135,-8.3084,-8.2251,-8.1491,-8.0656,-7.9757,-7.8852,-7.8012,-7.7085,-7.6207,-7.5771,-7.5676,-7.5676,-7.5676,-7.5676,-7.5676,-7.5662,-7.547,-7.5373,-7.5228,-7.5082,-7.4919,-7.4722,-7.4639,-7.4805,-7.482,-7.5134,-7.5765,-7.6594,-7.6854,-7.7252,-7.7702,-7.804,-7.8034,-7.8034,-7.8173,-7.8398,-7.8477,-7.8511,-7.8511,-7.8511,-7.8511,-7.8477,-7.8212,-7.7517,-7.7728,-7.8028,-7.7993,-7.7972,-7.8432,-7.8854,-7.8743,-7.8644,-7.8574,-7.8574,-7.8574,-7.8574,-7.8574,-7.8574,-7.8574,-7.8574,-7.9522,-8.0716,-8.1137,-8.1496,-8.3519,-8.5081,-8.639,-8.766,-8.79,-8.8498,-8.9719,-9.055,-9.1256,-9.2208,-9.2802,-9.3322,-9.3694,-9.3508,-9.3397,-9.3619,-9.4028,-9.4362,-9.4629,-9.4321,-9.3892,-9.2904,-9.2049,-9.1412,-8.7829,-8.7935,-8.7935,-8.7935,-8.7935,-8.7935,-8.7826,-8.7754,-8.7684,-8.7358,-8.6851,-8.6742,-8.6489,-8.6054,-8.5945,-8.5945,-8.5909,-8.6018,-8.6199,-8.6271,-8.6452,-8.6416,-8.638,-8.6199,-8.6126,-8.5945,-8.4569,-8.3338,-8.2541,-8.1599,-8.0619,-7.9721,-7.8852,-7.7969,-7.7085,-7.616,-7.5818,-7.5676,-7.5676,-7.5676,-7.5676,-7.5662,-7.5518,-7.5277,-7.5228,-7.5033,-7.4919,-7.4622,-7.4523,-7.4423,-7.4389,-7.4321,-7.4568,-7.5463,-7.649,-7.7252,-7.7517,-7.798,-7.8279,-7.8477,-7.8411,-7.8411,-7.8477,-7.8511,-7.8511,-7.8511,-7.8511,-7.8511,-7.8511,-7.8239,-7.7689,-7.7949,-7.7986,-7.7835,-7.8013,-7.8406,-7.856,-7.8609,-7.8609,-7.8574,-7.8574,-7.8574,-7.8574,-7.8574,-7.8574,-7.8574,-7.8574,-7.9452,-8.054,-8.0856,-8.1691,-8.404,-8.5732,-8.6885,-8.7595,-8.7628,-8.8446,-8.957,-9.0123,-9.0657,-9.1857,-9.2988,-9.3508,-9.4065,-9.4177,-9.4102,-9.4325,-9.466,-9.518,-9.5343,-9.485,-9.43,-9.3629,-9.2626,-9.1694,-8.6561,-8.7141,-8.7177,-8.7138,-8.7141,-8.7141,-8.6778,-8.6271,-8.6308,-8.6126,-8.6126,-8.609,-8.6018,-8.5909,-8.5909,-8.5909,-8.6126,-8.6489,-8.6815,-8.6959,-8.743,-8.7684,-8.772,-8.7177,-8.6815,-8.6452,-8.5185,-8.4171,-8.312,-8.1817,-8.0694,-7.9834,-7.8973,-7.7977,-7.7308,-7.6392,-7.5723,-7.5676,-7.5676,-7.5676,-7.5628,-7.5484,-7.5373,-7.5179,-7.4968,-7.4672,-7.4622,-7.4423,-7.4272,-7.4272,-7.4255,-7.4502,-7.5032,-7.5282,-7.6159,-7.7152,-7.7947,-7.8444,-7.8511,-7.8511,-7.8511,-7.8511,-7.8511,-7.8511,-7.8511,-7.8511,-7.8511,-7.8511,-7.8477,-7.8165,-7.7681,-7.763,-7.7611,-7.7675,-7.7849,-7.8229,-7.8483,-7.889,-7.8855,-7.8574,-7.8574,-7.8574,-7.8574,-7.8574,-7.8574,-7.8574,-7.8785,-7.9662,-8.0555,-8.1133,-8.2099,-8.4499,-8.5695,-8.6744,-8.7361,-8.7427,-8.8228,-8.9378,-8.9938,-9.0409,-9.2013,-9.3397,-9.3954,-9.44,-9.4622,-9.5068,-9.544,-9.5848,-9.622,-9.5984,-9.5442,-9.503,-9.4685,-9.3455,-9.203,-8.609,-8.638,-8.638,-8.638,-8.638,-8.638,-8.6199,-8.5945,-8.5909,-8.5909,-8.5909,-8.5909,-8.5909,-8.5909,-8.5909,-8.6163,-8.6525,-8.6923,-8.7322,-8.7684,-8.8082,-8.8224,-8.7935,-8.743,-8.7032,-8.6706,-8.5511,-8.4243,-8.3338,-8.2432,-8.1346,-8.0436,-7.953,-7.8735,-7.7754,-7.6906,-7.6253,-7.5865,-7.5676,-7.5676,-7.5628,-7.547,-7.5228,-7.5082,-7.4771,-7.4523,-7.4372,-7.4272,-7.4221,-7.4288,-7.4553,-7.49,-7.543,-7.5993,-7.6887,-7.7285,-7.8113,-7.8477,-7.8511,-7.8511,-7.8511,-7.8511,-7.8511,-7.8511,-7.8511,-7.8511,-7.8511,-7.8511,-7.8503,-7.8183,-7.783,-7.789,-7.7777,-7.7792,-7.8102,-7.8291,-7.8659,-7.9051,-7.9241,-7.889,-7.8574,-7.8574,-7.8574,-7.8574,-7.8609,-7.8644,-7.903,-7.9908,-8.119,-8.2411,-8.3539,-8.51,-8.5844,-8.6319,-8.685,-8.7127,-8.801,-8.9055,-9.0073,-9.0906,-9.267,-9.3879,-9.4474,-9.518,-9.5774,-9.6183,-9.6591,-9.6525,-9.6421,-9.6215,-9.5988,-9.5379,-9.4681,-9.3663,-9.2387,-8.5909,-8.5909,-8.5909,-8.5909,-8.5909,-8.5909,-8.5909,-8.5909,-8.5909,-8.5909,-8.5909,-8.5909,-8.5909,-8.5982,-8.6126,-8.6525,-8.6996,-8.743,-8.7937,-8.8372,-8.8734,-8.8876,-8.877,-8.8155,-8.7611,-8.7358,-8.6199,-8.4786,-8.3627,-8.2831,-8.2106,-8.1129,-8.0025,-7.9214,-7.8357,-7.7449,-7.6576,-7.5723,-7.5614,-7.5566,-7.5518,-7.5277,-7.5067,-7.487,-7.4622,-7.4423,-7.4221,-7.4221,-7.4221,-7.4652,-7.49,-7.5363,-7.5993,-7.6755,-7.7384,-7.7749,-7.8312,-7.8511,-7.8511,-7.8511,-7.8511,-7.8511,-7.8511,-7.8511,-7.8511,-7.8511,-7.8511,-7.8511,-7.8497,-7.8253,-7.7991,-7.8279,-7.8242,-7.8337,-7.8664,-7.8729,-7.882,-7.9101,-7.9171,-7.882,-7.8574,-7.8574,-7.8574,-7.8574,-7.8609,-7.8679,-7.9311,-8.0154,-8.155,-8.3068,-8.4044,-8.5123,-8.5618,-8.6063,-8.6648,-8.7155,-8.7958,-8.8862,-8.9895,-9.126,-9.2959,-9.4251,-9.5031,-9.5848,-9.6666,-9.6757,-9.6764,-9.6653,-9.6506,-9.6214,-9.5899,-9.519,-9.4428,-9.3502,-9.2697,-8.5909,-8.5909,-8.5909,-8.5909,-8.5909,-8.5909,-8.5909,-8.5909,-8.5909,-8.5909,-8.5909,-8.5909,-8.5909,-8.6054,-8.6525,-8.6923,-8.7141,-8.8553,-8.906,-8.9495,-8.9966,-9.0147,-8.9857,-8.9314,-8.8662,-8.801,-8.6887,-8.5402,-8.3953,-8.3338,-8.2396,-8.1202,-8.0361,-7.9369,-7.8357,-7.7361,-7.6668,-7.5913,-7.5614,-7.5373,-7.5228,-7.4984,-7.4672,-7.4656,-7.4372,-7.4221,-7.4221,-7.4221,-7.452,-7.505,-7.5297,-7.596,-7.6755,-7.7351,-7.7815,-7.8212,-7.8378,-7.8511,-7.8511,-7.8511,-7.8511,-7.8511,-7.8444,-7.8345,-7.8312,-7.8411,-7.8477,-7.8339,-7.8336,-7.845,-7.8402,-7.8535,-7.8476,-7.8613,-7.8764,-7.8806,-7.882,-7.889,-7.8925,-7.8679,-7.8574,-7.8574,-7.8574,-7.8574,-7.8574,-7.8644,-7.9662,-8.054,-8.1802,-8.3217,-8.3851,-8.468,-8.5228,-8.5827,-8.6557,-8.7259,-8.7959,-8.8983,-9.0101,-9.1509,-9.307,-9.4255,-9.5403,-9.6406,-9.7151,-9.706,-9.6842,-9.6471,-9.6171,-9.6123,-9.5684,-9.4832,-9.4415,-9.3848,-9.2983,-8.5909,-8.5909,-8.5909,-8.5909,-8.5909,-8.5909,-8.5909,-8.5909,-8.5909,-8.5909,-8.5909,-8.5909,-8.5909,-8.6126,-8.667,-8.7322,-8.7865,-8.8843,-8.9567,-9.0074,-9.0473,-9.0581,-9.0328,-8.9785,-8.8951,-8.8227,-8.7358,-8.5801,-8.37,-8.3519,-8.2468,-8.1418,-8.0693,-7.9679,-7.86,-7.7229,-7.6531,-7.6346,-7.5723,-7.5325,-7.5179,-7.487,-7.4573,-7.4573,-7.4322,-7.4221,-7.4221,-7.4221,-7.4652,-7.5165,-7.5662,-7.649,-7.7351,-7.7782,-7.8179,-7.8477,-7.8511,-7.8511,-7.8511,-7.8511,-7.8511,-7.8411,-7.8146,-7.7848,-7.7815,-7.7484,-7.7533,-7.7663,-7.7947,-7.8184,-7.8557,-7.8588,-7.8567,-7.8743,-7.8785,-7.882,-7.8855,-7.8855,-7.882,-7.8644,-7.8574,-7.8574,-7.8574,-7.8574,-7.8574,-7.8679,-7.9803,-8.0969,-8.2224,-8.3164,-8.3805,-8.43,-8.4865,-8.5589,-8.6361,-8.7115,-8.7942,-8.9239,-9.0443,-9.204,-9.3631,-9.4477,-9.5663,-9.6703,-9.7344,-9.71,-9.6654,-9.6076,-9.5636,-9.5223,-9.4799,-9.4275,-9.4012,-9.4048,-9.3463,-8.5909,-8.5909,-8.5909,-8.5909,-8.5909,-8.5909,-8.5909,-8.5909,-8.5909,-8.5909,-8.5909,-8.609,-8.6235,-8.6489,-8.7358,-8.801,-8.8698,-8.9422,-9.0038,-9.04,-9.0581,-9.0618,-9.04,-9.0002,-8.9314,-8.8333,-8.7537,-8.6163,-8.3555,-8.3483,-8.2505,-8.1563,-8.1021,-8.0099,-7.8887,-7.7317,-7.6531,-7.6439,-7.5973,-7.5228,-7.5082,-7.4722,-7.4473,-7.4423,-7.4272,-7.4221,-7.4221,-7.4255,-7.4734,-7.543,-7.6092,-7.6788,-7.755,-7.8179,-7.8477,-7.8511,-7.8511,-7.8511,-7.8511,-7.8511,-7.8411,-7.808,-7.7782,-7.7384,-7.702,-7.683,-7.7278,-7.7514,-7.772,-7.8041,-7.8549,-7.8589,-7.8588,-7.8644,-7.882,-7.889,-7.882,-7.8785,-7.875,-7.8644,-7.8609,-7.8574,-7.8574,-7.8644,-7.9136,-7.9311,-8.0119,-8.1313,-8.255,-8.3314,-8.3622,-8.407,-8.451,-8.5323,-8.6196,-8.7198,-8.8346,-9.0263,-9.1544,-9.2961,-9.4305,-9.5149,-9.6,-9.7114,-9.7461,-9.7027,-9.627,-9.5389,-9.4669,-9.4052,-9.3908,-9.3898,-9.4364,-9.4402,-9.4078,-8.5909,-8.5909,-8.5909,-8.5909,-8.5909,-8.5909,-8.5909,-8.5945,-8.5982,-8.6018,-8.6126,-8.667,-8.6996,-8.7322,-8.8408,-8.8988,-8.9314,-9.0038,-9.0545,-9.0581,-9.0618,-9.0618,-9.0581,-9.0292,-8.9567,-8.8478,-8.779,-8.6452,-8.3627,-8.3519,-8.2577,-8.1563,-8.1093,-8.0583,-7.9676,-7.835,-7.7219,-7.6288,-7.5913,-7.5228,-7.4771,-7.4423,-7.4322,-7.4272,-7.4221,-7.4221,-7.4221,-7.4387,-7.4966,-7.5927,-7.6324,-7.7119,-7.8179,-7.8378,-7.8511,-7.8511,-7.8511,-7.8511,-7.8511,-7.8511,-7.8246,-7.7782,-7.755,-7.702,-7.6679,-7.6791,-7.716,-7.7168,-7.7865,-7.8325,-7.8527,-7.8562,-7.8588,-7.8609,-7.8785,-7.882,-7.875,-7.8715,-7.8644,-7.8644,-7.8609,-7.8574,-7.8574,-7.8785,-7.9557,-8.0084,-8.0646,-8.1629,-8.2822,-8.3534,-8.3833,-8.4255,-8.4722,-8.5614,-8.6585,-8.7515,-8.8845,-9.0763,-9.2353,-9.3448,-9.4649,-9.56,-9.656,-9.7562,-9.7284,-9.6691,-9.5636,-9.4495,-9.3998,-9.3577,-9.3751,-9.3888,-9.4427,-9.4605,-9.4133,-8.5909,-8.5909,-8.5909,-8.5909,-8.5909,-8.5909,-8.5909,-8.5982,-8.638,-8.6634,-8.6815,-8.7428,-8.7754,-8.8191,-8.8843,-8.9495,-8.9567,-9.0219,-9.0618,-9.0618,-9.0618,-9.0618,-9.0618,-9.0473,-8.9748,-8.8626,-8.7971,-8.6923,-8.4316,-8.3772,-8.2976,-8.2034,-8.0947,-8.0582,-7.9715,-7.8434,-7.6906,-7.6679,-7.5832,-7.4821,-7.4573,-7.4322,-7.4221,-7.4221,-7.4221,-7.4221,-7.4255,-7.4553,-7.533,-7.6258,-7.6589,-7.7484,-7.8345,-7.8511,-7.8511,-7.8511,-7.8511,-7.8511,-7.8511,-7.8511,-7.8444,-7.7914,-7.7219,-7.6655,-7.6395,-7.6057,-7.6347,-7.6883,-7.7663,-7.8092,-7.8446,-7.8539,-7.8574,-7.8574,-7.8644,-7.8644,-7.8609,-7.8609,-7.8574,-7.8574,-7.8574,-7.8574,-7.8574,-7.8925,-7.9592,-8.0365,-8.0926,-8.1804,-8.2928,-8.3735,-8.4236,-8.4728,-8.5265,-8.6129,-8.6999,-8.7807,-8.8685,-9.0231,-9.1866,-9.3198,-9.4445,-9.5799,-9.6678,-9.7496,-9.6916,-9.6194,-9.5055,-9.3953,-9.352,-9.3227,-9.3368,-9.3694,-9.4115,-9.4192,-9.3927,-8.5909,-8.5909,-8.5909,-8.5909,-8.5909,-8.5909,-8.6018,-8.638,-8.7104,-8.7392,-8.7573,-8.8263,-8.8626,-8.8915,-8.9676,-8.9966,-8.9966,-9.0654,-9.1016,-9.098,-9.069,-9.0835,-9.0907,-9.0654,-8.964,-8.8626,-8.7935,-8.6996,-8.4642,-8.3845,-8.2831,-8.1671,-8.0573,-7.9867,-7.9205,-7.8147,-7.6961,-7.6542,-7.5388,-7.4787,-7.4523,-7.4272,-7.4221,-7.4221,-7.4221,-7.4221,-7.442,-7.4918,-7.5595,-7.6291,-7.702,-7.7749,-7.8279,-7.8511,-7.8511,-7.8511,-7.8511,-7.8378,-7.8179,-7.808,-7.7881,-7.7517,-7.6755,-7.6125,-7.5885,-7.5717,-7.6055,-7.6587,-7.7298,-7.7945,-7.8483,-7.8574,-7.8574,-7.8574,-7.8574,-7.8574,-7.8574,-7.8574,-7.8574,-7.8574,-7.8574,-7.8574,-7.8644,-7.9136,-7.9662,-8.0435,-8.1172,-8.212,-8.3068,-8.3876,-8.4683,-8.521,-8.5827,-8.6713,-8.7413,-8.7992,-8.8888,-8.985,-9.1334,-9.2965,-9.4484,-9.5847,-9.6619,-9.7026,-9.6003,-9.5097,-9.4267,-9.3473,-9.3072,-9.288,-9.288,-9.3274,-9.3751,-9.3927,-9.3856,-8.5909,-8.5909,-8.5945,-8.609,-8.6054,-8.6452,-8.6742,-8.7211,-8.8046,-8.8405,-8.8442,-8.935,-8.9785,-8.9966,-9.1161,-9.1378,-9.098,-9.1559,-9.174,-9.1668,-9.1342,-9.1451,-9.1378,-9.1125,-9.0074,-8.8915,-8.8155,-8.7394,-8.4968,-8.377,-8.2612,-8.1199,-7.9704,-7.9009,-7.8482,-7.7719,-7.6736,-7.5832,-7.5243,-7.4688,-7.4372,-7.4221,-7.4221,-7.4221,-7.4221,-7.4221,-7.4453,-7.4867,-7.5595,-7.6291,-7.702,-7.7749,-7.8246,-7.8511,-7.8511,-7.8444,-7.8411,-7.7881,-7.7517,-7.7384,-7.702,-7.6622,-7.6324,-7.5463,-7.5205,-7.5624,-7.6148,-7.6759,-7.7475,-7.8074,-7.8574,-7.8574,-7.8574,-7.8574,-7.8574,-7.8574,-7.8574,-7.8574,-7.8574,-7.8574,-7.8574,-7.8609,-7.8715,-7.9136,-7.9978,-8.0716,-8.1558,-8.2577,-8.3454,-8.4192,-8.4964,-8.5701,-8.64,-8.7342,-8.7937,-8.8129,-8.8744,-8.9565,-9.121,-9.2877,-9.4421,-9.5578,-9.6058,-9.5964,-9.4806,-9.3953,-9.338,-9.2989,-9.2673,-9.2575,-9.277,-9.3215,-9.3786,-9.415,-9.4176,-8.6199,-8.6742,-8.7322,-8.7865,-8.8517,-8.9603,-8.9929,-8.9712,-9.04,-9.0762,-9.0835,-9.1595,-9.1704,-9.2066,-9.2465,-9.2465,-9.2465,-9.2501,-9.261,-9.2501,-9.2247,-9.2066,-9.203,-9.1921,-9.0835,-8.9676,-8.8734,-8.7937,-8.6087,-8.438,-8.2639,-8.1405,-7.9292,-7.8336,-7.7528,-7.6645,-7.602,-7.5422,-7.4968,-7.4489,-7.4272,-7.4221,-7.4221,-7.4221,-7.4221,-7.4221,-7.4387,-7.49,-7.5595,-7.6258,-7.6987,-7.7749,-7.8444,-7.8477,-7.8378,-7.7715,-7.7285,-7.6821,-7.6655,-7.6622,-7.6324,-7.5761,-7.5595,-7.5496,-7.5356,-7.5643,-7.63,-7.685,-7.7562,-7.8202,-7.8532,-7.8574,-7.8574,-7.8574,-7.8574,-7.8574,-7.8609,-7.875,-7.875,-7.8995,-7.8995,-7.903,-7.9101,-7.9592,-8.04,-8.1102,-8.1945,-8.3033,-8.3946,-8.4718,-8.5315,-8.6052,-8.6765,-8.7664,-8.7829,-8.8029,-8.8672,-8.9452,-9.1157,-9.2554,-9.353,-9.4524,-9.5213,-9.5018,-9.4097,-9.3344,-9.2784,-9.2526,-9.2512,-9.2624,-9.2784,-9.3274,-9.374,-9.4105,-9.4419,-8.6978,-8.77,-8.8205,-8.93,-9.0831,-9.1645,-9.2001,-9.2182,-9.2274,-9.2284,-9.232,-9.2754,-9.3008,-9.2972,-9.3261,-9.3298,-9.2935,-9.3298,-9.3479,-9.3443,-9.3225,-9.3044,-9.2935,-9.2718,-9.1378,-9.0183,-8.9096,-8.8263,-8.6408,-8.4143,-8.2219,-8.1481,-7.9191,-7.8233,-7.7637,-7.6861,-7.5988,-7.543,-7.4938,-7.4355,-7.4221,-7.4221,-7.4221,-7.4221,-7.4221,-7.4221,-7.4288,-7.4951,-7.5463,-7.596,-7.6589,-7.7119,-7.7616,-7.7583,-7.7517,-7.692,-7.6722,-7.6258,-7.5993,-7.5894,-7.5496,-7.5065,-7.4867,-7.48,-7.5072,-7.5363,-7.5947,-7.6531,-7.7431,-7.8202,-7.8448,-7.8574,-7.8574,-7.8574,-7.8574,-7.8574,-7.875,-7.8925,-7.9206,-7.9522,-7.9627,-7.9627,-7.9873,-8.033,-8.0891,-8.1664,-8.2682,-8.384,-8.4753,-8.5491,-8.5947,-8.6439,-8.7141,-8.7866,-8.796,-8.8124,-8.8862,-8.9787,-9.129,-9.2452,-9.3015,-9.3542,-9.43,-9.4097,-9.3577,-9.2989,-9.2526,-9.2477,-9.2526,-9.2673,-9.288,-9.3321,-9.3786,-9.4195,-9.4463,-8.7977,-8.8768,-8.8947,-9.0629,-9.2802,-9.2639,-9.323,-9.4459,-9.3428,-9.3101,-9.3138,-9.3179,-9.3288,-9.3619,-9.4022,-9.395,-9.3841,-9.4094,-9.4312,-9.4276,-9.3841,-9.366,-9.366,-9.3443,-9.2102,-9.0436,-8.935,-8.8764,-8.6003,-8.3882,-8.2362,-8.1525,-7.9049,-7.8158,-7.8717,-7.7296,-7.6598,-7.6594,-7.5638,-7.4821,-7.4338,-7.4272,-7.4272,-7.4221,-7.4221,-7.4221,-7.4387,-7.4785,-7.5282,-7.5496,-7.5794,-7.6258,-7.649,-7.6357,-7.6291,-7.6125,-7.596,-7.5628,-7.5297,-7.5165,-7.4867,-7.452,-7.4221,-7.4354,-7.4622,-7.51,-7.5723,-7.6207,-7.703,-7.7815,-7.8116,-7.8448,-7.8574,-7.8574,-7.8574,-7.8574,-7.8644,-7.8925,-7.9276,-7.9592,-7.9908,-7.9978,-8.047,-8.0891,-8.1313,-8.219,-8.3419,-8.4648,-8.535,-8.6123,-8.6614,-8.6895,-8.7351,-8.7925,-8.8065,-8.837,-8.9177,-9.0294,-9.1513,-9.2361,-9.2883,-9.3167,-9.3344,-9.3191,-9.3037,-9.2832,-9.2512,-9.2512,-9.2526,-9.2624,-9.288,-9.3368,-9.3832,-9.4285,-9.4675,-8.8378,-8.9236,-9.0987,-9.2505,-9.3596,-9.3578,-9.3712,-9.4069,-9.3837,-9.3853,-9.423,-9.4273,-9.4409,-9.4626,-9.4855,-9.4783,-9.4771,-9.4705,-9.5036,-9.5036,-9.4632,-9.4312,-9.4384,-9.4276,-9.2827,-9.1414,-9.0324,-8.9112,-8.642,-8.425,-8.2796,-8.2128,-7.9836,-7.8975,-7.9694,-7.819,-7.7682,-7.8034,-7.7134,-7.5739,-7.4722,-7.4755,-7.4886,-7.4473,-7.4255,-7.4255,-7.4354,-7.4354,-7.4884,-7.5231,-7.5363,-7.5794,-7.6258,-7.5794,-7.5562,-7.543,-7.5098,-7.48,-7.4617,-7.4518,-7.4352,-7.4253,-7.412,-7.4171,-7.4439,-7.4951,-7.545,-7.5926,-7.6496,-7.7254,-7.7858,-7.8244,-7.8574,-7.8574,-7.8574,-7.8574,-7.8609,-7.8995,-7.9346,-7.9803,-8.0154,-8.0575,-8.1067,-8.1488,-8.1909,-8.2892,-8.4297,-8.5385,-8.5807,-8.6439,-8.7141,-8.7457,-8.7562,-8.796,-8.81,-8.8615,-8.9458,-9.0195,-9.121,-9.1998,-9.2775,-9.2858,-9.2941,-9.2735,-9.2575,-9.2512,-9.2512,-9.2512,-9.2526,-9.2673,-9.3072,-9.3602,-9.406,-9.4507,-9.4893,-8.9219,-9.0143,-9.1832,-9.3082,-9.3761,-9.3694,-9.3602,-9.3602,-9.3602,-9.374,-9.4096,-9.4455,-9.4886,-9.5187,-9.5314,-9.5065,-9.4979,-9.5235,-9.5078,-9.5151,-9.5284,-9.5072,-9.5036,-9.4783,-9.2946,-9.1423,-8.977,-8.8085,-8.6316,-8.4681,-8.3287,-8.2701,-8.0763,-7.9937,-8.0522,-7.9683,-7.9166,-7.9658,-7.8852,-7.7435,-7.569,-7.569,-7.542,-7.4906,-7.4655,-7.4588,-7.4255,-7.4221,-7.4453,-7.4719,-7.4818,-7.4918,-7.5132,-7.4933,-7.4851,-7.4752,-7.4469,-7.407,-7.3917,-7.3782,-7.3833,-7.3815,-7.3558,-7.3318,-7.3731,-7.4256,-7.4803,-7.5306,-7.6173,-7.6985,-7.765,-7.8116,-7.849,-7.8574,-7.8644,-7.8715,-7.8995,-7.9417,-8.0154,-8.1032,-8.1313,-8.1558,-8.2015,-8.2366,-8.2752,-8.2998,-8.4508,-8.5455,-8.6017,-8.6719,-8.7503,-8.7925,-8.7925,-8.7925,-8.7983,-8.8756,-8.9739,-9.0441,-9.0968,-9.1837,-9.2568,-9.254,-9.2512,-9.2407,-9.2407,-9.2512,-9.2512,-9.2512,-9.2722,-9.2916,-9.3321,-9.3878,-9.4285,-9.4595,-9.4893,-9.0291,-9.1187,-9.211,-9.2928,-9.3602,-9.3274,-9.312,-9.312,-9.312,-9.3167,-9.3357,-9.4141,-9.4455,-9.4719,-9.5108,-9.4551,-9.4507,-9.5108,-9.5065,-9.5015,-9.5193,-9.503,-9.4783,-9.4415,-9.2868,-9.0798,-8.8775,-8.7622,-8.6327,-8.4895,-8.3826,-8.3128,-8.2296,-8.1427,-8.1753,-8.1484,-8.098,-8.0766,-8.0071,-7.9071,-7.7961,-7.6908,-7.6157,-7.569,-7.5289,-7.4951,-7.4553,-7.4255,-7.4288,-7.4255,-7.4354,-7.442,-7.4453,-7.4453,-7.4387,-7.427,-7.4118,-7.3731,-7.3473,-7.3266,-7.3266,-7.311,-7.2688,-7.2688,-7.311,-7.3492,-7.4054,-7.4868,-7.5798,-7.6679,-7.7386,-7.8074,-7.8406,-7.8532,-7.8637,-7.8785,-7.9241,-7.9698,-8.0716,-8.1769,-8.219,-8.2401,-8.2892,-8.3244,-8.3524,-8.377,-8.4297,-8.5069,-8.5912,-8.6825,-8.7714,-8.7925,-8.7925,-8.7925,-8.7913,-8.8685,-8.9704,-9.016,-9.0652,-9.1635,-9.2372,-9.2372,-9.2337,-9.2232,-9.2267,-9.2407,-9.2477,-9.2512,-9.277,-9.3012,-9.331,-9.3694,-9.406,-9.4374,-9.4719,-9.0936,-9.2202,-9.2421,-9.2624,-9.277,-9.2673,-9.2624,-9.2624,-9.2673,-9.2819,-9.3167,-9.3357,-9.3684,-9.4105,-9.5022,-9.477,-9.3969,-9.4727,-9.4979,-9.4806,-9.5022,-9.4874,-9.4367,-9.3651,-9.2821,-9.0707,-8.8328,-8.6945,-8.6261,-8.528,-8.4219,-8.3235,-8.2524,-8.2173,-8.2699,-8.2304,-8.1723,-8.1436,-8.0884,-7.9868,-7.9095,-7.8,-7.6959,-7.6238,-7.5566,-7.5297,-7.5017,-7.4487,-7.4288,-7.4221,-7.4171,-7.4171,-7.412,-7.407,-7.3986,-7.3917,-7.3731,-7.337,-7.3025,-7.2794,-7.2688,-7.2635,-7.2315,-7.2315,-7.2582,-7.2635,-7.3389,-7.4373,-7.5369,-7.6404,-7.7209,-7.8031,-7.849,-7.8441,-7.8434,-7.8736,-7.9059,-7.9698,-8.047,-8.1523,-8.2366,-8.2928,-8.37,-8.4051,-8.4437,-8.4753,-8.528,-8.5982,-8.6123,-8.6965,-8.789,-8.7925,-8.7925,-8.7925,-8.7925,-8.851,-8.9353,-8.9774,-9.0301,-9.1073,-9.174,-9.2232,-9.2232,-9.1951,-9.2126,-9.2372,-9.2442,-9.2512,-9.2624,-9.2867,-9.3072,-9.3368,-9.374,-9.406,-9.433]},{"header":{"parameterUnit":"m.s-1","parameterCategory":1,"la1":31.0,"la2":29.5877,"lo1":-88.7671,"lo2":-86.6584,"dx":0.0162,"dy":0.0185,"nx":115,"ny":88,"refTime":"2022-11-22T18:00:00:Z","depth":0,"parameterNumber":3,"parameterNumberName":"V-component_of_WINDS"},"data":[0.0,0.0,0.0,0.0,0.0,0.0,0.0,0.0,0.0,0.0,0.0,0.0,0.0,0.0,0.0,0.0,0.0,0.0,0.0,0.0,0.0,0.0,0.0,0.0,0.0,0.0,0.0,0.0,0.0,0.0,0.0,0.0,0.0,0.0,0.0,0.0,0.0,0.0,0.0,0.0,0.0,0.0,0.0,0.0,0.0,0.0,0.0,0.0,0.0,0.0,0.0,0.0,0.0,0.0,0.0,0.0,0.0,0.0,0.0,0.0,0.0,0.0,0.0,0.0,0.0,0.0,0.0,0.0,0.0,0.0,0.0,0.0,0.0,0.0,0.0,0.0,0.0,0.0,0.0,0.0,0.0,0.0,0.0,0.0,0.0,0.0,0.0,0.0,0.0,0.0,0.0,0.0,0.0,0.0,0.0,0.0,0.0,0.0,0.0,0.0,0.0,0.0,0.0,0.0,0.0,0.0,0.0,0.0,0.0,0.0,0.0,0.0,0.0,0.0,0.0,0.0,0.0,0.0,0.0,0.0,0.0,0.0,0.0,0.0,0.0,0.0,0.0,0.0,0.0,0.0,0.0,0.0,0.0,0.0,0.0,0.0,0.0,0.0,0.0,0.0,0.0,0.0,0.0,0.0,0.0,0.0,0.0,0.0,0.0,0.0,0.0,0.0,0.0,0.0,0.0,0.0,0.0,0.0,0.0,0.0,0.0,0.0,0.0,0.0,0.0,0.0,0.0,0.0,0.0,0.0,0.0,0.0,0.0,0.0,0.0,0.0,0.0,0.0,0.0,0.0,0.0,0.0,0.0,0.0,0.0,0.0,0.0,0.0,0.0,0.0,0.0,0.0,0.0,0.0,0.0,0.0,0.0,0.0,0.0,0.0,0.0,0.0,0.0,0.0,0.0,0.0,0.0,0.0,0.0,0.0,0.0,0.0,0.0,0.0,0.0,0.0,0.0,0.0,0.0,0.0,0.0,0.0,0.0,0.0,0.0,0.0,0.0,0.0,0.0,0.0,0.0,0.0,0.0,0.0,0.0,0.0,0.0,0.0,0.0,0.0,0.0,0.0,0.0,0.0,0.0,0.0,0.0,0.0,0.0,0.0,0.0,0.0,0.0,0.0,0.0,0.0,0.0,0.0,0.0,0.0,0.0,0.0,0.0,0.0,0.0,0.0,0.0,0.0,0.0,0.0,0.0,0.0,0.0,0.0,0.0,0.0,0.0,0.0,0.0,0.0,0.0,0.0,0.0,0.0,0.0,0.0,0.0,0.0,0.0,0.0,0.0,0.0,0.0,0.0,0.0,0.0,0.0,0.0,0.0,0.0,0.0,0.0,0.0,0.0,0.0,0.0,0.0,0.0,0.0,0.0,0.0,0.0,0.0,0.0,0.0,0.0,0.0,0.0,0.0,0.0,0.0,0.0,0.0,0.0,0.0,0.0,0.0,0.0,0.0,0.0,0.0,0.0,0.0,0.0,0.0,0.0,0.0,0.0,0.0,0.0,0.0,0.0,0.0,0.0,0.0,0.0,0.0,0.0,0.0,0.0,0.0,0.0,0.0,0.0,0.0,0.0,0.0,0.0,0.0,0.0,0.0,0.0,0.0,0.0,0.0,0.0,0.0,0.0,0.0,0.0,0.0,0.0,0.0,0.0,0.0,0.0,0.0,0.0,0.0,0.0,0.0,0.0,0.0,0.0,0.0,0.0,0.0,0.0,0.0,0.0,0.0,0.0,0.0,0.0,0.0,0.0,0.0,0.0,0.0,0.0,0.0,0.0,0.0,0.0,0.0,0.0,0.0,0.0,0.0,0.0,0.0,0.0,0.0,0.0,0.0,0.0,0.0,0.0,0.0,0.0,0.0,0.0,0.0,0.0,0.0,0.0,0.0,0.0,0.0,0.0,0.0,0.0,0.0,0.0,0.0,0.0,0.0,0.0,0.0,0.0,0.0,0.0,0.0,0.0,0.0,0.0,0.0,0.0,0.0,0.0,0.0,0.0,0.0,0.0,0.0,0.0,0.0,0.0,0.0,0.0,0.0,0.0,0.0,0.0,0.0,0.0,0.0,0.0,0.0,0.0,0.0,0.0,0.0,0.0,0.0,0.0,0.0,0.0,0.0,0.0,0.0,0.0,0.0,0.0,0.0,0.0,0.0,0.0,0.0,0.0,0.0,0.0,0.0,0.0,0.0,0.0,0.0,0.0,0.0,0.0,0.0,0.0,0.0,0.0,0.0,0.0,0.0,0.0,0.0,0.0,0.0,0.0,0.0,0.0,0.0,0.0,0.0,0.0,0.0,0.0,0.0,0.0,0.0,0.0,0.0,0.0,0.0,0.0,0.0,0.0,0.0,0.0,0.0,0.0,0.0,0.0,0.0,0.0,0.0,0.0,0.0,0.0,0.0,0.0,0.0,0.0,0.0,0.0,0.0,0.0,0.0,0.0,0.0,0.0,0.0,0.0,0.0,0.0,0.0,0.0,0.0,0.0,0.0,0.0,0.0,0.0,0.0,0.0,0.0,0.0,0.0,0.0,0.0,0.0,0.0,0.0,0.0,0.0,0.0,0.0,0.0,0.0,0.0,0.0,0.0,0.0,0.0,0.0,0.0,0.0,0.0,0.0,0.0,0.0,0.0,0.0,0.0,0.0,0.0,0.0,0.0,0.0,0.0,0.0,0.0,0.0,0.0,0.0,0.0,0.0,0.0,0.0,0.0,0.0,0.0,0.0,0.0,0.0,0.0,0.0,0.0,0.0,0.0,0.0,0.0,0.0,0.0,0.0,0.0,0.0,0.0,0.0,0.0,0.0,0.0,0.0,0.0,0.0,0.0,0.0,0.0,0.0,0.0,0.0,0.0,0.0,0.0,0.0,0.0,0.0,0.0,0.0,0.0,0.0,0.0,0.0,0.0,0.0,0.0,0.0,0.0,0.0,0.0,0.0,0.0,0.0,0.0,0.0,0.0,0.0,0.0,0.0,0.0,0.0,0.0,0.0,0.0,0.0,0.0,0.0,0.0,0.0,0.0,0.0,0.0,0.0,0.0,0.0,0.0,0.0,0.0,0.0,0.0,0.0,0.0,0.0,0.0,0.0,0.0,0.0,0.0,0.0,0.0,0.0,0.0,0.0,0.0,0.0,0.0,0.0,0.0,0.0,0.0,0.0,0.0,0.0,0.0,0.0,0.0,0.0,0.0,0.0,0.0,0.0,0.0,0.0,0.0,0.0,0.0,0.0,0.0,0.0,0.0,0.0,0.0,0.0,0.0,0.0,0.0,0.0,0.0,0.0,0.0,0.0,0.0,0.0,0.0,0.0,0.0,0.0,0.0,0.0,0.0,0.0,0.0,0.0,0.0,0.0,0.0,0.0,0.0,0.0,0.0,0.0,0.0,0.0,0.0,0.0,0.0,0.0,0.0,0.0,0.0,0.0,0.0,0.0,0.0,0.0,0.0,0.0,0.0,0.0,0.0,0.0,0.0,0.0,0.0,0.0,0.0,0.0,0.0,0.0,0.0,0.0,0.0,0.0,0.0,0.0,0.0,0.0,0.0,0.0,0.0,0.0,0.0,0.0,0.0,0.0,0.0,0.0,0.0,0.0,0.0,0.0,0.0,0.0,0.0,0.0,0.0,0.0,0.0,0.0,0.0,0.0,0.0,0.0,0.0,0.0,0.0,0.0,0.0,0.0,0.0,0.0,0.0,0.0,0.0,0.0,0.0,0.0,0.0,0.0,0.0,0.0,0.0,0.0,0.0,0.0,0.0,0.0,0.0,0.0,0.0,0.0,0.0,0.0,0.0,0.0,0.0,0.0,0.0,0.0,0.0,0.0,0.0,0.0,0.0,0.0,0.0,0.0,0.0,0.0,0.0,0.0,0.0,0.0,0.0,0.0,0.0,0.0,0.0,0.0,0.0,0.0,0.0,0.0,0.0,0.0,0.0,0.0,0.0,0.0,0.0,0.0,0.0,0.0,0.0,0.0,0.0,0.0,0.0,0.0,0.0,0.0,0.0,0.0,0.0,0.0,0.0,0.0,0.0,0.0,0.0,0.0,0.0,0.0,0.0,0.0,0.0,0.0,0.0,0.0,0.0,0.0,0.0,0.0,0.0,0.0,0.0,0.0,0.0,0.0,0.0,0.0,0.0,0.0,0.0,0.0,0.0,0.0,0.0,0.0,0.0,0.0,0.0,0.0,0.0,0.0,0.0,0.0,0.0,0.0,0.0,0.0,0.0,0.0,0.0,0.0,0.0,0.0,0.0,0.0,-0.7098,0.0,0.0,0.0,-0.7065,0.0,0.0,0.0,0.0,0.0,0.0,0.0,0.0,0.0,0.0,0.0,0.0,0.0,0.0,0.0,0.0,0.0,0.0,0.0,0.0,0.0,0.0,0.0,0.0,0.0,0.0,0.0,0.0,0.0,0.0,0.0,0.0,0.0,0.0,0.0,0.0,0.0,0.0,0.0,0.0,0.0,0.0,0.0,0.0,0.0,0.0,0.0,0.0,0.0,0.0,0.0,0.0,0.0,0.0,0.0,0.0,0.0,0.0,0.0,0.0,0.0,0.0,0.0,0.0,0.0,0.0,0.0,0.0,0.0,0.0,0.0,0.0,0.0,0.0,0.0,0.0,0.0,0.0,0.0,0.0,0.0,0.0,0.0,0.0,0.0,0.0,0.0,0.0,0.0,0.0,0.0,0.0,0.0,0.0,0.0,0.0,0.0,0.0,0.0,0.0,0.0,0.0,0.0,0.0,0.0,0.0,0.0,0.0,0.0,0.0,-0.7098,-0.7098,-0.7098,-0.7098,-0.7092,0.0,0.0,0.0,0.0,0.0,0.0,0.0,0.0,0.0,0.0,0.0,0.0,0.0,0.0,0.0,0.0,0.0,0.0,0.0,0.0,0.0,0.0,0.0,0.0,0.0,0.0,0.0,0.0,0.0,0.0,0.0,0.0,0.0,0.0,0.0,0.0,0.0,0.0,0.0,0.0,0.0,0.0,0.0,0.0,0.0,0.0,0.0,0.0,0.0,0.0,0.0,0.0,0.0,0.0,0.0,0.0,0.0,0.0,0.0,0.0,0.0,0.0,0.0,0.0,0.0,0.0,0.0,0.0,0.0,0.0,0.0,0.0,0.0,0.0,0.0,0.0,0.0,0.0,0.0,0.0,0.0,0.0,0.0,0.0,0.0,0.0,0.0,0.0,0.0,0.0,0.0,0.0,0.0,0.0,0.0,0.0,0.0,0.0,0.0,0.0,0.0,0.0,0.0,0.0,0.0,0.0,0.0,0.0,0.0,0.0,0.0,0.0,-0.7098,-0.7098,-0.7085,0.0,0.0,0.0,0.0,0.0,0.0,0.0,0.0,0.0,0.0,0.0,0.0,0.0,0.0,0.0,0.0,0.0,0.0,0.0,0.0,0.0,0.0,0.0,0.0,0.0,0.0,0.0,0.0,0.0,0.0,0.0,0.0,0.0,0.0,0.0,0.0,0.0,0.0,0.0,0.0,0.0,0.0,0.0,0.0,0.0,0.0,0.0,0.0,0.0,0.0,0.0,0.0,0.0,0.0,0.0,0.0,0.0,0.0,0.0,0.0,0.0,0.0,0.0,0.0,0.0,0.0,0.0,0.0,0.0,0.0,0.0,0.0,0.0,0.0,0.0,0.0,0.0,0.0,0.0,0.0,0.0,0.0,0.0,0.0,0.0,0.0,0.0,0.0,0.0,0.0,0.0,0.0,0.0,0.0,0.0,0.0,0.0,0.0,0.0,0.0,0.0,0.0,0.0,0.0,0.0,0.0,0.0,0.0,0.0,0.0,-0.7098,-0.7098,-0.7098,0.0,-0.7078,0.0,0.0,0.0,0.0,0.0,0.0,0.0,0.0,0.0,0.0,0.0,0.0,0.0,0.0,0.0,0.0,0.0,0.0,0.0,0.0,0.0,0.0,0.0,0.0,0.0,0.0,0.0,0.0,0.0,0.0,0.0,0.0,0.0,0.0,0.0,0.0,0.0,0.0,0.0,0.0,0.0,0.0,0.0,0.0,0.0,0.0,0.0,0.0,0.0,0.0,0.0,0.0,0.0,0.0,0.0,0.0,0.0,0.0,0.0,0.0,0.0,0.0,0.0,0.0,0.0,0.0,0.0,0.0,0.0,0.0,0.0,0.0,0.0,0.0,0.0,0.0,0.0,0.0,0.0,0.0,0.0,0.0,0.0,0.0,0.0,0.0,0.0,0.0,0.0,0.0,0.0,0.0,0.0,0.0,0.0,0.0,0.0,0.0,0.0,0.0,0.0,0.0,0.0,0.0,0.0,0.0,0.0,0.0,0.0,0.0,-0.7683,-0.7683,-0.7634,-0.7584,0.0,0.0,0.0,0.0,0.0,0.0,0.0,0.0,0.0,0.0,0.0,0.0,0.0,0.0,0.0,0.0,0.0,0.0,0.0,0.0,0.0,0.0,0.0,0.0,0.0,0.0,0.0,0.0,0.0,0.0,0.0,0.0,0.0,0.0,0.0,0.0,0.0,0.0,0.0,0.0,0.0,0.0,0.0,0.0,0.0,0.0,0.0,0.0,0.0,0.0,0.0,0.0,0.0,0.0,0.0,0.0,0.0,0.0,0.0,0.0,0.0,0.0,0.0,0.0,0.0,0.0,0.0,0.0,0.0,0.0,0.0,0.0,0.0,0.0,0.0,0.0,0.0,0.0,0.0,0.0,0.0,0.0,0.0,0.0,0.0,0.0,0.0,0.0,0.0,0.0,0.0,0.0,0.0,0.0,0.0,0.0,0.0,0.0,0.0,0.0,0.0,0.0,0.0,0.0,0.0,0.0,0.0,0.0,0.0,0.0,-0.8166,-0.8154,-0.8102,-0.8035,-0.7945,-0.79,0.0,0.0,0.0,0.0,0.0,0.0,0.0,0.0,0.0,0.0,0.0,0.0,0.0,0.0,0.0,0.0,0.0,0.0,0.0,0.0,0.0,0.0,0.0,0.0,0.0,0.0,0.0,0.0,0.0,0.0,0.0,0.0,0.0,0.0,0.0,0.0,0.0,0.0,0.0,0.0,0.0,0.0,0.0,0.0,0.0,0.0,0.0,0.0,0.0,0.0,0.0,0.0,0.0,0.0,0.0,0.0,0.0,0.0,0.0,0.0,0.0,0.0,0.0,0.0,0.0,0.0,0.0,0.0,0.0,0.0,0.0,0.0,0.0,0.0,0.0,0.0,0.0,0.0,0.0,0.0,0.0,0.0,0.0,0.0,0.0,0.0,0.0,0.0,0.0,0.0,0.0,0.0,0.0,0.0,0.0,0.0,0.0,0.0,0.0,0.0,0.0,0.0,0.0,0.0,0.0,0.0,0.0,0.0,-0.8579,-0.8462,-0.8305,-0.8117,-0.8094,-0.802,0.0,0.0,0.0,0.0,0.0,0.0,0.0,0.0,0.0,0.0,0.0,0.0,0.0,0.0,0.0,0.0,0.0,0.0,0.0,0.0,0.0,0.0,0.0,0.0,0.0,0.0,0.0,0.0,0.0,0.0,0.0,0.0,0.0,0.0,0.0,0.0,0.0,0.0,0.0,0.0,0.0,0.0,0.0,0.0,0.0,0.0,0.0,0.0,0.0,0.0,0.0,0.0,0.0,0.0,0.0,0.0,0.0,0.0,0.0,0.0,0.0,0.0,0.0,0.0,0.0,0.0,0.0,0.0,0.0,0.0,0.0,0.0,0.0,0.0,0.0,0.0,0.0,0.0,0.0,0.0,0.0,0.0,0.0,0.0,0.0,0.0,0.0,0.0,0.0,0.0,0.0,0.0,0.0,0.0,0.0,0.0,0.0,0.0,0.0,0.0,0.0,0.0,0.0,0.0,0.0,0.0,0.0,0.0,0.0,-0.8988,-0.902,-0.8942,-0.8729,-0.8611,-0.8525,0.0,0.0,0.0,0.0,0.0,0.0,0.0,0.0,0.0,0.0,0.0,0.0,0.0,0.0,0.0,0.0,0.0,0.0,0.0,0.0,0.0,0.0,0.0,0.0,0.0,0.0,0.0,0.0,0.0,0.0,0.0,0.0,0.0,0.0,0.0,0.0,0.0,0.0,0.0,0.0,0.0,0.0,0.0,0.0,0.0,0.0,0.0,0.0,0.0,0.0,0.0,0.0,0.0,0.0,0.0,0.0,0.0,0.0,0.0,0.0,0.0,0.0,0.0,0.0,0.0,0.0,0.0,0.0,0.0,0.0,0.0,0.0,0.0,0.0,0.0,0.0,0.0,0.0,0.0,0.0,0.0,0.0,0.0,0.0,0.0,0.0,0.0,0.0,0.0,0.0,0.0,0.0,0.0,0.0,0.0,0.0,0.0,0.0,0.0,0.0,0.0,0.0,0.0,0.0,0.0,0.0,0.0,0.0,0.0,-0.9663,-0.9846,-0.9795,-0.956,-0.9426,-0.9229,0.0,0.0,0.0,0.0,0.0,0.0,0.0,0.0,0.0,0.0,0.0,0.0,0.0,0.0,0.0,0.0,0.0,0.0,0.0,0.0,0.0,0.0,0.0,0.0,0.0,0.0,0.0,0.0,0.0,0.0,0.0,0.0,0.0,0.0,0.0,0.0,0.0,0.0,0.0,0.0,0.0,0.0,0.0,0.0,0.0,0.0,0.0,0.0,0.0,0.0,0.0,0.0,0.0,0.0,0.0,0.0,0.0,0.0,0.0,0.0,0.0,0.0,0.0,0.0,0.0,0.0,0.0,0.0,0.0,0.0,0.0,0.0,0.0,0.0,0.0,0.0,0.0,0.0,0.0,0.0,0.0,0.0,0.0,0.0,0.0,0.0,0.0,0.0,0.0,0.0,0.0,0.0,0.0,0.0,0.0,0.0,0.0,0.0,0.0,0.0,0.0,0.0,0.0,0.0,0.0,0.0,0.0,0.0,-1.0287,-1.067,-1.0896,-1.0859,-1.0538,-1.0511,-1.0101,0.0,0.0,0.0,0.0,0.0,0.0,0.0,0.0,0.0,0.0,0.0,0.0,0.0,0.0,0.0,0.0,0.0,0.0,0.0,0.0,0.0,0.0,0.0,0.0,0.0,0.0,0.0,0.0,0.0,0.0,0.0,0.0,0.0,0.0,0.0,0.0,0.0,0.0,0.0,0.0,0.0,0.0,0.0,0.0,0.0,0.0,0.0,0.0,0.0,0.0,0.0,0.0,0.0,0.0,0.0,0.0,0.0,0.0,0.0,0.0,0.0,0.0,0.0,0.0,0.0,0.0,0.0,0.0,0.0,0.0,0.0,0.0,0.0,0.0,0.0,0.0,0.0,0.0,0.0,0.0,0.0,0.0,0.0,0.0,0.0,0.0,0.0,0.0,0.0,0.0,0.0,0.0,0.0,0.0,0.0,0.0,0.0,0.0,0.0,0.0,0.0,0.0,0.0,0.0,0.0,0.0,0.0,0.0,0.0,-1.1474,-1.1868,-1.2009,-1.1747,-1.1452,-1.1007,0.0,0.0,0.0,0.0,0.0,0.0,0.0,0.0,0.0,0.0,0.0,0.0,0.0,0.0,0.0,0.0,0.0,0.0,0.0,0.0,0.0,0.0,0.0,0.0,0.0,0.0,0.0,0.0,0.0,0.0,0.0,0.0,0.0,0.0,0.0,0.0,0.0,0.0,0.0,0.0,0.0,0.0,0.0,0.0,0.0,0.0,0.0,0.0,0.0,0.0,0.0,0.0,0.0,0.0,0.0,0.0,0.0,0.0,0.0,0.0,0.0,0.0,0.0,0.0,0.0,0.0,0.0,0.0,0.0,0.0,0.0,0.0,0.0,0.0,0.0,0.0,0.0,0.0,0.0,0.0,0.0,0.0,0.0,0.0,0.0,0.0,0.0,0.0,0.0,0.0,0.0,0.0,0.0,0.0,0.0,0.0,0.0,0.0,0.0,0.0,0.0,0.0,0.0,0.0,0.0,0.0,0.0,0.0,0.0,-1.3618,-1.3953,-1.3994,-1.3696,-1.32,-1.2444,-1.139,0.0,0.0,0.0,0.0,0.0,0.0,0.0,0.0,0.0,0.0,0.0,0.0,0.0,0.0,0.0,0.0,0.0,0.0,0.0,0.0,0.0,0.0,0.0,0.0,0.0,0.0,0.0,0.0,0.0,0.0,0.0,0.0,0.0,0.0,0.0,0.0,0.0,0.0,0.0,0.0,0.0,0.0,0.0,0.0,0.0,0.0,0.0,0.0,0.0,0.0,0.0,0.0,0.0,0.0,0.0,0.0,0.0,0.0,0.0,0.0,0.0,0.0,0.0,0.0,0.0,0.0,0.0,0.0,0.0,0.0,0.0,0.0,0.0,0.0,0.0,0.0,0.0,0.0,0.0,0.0,0.0,0.0,0.0,0.0,0.0,0.0,0.0,0.0,0.0,0.0,0.0,0.0,0.0,0.0,0.0,0.0,0.0,0.0,0.0,0.0,0.0,0.0,0.0,0.0,0.0,0.0,0.0,0.0,-1.6812,-1.6884,-1.6717,-1.6136,-1.5578,-1.4341,0.0,0.0,0.0,0.0,0.0,0.0,0.0,0.0,0.0,0.0,0.0,0.0,0.0,0.0,0.0,0.0,0.0,0.0,0.0,0.0,0.0,0.0,0.0,0.0,0.0,0.0,0.0,0.0,0.0,0.0,0.0,0.0,0.0,0.0,0.0,0.0,0.0,0.0,0.0,0.0,0.0,0.0,0.0,0.0,0.0,0.0,0.0,0.0,0.0,0.0,0.0,0.0,0.0,0.0,0.0,0.0,0.0,0.0,0.0,0.0,0.0,0.0,0.0,0.0,0.0,0.0,0.0,0.0,0.0,0.0,0.0,0.0,0.0,0.0,0.0,0.0,0.0,0.0,0.0,0.0,0.0,0.0,0.0,0.0,0.0,0.0,0.0,0.0,0.0,0.0,0.0,0.0,0.0,0.0,0.0,0.0,0.0,0.0,0.0,0.0,0.0,0.0,0.0,0.0,0.0,0.0,0.0,0.0,0.0,-1.9164,-1.9825,-1.9515,-1.8165,-1.6906,-1.5674,0.0,0.0,0.0,0.0,0.0,0.0,0.0,0.0,0.0,0.0,0.0,0.0,0.0,0.0,0.0,0.0,0.0,0.0,0.0,0.0,0.0,0.0,0.0,0.0,0.0,0.0,0.0,0.0,0.0,0.0,0.0,0.0,0.0,0.0,0.0,0.0,0.0,0.0,0.0,0.0,0.0,0.0,0.0,0.0,0.0,0.0,0.0,0.0,0.0,0.0,0.0,0.0,0.0,0.0,0.0,0.0,0.0,0.0,0.0,0.0,0.0,0.0,0.0,0.0,0.0,0.0,0.0,0.0,0.0,0.0,0.0,0.0,0.0,0.0,0.0,0.0,0.0,0.0,0.0,0.0,0.0,0.0,0.0,0.0,0.0,0.0,0.0,0.0,0.0,0.0,0.0,0.0,0.0,0.0,0.0,0.0,0.0,0.0,0.0,0.0,0.0,0.0,0.0,0.0,0.0,0.0,0.0,0.0,-1.8689,-2.011,-2.1376,-2.1548,-2.0629,-1.8707,-1.7058,0.0,0.0,0.0,0.0,0.0,0.0,0.0,0.0,0.0,0.0,0.0,0.0,0.0,0.0,0.0,0.0,0.0,0.0,0.0,0.0,0.0,0.0,0.0,0.0,0.0,0.0,0.0,0.0,0.0,0.0,0.0,0.0,0.0,0.0,0.0,0.0,0.0,0.0,0.0,0.0,0.0,0.0,0.0,0.0,0.0,0.0,0.0,0.0,0.0,0.0,0.0,0.0,0.0,0.0,0.0,0.0,0.0,0.0,0.0,0.0,0.0,0.0,0.0,0.0,0.0,0.0,0.0,0.0,0.0,0.0,0.0,0.0,0.0,0.0,0.0,0.0,0.0,0.0,0.0,0.0,0.0,0.0,0.0,0.0,0.0,0.0,0.0,0.0,0.0,0.0,0.0,0.0,0.0,0.0,0.0,0.0,0.0,0.0,0.0,0.0,0.0,0.0,0.0,0.0,0.0,0.0,0.0,0.0,-1.937,-2.0276,-2.196,-2.2859,-2.2832,-2.0585,-1.8479,0.0,0.0,0.0,0.0,0.0,0.0,0.0,0.0,0.0,0.0,0.0,0.0,0.0,0.0,0.0,0.0,0.0,0.0,0.0,0.0,0.0,0.0,0.0,0.0,0.0,0.0,0.0,0.0,0.0,0.0,0.0,0.0,0.0,0.0,0.0,0.0,0.0,0.0,0.0,0.0,0.0,0.0,0.0,0.0,0.0,0.0,0.0,0.0,0.0,0.0,0.0,0.0,0.0,0.0,0.0,0.0,0.0,0.0,0.0,0.0,0.0,0.0,0.0,0.0,0.0,0.0,0.0,0.0,0.0,0.0,0.0,0.0,0.0,0.0,0.0,0.0,0.0,0.0,0.0,0.0,0.0,0.0,0.0,0.0,0.0,0.0,0.0,0.0,0.0,0.0,0.0,0.0,0.0,0.0,0.0,0.0,0.0,0.0,0.0,0.0,0.0,0.0,0.0,0.0,0.0,0.0,0.0,0.0,-2.0404,-2.1497,-2.2102,-2.2585,-2.2859,-2.0961,-1.9304,0.0,0.0,0.0,0.0,0.0,0.0,0.0,0.0,0.0,0.0,0.0,0.0,0.0,0.0,0.0,0.0,0.0,0.0,0.0,0.0,0.0,0.0,0.0,0.0,0.0,0.0,0.0,0.0,0.0,0.0,0.0,0.0,0.0,0.0,0.0,0.0,0.0,0.0,0.0,0.0,0.0,0.0,0.0,0.0,0.0,0.0,0.0,0.0,-0.5751,0.0,0.0,0.0,0.0,0.0,0.0,0.0,0.0,0.0,0.0,0.0,0.0,0.0,0.0,0.0,0.0,0.0,0.0,0.0,0.0,0.0,0.0,0.0,0.0,0.0,0.0,0.0,0.0,0.0,0.0,0.0,0.0,0.0,0.0,0.0,0.0,0.0,0.0,0.0,0.0,0.0,0.0,0.0,0.0,0.0,0.0,0.0,0.0,0.0,0.0,0.0,0.0,0.0,0.0,0.0,0.0,0.0,0.0,0.0,-2.0778,-2.2062,-2.2437,-2.2786,-2.3247,-2.1813,-2.0188,0.0,0.0,0.0,0.0,0.0,0.0,0.0,0.0,0.0,0.0,0.0,0.0,0.0,0.0,0.0,0.0,0.0,0.0,0.0,0.0,0.0,0.0,0.0,0.0,0.0,0.0,0.0,0.0,0.0,0.0,0.0,0.0,0.0,0.0,0.0,0.0,0.0,0.0,0.0,0.0,0.0,0.0,0.0,0.0,0.0,0.0,0.0,0.0,0.0,0.0,0.0,0.0,0.0,0.0,0.0,0.0,0.0,0.0,0.0,0.0,0.0,0.0,0.0,0.0,0.0,0.0,0.0,0.0,0.0,0.0,0.0,0.0,0.0,0.0,0.0,0.0,0.0,0.0,0.0,0.0,0.0,0.0,0.0,0.0,0.0,0.0,0.0,0.0,0.0,0.0,0.0,0.0,0.0,0.0,0.0,0.0,0.0,0.0,0.0,0.0,0.0,0.0,0.0,0.0,0.0,0.0,0.0,-1.9499,-2.1073,-2.2487,-2.2842,-2.3247,-2.3741,-2.2648,-2.1078,-1.9083,0.0,0.0,0.0,0.0,0.0,0.0,0.0,0.0,0.0,0.0,0.0,0.0,0.0,0.0,0.0,0.0,0.0,0.0,0.0,0.0,0.0,0.0,0.0,0.0,0.0,0.0,0.0,0.0,0.0,0.0,0.0,0.0,0.0,0.0,0.0,0.0,0.0,0.0,-0.5256,-0.5631,0.0,0.0,0.0,0.0,0.0,0.0,0.0,0.0,-0.6728,0.0,0.0,0.0,0.0,0.0,0.0,0.0,0.0,0.0,0.0,0.0,0.0,0.0,0.0,0.0,0.0,0.0,0.0,0.0,0.0,0.0,0.0,0.0,0.0,0.0,0.0,0.0,0.0,0.0,0.0,0.0,0.0,0.0,0.0,0.0,0.0,0.0,0.0,0.0,0.0,0.0,0.0,0.0,0.0,0.0,0.0,0.0,0.0,0.0,0.0,0.0,0.0,0.0,0.0,0.0,0.0,-1.9213,-2.0734,-2.2022,-2.3107,-2.35,-2.3674,-2.3754,-2.3087,-2.1641,-1.9622,0.0,0.0,0.0,0.0,0.0,0.0,0.0,0.0,0.0,0.0,0.0,0.0,0.0,0.0,0.0,0.0,0.0,0.0,0.0,0.0,0.0,0.0,0.0,0.0,0.0,0.0,0.0,0.0,0.0,0.0,0.0,0.0,0.0,0.0,0.0,0.0,0.0,0.0,0.0,-0.6703,-0.6997,0.0,0.0,0.0,0.0,0.0,0.0,0.0,0.0,-0.6846,0.0,0.0,0.0,0.0,0.0,0.0,0.0,0.0,0.0,0.0,0.0,0.0,0.0,0.0,0.0,0.0,0.0,0.0,0.0,0.0,0.0,0.0,0.0,0.0,0.0,0.0,0.0,0.0,0.0,0.0,0.0,0.0,0.0,0.0,0.0,0.0,0.0,0.0,0.0,0.0,0.0,0.0,0.0,0.0,0.0,0.0,0.0,0.0,0.0,0.0,0.0,0.0,0.0,0.0,0.0,-2.0059,-2.1556,-2.2754,-2.3754,-2.3781,-2.3915,-2.4195,-2.3266,-2.1992,0.0,0.0,0.0,0.0,0.0,0.0,0.0,0.0,0.0,0.0,0.0,0.0,0.0,0.0,0.0,0.0,0.0,0.0,0.0,0.0,0.0,0.0,0.0,0.0,0.0,0.0,0.0,0.0,0.0,0.0,0.0,0.0,0.0,0.0,0.0,0.0,0.0,0.0,0.0,0.0,-0.7447,-0.7612,-0.7881,0.0,0.0,0.0,0.0,0.0,0.0,-0.7931,-0.7519,0.0,0.0,0.0,0.0,0.0,0.0,0.0,0.0,0.0,0.0,0.0,0.0,0.0,0.0,0.0,0.0,0.0,0.0,0.0,0.0,0.0,0.0,0.0,0.0,0.0,0.0,0.0,0.0,0.0,0.0,0.0,0.0,0.0,0.0,0.0,0.0,0.0,0.0,0.0,0.0,0.0,0.0,0.0,0.0,0.0,0.0,0.0,0.0,0.0,0.0,0.0,0.0,0.0,0.0,0.0,-2.0597,-2.2164,-2.3359,-2.4168,-2.4035,-2.4168,-2.4596,-2.3392,-2.2045,0.0,0.0,0.0,0.0,0.0,0.0,0.0,0.0,0.0,0.0,0.0,0.0,0.0,0.0,0.0,0.0,0.0,0.0,0.0,0.0,0.0,0.0,0.0,0.0,0.0,0.0,0.0,0.0,0.0,0.0,0.0,0.0,0.0,0.0,0.0,0.0,0.0,0.0,0.0,0.0,0.0,-0.8199,-0.8719,-0.8472,0.0,0.0,0.0,0.0,-0.8925,-0.8559,0.0,0.0,0.0,0.0,0.0,0.0,0.0,0.0,0.0,0.0,0.0,0.0,0.0,0.0,0.0,0.0,0.0,0.0,0.0,0.0,0.0,0.0,0.0,0.0,0.0,0.0,0.0,0.0,0.0,0.0,0.0,0.0,0.0,0.0,0.0,0.0,0.0,0.0,0.0,0.0,0.0,0.0,0.0,0.0,0.0,0.0,0.0,0.0,0.0,0.0,0.0,0.0,0.0,0.0,0.0,0.0,-2.0896,-2.2583,-2.3766,-2.4209,-2.4422,-2.4496,-2.4549,-2.3287,-2.1956,0.0,0.0,0.0,0.0,0.0,0.0,0.0,0.0,0.0,0.0,0.0,0.0,0.0,0.0,0.0,0.0,0.0,0.0,0.0,0.0,0.0,0.0,0.0,0.0,0.0,0.0,0.0,0.0,0.0,0.0,0.0,0.0,0.0,0.0,0.0,0.0,0.0,0.0,0.0,0.0,0.0,-0.8968,-0.8919,-0.8867,-0.8897,0.0,0.0,-0.9124,-0.9532,-0.9234,0.0,0.0,0.0,0.0,0.0,0.0,0.0,0.0,0.0,0.0,0.0,0.0,0.0,0.0,0.0,0.0,0.0,0.0,0.0,0.0,0.0,0.0,0.0,0.0,0.0,0.0,0.0,0.0,0.0,0.0,0.0,0.0,0.0,0.0,0.0,0.0,0.0,0.0,0.0,0.0,0.0,0.0,0.0,0.0,0.0,0.0,0.0,0.0,0.0,0.0,0.0,0.0,0.0,0.0,0.0,-2.0276,-2.1457,-2.3275,-2.4382,-2.4703,-2.4823,-2.489,-2.489,-2.3585,-2.2241,0.0,0.0,0.0,0.0,0.0,0.0,0.0,0.0,0.0,0.0,0.0,0.0,0.0,0.0,0.0,0.0,0.0,0.0,0.0,0.0,0.0,0.0,0.0,0.0,0.0,0.0,0.0,0.0,0.0,0.0,0.0,0.0,0.0,0.0,0.0,0.0,0.0,0.0,0.0,0.0,0.0,0.0,-0.9631,-0.9575,0.0,0.0,0.0,-0.9532,-0.9671,0.0,0.0,0.0,0.0,0.0,0.0,0.0,0.0,0.0,0.0,0.0,0.0,0.0,0.0,0.0,0.0,0.0,0.0,0.0,0.0,0.0,0.0,0.0,0.0,0.0,0.0,0.0,0.0,0.0,0.0,0.0,0.0,0.0,0.0,0.0,0.0,0.0,0.0,0.0,0.0,0.0,0.0,0.0,0.0,0.0,0.0,0.0,0.0,0.0,0.0,0.0,0.0,0.0,0.0,0.0,0.0,0.0,-2.2025,-2.378,-2.4863,-2.5077,-2.5224,-2.5264,-2.5184,-2.4162,0.0,0.0,0.0,0.0,0.0,0.0,0.0,0.0,0.0,0.0,0.0,0.0,0.0,0.0,0.0,0.0,0.0,0.0,0.0,0.0,0.0,0.0,0.0,0.0,0.0,0.0,0.0,-1.1125,0.0,0.0,0.0,0.0,0.0,0.0,0.0,0.0,0.0,0.0,0.0,0.0,0.0,0.0,-1.0736,-1.0971,-1.0772,-1.0568,0.0,0.0,-0.9933,-0.9769,-0.96,-0.9243,0.0,0.0,0.0,0.0,0.0,0.0,0.0,0.0,0.0,0.0,0.0,0.0,0.0,0.0,0.0,0.0,0.0,0.0,0.0,0.0,0.0,0.0,0.0,0.0,0.0,0.0,0.0,0.0,0.0,0.0,0.0,0.0,0.0,0.0,0.0,0.0,0.0,0.0,0.0,0.0,0.0,0.0,0.0,0.0,0.0,0.0,0.0,0.0,0.0,0.0,0.0,0.0,0.0,0.0,0.0,-2.232,-2.4082,-2.5077,-2.5104,-2.5688,-2.5772,-2.5491,-2.5069,-2.398,0.0,0.0,0.0,0.0,0.0,0.0,0.0,0.0,0.0,0.0,0.0,0.0,0.0,0.0,0.0,0.0,0.0,0.0,0.0,0.0,0.0,0.0,0.0,0.0,0.0,0.0,0.0,0.0,0.0,0.0,0.0,0.0,0.0,0.0,0.0,0.0,0.0,0.0,0.0,0.0,0.0,-1.289,-1.3052,-1.2968,-1.2783,0.0,0.0,-1.0391,-1.0075,-1.0003,-0.9767,-0.9151,0.0,0.0,0.0,0.0,0.0,0.0,0.0,0.0,0.0,0.0,0.0,0.0,0.0,0.0,0.0,0.0,0.0,0.0,0.0,0.0,0.0,0.0,0.0,0.0,0.0,0.0,0.0,0.0,0.0,0.0,0.0,0.0,0.0,0.0,0.0,0.0,0.0,0.0,0.0,0.0,0.0,0.0,0.0,0.0,0.0,0.0,0.0,0.0,0.0,0.0,0.0,0.0,0.0,-2.1331,-2.2589,-2.4631,-2.5705,-2.5892,-2.6279,-2.644,-2.6319,-2.5583,-2.4633,0.0,0.0,0.0,0.0,0.0,0.0,0.0,0.0,0.0,0.0,0.0,0.0,0.0,0.0,0.0,0.0,0.0,0.0,0.0,0.0,0.0,0.0,0.0,0.0,0.0,0.0,0.0,0.0,-1.4518,-1.4693,-1.4262,0.0,0.0,0.0,0.0,0.0,0.0,0.0,0.0,0.0,0.0,-1.404,-1.483,-1.4708,0.0,0.0,-1.2311,-1.1529,-1.0285,-1.0134,-0.9944,-0.9464,-0.9112,0.0,0.0,0.0,0.0,0.0,0.0,0.0,0.0,0.0,0.0,0.0,0.0,0.0,0.0,0.0,0.0,0.0,0.0,0.0,0.0,0.0,0.0,0.0,0.0,0.0,0.0,0.0,0.0,0.0,0.0,0.0,0.0,0.0,0.0,0.0,0.0,0.0,0.0,0.0,0.0,0.0,0.0,0.0,0.0,0.0,0.0,0.0,0.0,0.0,0.0,0.0,0.0,-2.187,-2.2926,-2.5003,-2.6186,-2.6386,-2.6841,-2.7041,-2.6947,-2.64,-2.5544,0.0,0.0,0.0,0.0,0.0,0.0,0.0,0.0,0.0,0.0,0.0,0.0,0.0,0.0,0.0,0.0,0.0,0.0,0.0,0.0,0.0,0.0,0.0,0.0,0.0,0.0,0.0,0.0,-1.6186,-1.6032,-1.509,0.0,0.0,0.0,0.0,0.0,0.0,0.0,0.0,0.0,0.0,-1.5764,-1.6531,-1.632,-1.5598,-1.4027,-1.3397,-1.2463,-1.0884,-1.0492,-1.0269,-0.9987,0.0,0.0,0.0,0.0,0.0,0.0,0.0,0.0,0.0,0.0,0.0,0.0,0.0,0.0,0.0,0.0,0.0,0.0,0.0,0.0,0.0,0.0,0.0,0.0,0.0,0.0,0.0,0.0,0.0,0.0,-1.0853,0.0,0.0,0.0,0.0,0.0,0.0,0.0,0.0,0.0,0.0,0.0,0.0,0.0,0.0,0.0,0.0,0.0,0.0,0.0,0.0,0.0,0.0,-2.2576,-2.3513,-2.5398,-2.64,-2.644,-2.7241,-2.7549,-2.7295,-2.7509,-2.6945,-2.5387,0.0,0.0,0.0,0.0,0.0,0.0,0.0,0.0,0.0,0.0,0.0,0.0,0.0,0.0,0.0,0.0,0.0,0.0,0.0,0.0,0.0,0.0,0.0,0.0,0.0,0.0,-1.7533,-1.7639,-1.7272,0.0,0.0,0.0,0.0,0.0,0.0,0.0,0.0,0.0,0.0,-1.7404,-1.8461,-1.8131,-1.8086,-1.7548,-1.6194,-1.4692,-1.3182,-1.1906,-1.1269,-1.0907,0.0,0.0,0.0,0.0,0.0,0.0,0.0,0.0,0.0,0.0,0.0,0.0,0.0,0.0,0.0,0.0,0.0,0.0,0.0,0.0,0.0,0.0,0.0,0.0,0.0,0.0,0.0,-1.1841,-1.1678,0.0,0.0,0.0,0.0,0.0,0.0,0.0,0.0,0.0,0.0,0.0,-2.0269,-2.0602,0.0,0.0,0.0,0.0,0.0,0.0,0.0,0.0,0.0,0.0,0.0,0.0,-2.3215,-2.4099,-2.5977,-2.7161,-2.7549,-2.8043,-2.8257,-2.8163,-2.8056,-2.7184,-2.5453,0.0,0.0,0.0,0.0,0.0,0.0,0.0,0.0,0.0,0.0,0.0,0.0,0.0,0.0,0.0,0.0,0.0,0.0,0.0,0.0,0.0,0.0,0.0,0.0,0.0,-1.9689,0.0,0.0,0.0,0.0,0.0,0.0,0.0,0.0,0.0,0.0,0.0,-1.6821,-1.7386,-1.8055,-1.863,-1.9303,-1.9205,-1.8686,0.0,0.0,0.0,0.0,0.0,0.0,0.0,0.0,0.0,0.0,0.0,0.0,0.0,0.0,-0.8248,-0.7979,-0.7928,-0.7933,-0.7928,0.0,0.0,0.0,0.0,0.0,0.0,0.0,0.0,0.0,0.0,0.0,0.0,0.0,0.0,0.0,0.0,-1.2928,0.0,0.0,0.0,0.0,0.0,0.0,0.0,0.0,-2.1606,-2.252,-2.2416,-2.2779,-2.2766,0.0,-2.168,-2.0615,0.0,0.0,0.0,0.0,0.0,0.0,0.0,0.0,-2.4023,-2.4907,-2.665,-2.7846,-2.8221,-2.8551,-2.8764,-2.8751,-2.8364,-2.7599,-2.6426,-2.5244,-2.3934,0.0,0.0,0.0,0.0,0.0,0.0,0.0,0.0,0.0,0.0,0.0,0.0,0.0,0.0,0.0,0.0,0.0,0.0,0.0,0.0,0.0,0.0,0.0,-2.1645,0.0,0.0,0.0,0.0,0.0,0.0,0.0,0.0,0.0,-1.6287,-1.7077,-1.7881,-1.8531,-1.8875,-1.9154,-1.9654,0.0,0.0,0.0,0.0,0.0,0.0,0.0,-1.279,-1.2247,-1.1628,-1.1085,-1.0825,-1.0405,-1.0088,-1.0012,0.0,0.0,-0.8929,-0.8833,-0.8833,-0.8833,-0.8862,-0.8891,-0.8891,-0.906,-0.9211,0.0,0.0,0.0,0.0,0.0,0.0,0.0,0.0,-1.4406,-1.4406,0.0,-1.4398,0.0,0.0,0.0,0.0,0.0,0.0,0.0,0.0,-2.3642,-2.5093,-2.4616,-2.4553,-2.4616,-2.4451,-2.2453,-2.2158,-2.3364,-2.1839,0.0,0.0,0.0,0.0,0.0,0.0,-2.5177,-2.5818,-2.7383,-2.8234,-2.8217,-2.8751,-2.9045,-2.9045,-2.847,-2.8234,-2.8096,-2.669,-2.5597,-2.5021,-2.326,0.0,0.0,0.0,0.0,0.0,0.0,0.0,0.0,0.0,0.0,0.0,0.0,0.0,0.0,0.0,0.0,0.0,0.0,0.0,0.0,-2.3132,0.0,0.0,0.0,0.0,0.0,0.0,0.0,0.0,0.0,0.0,-1.7719,-1.8215,-1.8774,-1.8987,0.0,0.0,0.0,0.0,-1.9903,-1.8847,-1.8385,-1.763,-1.6446,-1.5024,-1.3867,-1.3129,0.0,0.0,-1.1639,-1.1542,-1.1455,-1.146,-1.1438,-1.1068,-0.9578,-0.9384,-0.9288,-0.9288,-0.9452,-0.9516,-0.9448,-0.9677,-0.9824,-1.5983,0.0,0.0,0.0,0.0,-1.5333,-1.539,-1.5398,-1.5528,-1.5504,-1.539,-1.539,0.0,0.0,0.0,0.0,0.0,0.0,-1.9642,-2.1536,-2.3293,-2.4798,-2.6175,-2.6374,-2.6374,-2.6096,-2.5516,-2.5295,-2.5581,-2.5204,-2.4353,-2.2929,0.0,0.0,0.0,0.0,-2.6089,-2.6734,-2.7702,-2.8542,-2.9085,-2.9272,-2.9352,-2.9352,-2.8778,-2.8364,-2.8234,-2.7533,-2.6624,-2.5623,-2.5227,0.0,0.0,0.0,0.0,0.0,0.0,0.0,0.0,0.0,0.0,0.0,0.0,0.0,0.0,0.0,0.0,0.0,0.0,0.0,-2.5011,-2.5829,-2.5949,0.0,0.0,0.0,0.0,0.0,0.0,0.0,0.0,0.0,-1.9548,-1.9712,-1.9796,0.0,0.0,-1.9551,-1.9359,-1.9878,-2.0337,-2.0468,-2.0289,0.0,0.0,-1.7445,-1.5442,-1.4861,-1.3096,-1.1764,-1.177,-1.1737,-1.1716,-1.1716,-1.1716,-1.1549,-1.1193,-1.0909,-1.089,-1.089,-1.0917,-1.0938,-1.0857,-1.0972,-1.1072,-1.6877,-1.6479,-1.6097,-1.5983,-1.6056,-1.6154,-1.6243,-1.6308,-1.6422,-1.6405,-1.63,-1.63,-1.6146,-1.5878,-1.5804,0.0,0.0,0.0,-1.9427,-2.1192,-2.3232,-2.4812,-2.5946,-2.6967,-2.7348,-2.7093,-2.6544,-2.6587,-2.7094,-2.6622,-2.6251,-2.5777,0.0,0.0,-2.5693,-2.6492,-2.7197,-2.772,-2.8372,-2.8938,-2.9472,-2.9593,-2.9659,-2.9646,-2.9205,-2.8804,-2.8511,-2.7976,-2.7373,-2.6598,-2.6372,-2.5621,0.0,0.0,0.0,0.0,0.0,0.0,0.0,0.0,0.0,0.0,0.0,-2.0233,0.0,0.0,0.0,0.0,-2.5082,-2.6284,-2.7454,-2.7674,0.0,0.0,0.0,0.0,0.0,0.0,0.0,-2.1926,-2.1942,-2.164,-2.1075,-2.1077,-2.0928,-2.0528,-2.0363,-2.0341,-2.0258,0.0,-2.1215,-2.1535,-2.151,-2.1363,-2.1303,-1.931,-1.7207,-1.5618,-1.4164,-1.2882,-1.2053,-1.196,-1.196,-1.196,-1.196,-1.196,-1.196,-1.1835,-1.1705,-1.1618,-1.1601,-1.1601,-1.1601,-1.1694,-1.1775,-1.7827,-1.7624,-1.6982,-1.6787,-1.6822,-1.683,-1.6919,-1.7153,-1.7153,-1.7153,-1.7153,-1.7153,-1.7055,-1.6798,-1.6706,0.0,-1.6877,-1.8501,-1.9266,-1.9618,-2.3179,-2.4769,-2.4733,-2.6659,-2.7636,-2.7816,-2.6355,-2.6566,-2.8132,-2.6831,-2.6982,-2.8572,-2.7741,-2.7284,-2.7245,-2.7755,-2.83,-2.8684,-2.9205,-2.9486,-2.9526,-2.978,-2.9913,-2.9913,-2.9633,-2.9352,-2.9072,-2.8257,-2.7776,-2.7669,-2.7173,-2.6639,-2.6128,0.0,0.0,0.0,0.0,0.0,0.0,0.0,0.0,0.0,0.0,0.0,0.0,0.0,0.0,0.0,-2.6969,0.0,-2.9369,-2.8834,0.0,0.0,0.0,-2.6863,-2.6756,-2.6308,-2.5445,-2.3868,0.0,0.0,-2.2364,0.0,-2.2218,-2.1578,-2.1776,-2.1946,-2.1714,-2.2019,-2.2278,-2.2138,-2.2189,-2.202,-2.1791,-2.0743,-1.9061,-1.6226,-1.5261,-1.4497,-1.2904,-1.225,-1.2261,-1.2156,-1.2172,-1.2167,-1.2172,-1.2145,-1.2107,-1.1884,-1.1846,-1.1846,-1.1851,-1.1928,-1.1993,-1.7965,-1.803,-1.7867,-1.7664,-1.7364,-1.7453,-1.7478,-1.751,-1.751,-1.7518,-1.7518,-1.7518,-1.7421,-1.725,-1.7071,-1.7006,-1.7055,-1.7634,-1.8655,-1.9965,-2.1038,-2.3018,-2.5721,-2.6215,-2.7218,-2.8638,-2.8346,-2.8386,-2.8758,-2.8675,-2.882,-2.9285,-2.9264,-2.899,-2.8565,-2.8685,-2.8958,-2.9272,-2.9406,-2.9593,-2.9806,-2.9873,-2.9913,-2.9913,-2.9633,-2.9459,-2.9379,-2.8951,-2.8404,-2.7736,-2.8386,-2.8205,-2.6898,-2.706,0.0,0.0,0.0,0.0,0.0,0.0,0.0,0.0,0.0,-2.4456,-2.52,0.0,-2.7658,0.0,-2.8846,-2.9508,-2.9734,-2.9596,0.0,0.0,-2.8773,-2.8603,-2.8506,-2.7785,-2.729,-2.7184,-2.5822,-2.4761,-2.4233,-2.3743,-2.3272,-2.293,-2.2356,-2.2016,-2.1977,-2.2488,-2.2872,-2.2855,-2.3273,-2.3571,-2.3287,-2.1945,-2.0132,-1.7848,-1.6191,-1.5073,-1.4604,-1.3199,-1.2172,-1.2172,-1.2172,-1.2172,-1.2178,-1.2172,-1.2161,-1.2102,-1.2091,-1.2085,-1.2085,-1.2107,-1.2123,-1.8338,-1.842,-1.842,-1.8306,-1.8119,-1.8038,-1.8046,-1.8119,-1.8127,-1.8119,-1.8119,-1.8119,-1.807,-1.7973,-1.7875,-1.7827,-1.7835,-1.794,-1.8484,-1.9405,-2.0492,-2.1948,-2.3756,-2.4767,-2.5745,-2.6722,-2.6722,-2.7167,-2.808,-2.8322,-2.8858,-2.9686,-2.9833,-2.9753,-2.9446,-2.9432,-2.9513,-2.9673,-2.9553,-2.9566,-2.9713,-2.9726,-2.9793,-2.9913,-2.9766,-2.9619,-2.9486,-2.9205,-2.8837,-2.8473,-2.9008,-2.8977,-2.8319,-2.849,-2.8028,0.0,0.0,0.0,0.0,0.0,0.0,0.0,0.0,0.0,0.0,0.0,-2.9047,-2.95,-2.9866,-3.0203,-3.0481,-3.0364,-3.0325,-3.0368,-3.0184,-3.0145,-3.0294,-2.9888,-2.9438,-2.9009,-2.8074,-2.7147,-2.64,-2.5535,-2.4845,-2.4699,-2.3709,-2.2907,-2.3007,-2.3294,-2.355,-2.355,-2.3838,-2.4199,-2.4382,-2.3536,-2.2136,-2.0187,-1.8947,-1.7788,-1.5922,-1.4564,-1.3561,-1.2904,-1.2521,-1.2335,-1.233,-1.2335,-1.2335,-1.2335,-1.2335,-1.2292,-1.2194,-1.2172,-1.2361,-1.8769,-1.8793,-1.8793,-1.8793,-1.8777,-1.8623,-1.8623,-1.8728,-1.8728,-1.8728,-1.8728,-1.8728,-1.8728,-1.8728,-1.8728,-1.8816,-1.9104,-1.8824,-1.8926,-1.9337,-2.0625,-2.1263,-2.1494,-2.3055,-2.3881,-2.3956,-2.4232,-2.532,-2.7027,-2.7299,-2.8294,-2.9824,-2.9913,-2.9913,-2.9913,-2.9913,-2.9913,-2.9913,-2.9762,-2.9628,-2.9628,-2.9703,-2.9837,-3.0079,-3.0093,-2.9972,-2.9716,-2.9461,-2.9339,-2.9429,-2.9328,-2.9436,-2.9807,-2.9668,-2.9137,0.0,-2.7884,0.0,0.0,0.0,0.0,0.0,0.0,0.0,0.0,-2.9017,-2.9822,-3.0422,-3.0592,-3.0759,-3.1315,-3.1124,-3.1168,-3.171,-3.1549,-3.149,-3.1812,-3.1856,-3.144,-3.033,-3.0216,-2.9662,-2.8587,-2.7386,-2.6537,-2.615,-2.515,-2.4339,-2.4188,-2.4097,-2.4097,-2.4118,-2.4107,-2.4393,-2.4885,-2.4976,-2.4334,-2.2882,-2.2187,-2.1161,-1.7868,-1.6744,-1.5787,-1.4151,-1.3474,-1.3,-1.2634,-1.2531,-1.2531,-1.252,-1.2806,-1.3029,-1.2853,-1.2896,-1.3346,-1.9021,-1.9159,-1.9159,-1.9159,-1.9159,-1.9126,-1.8964,-1.8728,-1.8728,-1.8728,-1.8728,-1.8728,-1.8728,-1.8728,-1.8728,-1.9575,-2.1087,-1.9488,-2.0497,-2.356,-2.0592,-2.0946,-2.3874,-2.269,-2.2879,-2.4531,-2.6212,-2.7048,-2.7213,-2.8884,-2.9779,-2.9913,-2.9913,-2.9913,-2.9913,0.0,0.0,0.0,-3.0218,-3.0355,-3.0445,-3.0801,-3.0992,-3.1048,-3.1062,0.0,-3.0979,-3.0909,-3.0719,-3.0277,-3.0566,0.0,0.0,0.0,0.0,0.0,0.0,0.0,0.0,0.0,0.0,0.0,-2.9494,-2.9603,-2.9178,-2.9998,-3.0715,-3.1095,-3.1373,-3.1578,-3.1695,-3.1651,-3.1666,-3.1768,-3.1739,-3.1827,-3.2149,-3.2193,-3.2193,-3.2192,-3.1278,-3.0404,-3.0136,-2.8937,-2.7624,-2.6719,-2.6083,-2.5548,-2.4829,-2.4382,-2.4118,-2.4118,-2.4474,-2.4907,-2.5649,-2.5764,-2.574,-2.5362,-2.4104,-2.2994,-2.1944,-2.0443,-1.8655,-1.6469,-1.578,-1.5035,-1.312,-1.2536,-1.2856,-1.2542,-1.3891,-1.5112,-1.5059,-1.5046,-1.5616,-1.9175,0.0,-1.9264,-1.9264,0.0,-1.9264,-1.9159,-1.8988,-1.8988,-1.8988,-1.8988,-1.8988,-1.8988,-1.9086,-2.0041,-2.1099,-2.2056,-2.2047,-2.2625,-2.3577,-2.1477,-2.1099,-2.2047,-2.0993,-2.1518,-2.3415,-2.4451,-2.5787,-2.7297,-2.8524,-2.9417,-2.9927,-3.006,-3.015,-3.0272,-3.0437,-3.0369,-3.0055,-3.0308,-3.0486,-3.0751,-3.1017,-3.1161,-3.1315,0.0,0.0,0.0,0.0,0.0,0.0,0.0,0.0,0.0,0.0,0.0,-3.0846,-3.051,-3.0188,-2.9895,-2.9998,-3.0232,-3.0554,-3.0729,-3.0685,-3.0349,-3.0934,-3.1373,-3.1534,-3.1695,-3.1856,-3.2017,-3.2032,-3.2105,-3.2251,-3.228,-3.2354,-3.25,-3.2515,-3.2588,-3.2734,-3.2129,-3.1685,-3.1671,-3.041,-2.9502,-2.904,-2.7612,-2.6731,-2.6435,-2.5366,-2.4555,-2.476,-2.5135,-2.5604,-2.6191,-2.6515,-2.662,-2.6572,-2.5922,-2.5031,-2.4082,-2.3,-2.1675,-1.9639,-1.911,-1.8387,-1.7026,-1.6538,-1.6439,-1.634,-1.7034,-1.8213,-1.8986,-1.8251,-1.7808,-1.9264,-1.9264,-1.9264,-1.9264,-1.9264,-1.9264,-1.9264,-1.9264,0.0,0.0,0.0,-1.9651,-1.9849,-1.9939,-2.1977,-2.3141,-2.3531,-2.4494,-2.4397,-2.3433,-2.2368,-2.1299,-2.0423,-2.0038,-2.0827,-2.2683,-2.306,-2.4736,-2.7461,-2.8167,-2.8942,-2.9993,-3.0442,-3.0677,-3.087,-3.1207,-3.1054,-3.0608,-3.0552,-3.0701,-3.1039,-3.1215,-3.1342,-3.1596,-3.1596,-3.1596,-3.1596,-3.1596,-3.166,-3.1784,-3.1756,-3.1903,-3.1988,-3.1973,-3.1827,-3.1505,-3.1432,-3.1373,-3.1315,-3.13,-3.1505,-3.1929,-3.1783,-3.1563,-3.1344,-3.1563,-3.1739,-3.1798,-3.19,-3.209,-3.2339,-3.2485,-3.2646,-3.291,-3.2939,-3.2939,-3.2939,-3.2939,-3.2968,-3.2939,-3.2968,-3.3028,-3.3131,-3.2226,-3.1634,-3.1887,-3.0227,-2.8201,-2.8279,-2.6565,-2.5215,-2.5742,-2.6087,-2.6388,-2.684,-2.7168,-2.7322,-2.7428,-2.7499,-2.7045,-2.5687,-2.5172,-2.4411,-2.2751,-2.2322,-2.1684,-2.0923,-2.0284,-2.0536,-2.0039,-2.0208,-2.0897,-2.2369,-2.1477,-2.0648,-1.9264,-1.9264,-1.9264,-1.9264,-1.9264,-1.9264,-1.9264,-1.9264,-1.9264,-1.9256,-1.9454,-2.1201,-2.1977,-2.2075,-2.4105,-2.6056,-2.7503,-2.43,-2.4591,0.0,-2.2172,-2.1496,-2.4494,-2.276,-2.3023,-2.5023,-2.6868,-2.7665,-2.7881,-2.9785,-3.0636,-3.0614,-3.1086,-3.1606,-3.1994,-3.1595,-3.162,-3.2115,-3.1859,-3.1806,-3.1894,-3.2248,-3.2543,-3.2586,-3.2586,-3.2586,-3.2586,-3.2601,-3.2572,-3.2617,-3.2617,-3.2676,-3.2632,-3.2632,-3.2485,-3.2163,-3.1885,-3.1607,-3.1344,-3.1315,-3.1695,-3.2544,-3.2837,-3.2515,-3.1432,-3.1359,-3.149,-3.1783,-3.2295,-3.2646,-3.2734,-3.3158,-3.3451,-3.3539,-3.3583,-3.3583,-3.3539,-3.3554,-3.3554,-3.3554,-3.3597,-3.393,-3.4517,-3.4517,-3.4202,-3.4112,-3.3393,-3.2469,-2.9978,-2.7554,-2.626,-2.6701,-2.6876,-2.7192,-2.771,-2.8019,-2.8044,-2.838,-2.832,-2.8344,-2.8015,-2.7973,-2.7229,-2.5383,-2.5067,-2.3987,-2.1673,-2.0738,-2.0975,-2.068,-2.1492,-2.2575,-2.3183,-2.3582,-2.4473,-1.9264,-1.9264,-1.9264,-1.9264,-1.9264,-1.9264,-1.9939,-2.0915,-2.1005,-2.1005,-2.1201,-2.3141,-2.4115,-2.431,-2.6238,-2.7106,-2.6914,-2.7299,-2.7203,-2.6817,-2.5173,-2.4688,-2.5367,-2.4504,-2.5173,-2.7203,-2.8356,-2.9317,-3.0104,-3.1422,-3.1771,-3.1277,-3.1784,-3.2267,-3.2668,-3.2608,-3.2822,-3.3133,-3.2387,-3.2143,-3.2409,-3.2689,-3.2851,-3.3027,-3.3027,-3.3115,-3.329,-3.329,-3.329,-3.329,-3.329,-3.329,-3.329,-3.329,-3.3232,-3.3071,-3.2924,-3.2778,-3.2632,-3.2617,-3.2734,-3.3012,-3.3158,-3.2939,-3.2163,-3.2266,-3.2354,-3.2339,-3.2617,-3.2763,-3.2778,-3.3041,-3.3217,-3.3202,-3.3349,-3.3466,-3.3495,-3.3641,-3.3729,-3.3729,-3.3729,-3.4093,-3.506,-3.515,-3.5692,-3.6094,-3.6005,-3.4426,-3.1299,-2.9656,-2.8452,-2.773,-2.7557,-2.777,-2.8198,-2.8343,-2.8475,-2.8608,-2.8741,-2.8874,-2.9031,-2.92,-2.8946,-2.8169,-2.7883,-2.7269,-2.5134,-2.5043,-2.4738,-2.4312,-2.4366,-2.4949,-2.5298,-2.5564,-2.5582,-1.9264,-1.9264,-1.9264,-1.9264,-1.9264,-1.9264,-2.0522,-2.2368,-2.2368,-2.2945,-2.4018,-2.5561,-2.6238,-2.6431,-2.8368,-2.8464,-2.7407,-2.9733,-2.9243,-2.6528,-2.7407,-2.7299,-2.6335,-2.6238,-2.7311,-2.9147,-2.9803,-3.0721,-3.1904,-3.2515,-3.2569,-3.2211,-3.2508,-3.2937,-3.3369,-3.3605,-3.3758,-3.3711,-3.2916,-3.2626,-3.2983,-3.2983,-3.3115,-3.3334,-3.3259,-3.3466,-3.3715,-3.3729,-3.3729,-3.3729,-3.3729,-3.3729,-3.3729,-3.3729,-3.3729,-3.3729,-3.3729,-3.3729,-3.3729,-3.4078,-3.4261,-3.4097,-3.4502,-3.4664,-3.4451,-3.4619,-3.4082,-3.294,-3.2719,-3.2763,-3.2793,-3.2939,-3.3012,-3.31,-3.3305,-3.3554,-3.3597,-3.3802,-3.3949,-3.3949,-3.4132,-3.4681,-3.547,-3.5924,-3.686,-3.812,-3.7623,-3.5532,-3.2687,-3.1731,-3.0421,-2.8748,-2.8174,-2.8294,-2.8306,-2.8463,-2.8596,-2.862,-2.8777,-2.8898,-2.9031,-2.9369,-2.9658,-2.9519,-2.9835,-2.9451,-2.8846,-2.8552,-2.8235,-2.7578,-2.7032,-2.6824,-2.6738,-2.6189,-2.569,-1.9264,-1.9264,-1.9264,-1.9264,-1.9355,-1.9363,-2.053,-2.2378,-2.2368,-2.4591,-2.7623,-2.8284,-2.8284,-2.856,-3.0427,-3.112,-3.0726,-2.9529,-2.8668,-2.8092,-2.6528,-2.6732,-2.8272,-2.8368,-2.9434,-3.1175,-3.184,-3.2069,-3.2104,-3.2529,-3.2965,-3.3236,-3.3176,-3.3623,-3.4339,-3.393,-3.389,-3.4154,-3.3726,-3.3551,-3.3641,-3.3641,-3.3656,-3.3685,-3.3685,-3.37,-3.3773,-3.3729,-3.3744,-3.3729,-3.3758,-3.3744,-3.3744,-3.3744,-3.3744,-3.3744,-3.3744,-3.3729,-3.3911,-3.5316,-3.6432,-3.6833,-3.8292,-3.9155,-3.9104,-3.9244,-3.7273,-3.3865,-3.2823,-3.3161,-3.2896,-3.3365,-3.3928,-3.4409,-3.4099,-3.4241,-3.4524,-3.4592,-3.4622,-3.4622,-3.5356,-3.6344,-3.7173,-3.7998,-3.9051,-3.9909,-3.8754,-3.6926,-3.4662,-3.3009,-3.1246,-2.9359,-2.8668,-2.8656,-2.856,-2.8596,-2.862,-2.862,-2.8644,-2.8789,-2.8982,-2.9115,-2.9224,-2.967,-2.9851,-2.9682,-2.9397,-2.9288,-2.9084,-2.8619,-2.8008,-2.7444,-2.6646,-2.6004,-2.5518,-1.9264,-1.9264,-1.9264,-2.0038,-2.0924,-1.9949,-2.1272,-2.4221,-2.3176,-2.4305,-2.7063,-2.8445,-2.9638,-3.0671,-3.1816,-3.1592,-3.0392,-3.0529,-2.9972,-2.8982,-2.9029,-2.9638,-3.0401,-3.0687,-3.1352,-3.2138,-3.288,-3.3201,-3.3154,-3.345,-3.375,-3.392,-3.3857,-3.4124,-3.4636,-3.4432,-3.4388,-3.449,-3.4373,-3.43,-3.4256,-3.3919,-3.3817,-3.4007,-3.4022,-3.4124,-3.4285,-3.43,-3.43,-3.43,-3.4314,-3.43,-3.4314,-3.4314,-3.43,-3.4392,-3.5378,-3.6539,-3.7617,-3.8507,-3.8917,-3.9067,-3.979,-4.0258,-4.0331,-4.0142,-3.9003,-3.7401,-3.6764,-3.6732,-3.666,-3.5953,-3.5918,-3.6765,-3.5517,-3.4718,-3.5991,-3.5773,-3.563,-3.563,-3.6436,-3.7362,-3.8375,-3.9383,-4.0129,-4.0493,-3.9748,-3.8526,-3.6653,-3.5617,-3.3858,-3.1244,-3.0401,-2.9841,-2.8908,-2.862,-2.862,-2.8644,-2.8753,-2.8922,-2.897,-2.932,-2.9538,-2.9574,-2.9803,-2.9735,-2.9243,-2.9307,-2.9276,-2.8866,-2.8264,-2.7574,-2.6491,-2.5906,-2.5615,-1.9676,-2.0213,-2.0264,-2.0876,-2.1569,-2.0916,-2.2167,-2.4653,-2.4108,-2.5067,-2.7169,-2.8923,-3.0844,-3.2566,-3.2687,-3.1738,-3.061,-3.1807,-3.1618,-3.0404,-3.1617,-3.226,-3.226,-3.2449,-3.2597,-3.28,-3.3445,-3.383,-3.3859,-3.4013,-3.4051,-3.3963,-3.3949,-3.4168,-3.4534,-3.4563,-3.4578,-3.4563,-3.4563,-3.4534,-3.4373,-3.3978,-3.3934,-3.43,-3.4168,-3.4271,-3.468,-3.4622,-3.4622,-3.4695,-3.5148,-3.5521,-3.5521,-3.5972,-3.6328,-3.6421,-3.7591,-3.9043,-4.039,-4.0846,-4.1189,-4.1276,-4.1583,-4.2013,-4.2049,-4.1853,-4.1711,-4.1639,-4.1514,-4.1036,-3.9368,-3.8219,-3.8164,-3.9239,-3.7211,-3.6553,-3.8012,-3.7556,-3.7085,-3.7254,-3.7715,-3.8359,-3.9383,-4.0129,-4.0583,-4.0583,-4.0583,-3.993,-3.8111,-3.722,-3.5852,-3.2244,-3.149,-3.0596,-2.898,-2.862,-2.8608,-2.8572,-2.8681,-2.8825,-2.8862,-2.9236,-2.9622,-2.9477,-2.9864,-2.9992,-2.9653,-2.9647,-2.9486,-2.9243,-2.8661,-2.7858,-2.7073,-2.6219,-2.5809,-2.0625,-2.2482,-2.2778,-2.1839,-2.0165,-2.2076,-2.2973,-2.3967,-2.5277,-2.7467,-2.9516,-3.0305,-3.2004,-3.4185,-3.3182,-3.2559,-3.2559,-3.3019,-3.3186,-3.2965,-3.3367,-3.3611,-3.3597,-3.3317,-3.3177,-3.3177,-3.3728,-3.3923,-3.3769,-3.3682,-3.3583,-3.3334,-3.3378,-3.3641,-3.4154,-3.4241,-3.4241,-3.4241,-3.4241,-3.411,-3.3832,-3.3758,-3.4007,-3.449,-3.408,-3.4066,-3.4563,-3.4402,-3.4466,-3.4695,-3.6467,-3.7452,-3.756,-3.9101,-3.992,-4.0118,-4.03,-4.0481,-4.0898,-4.2013,-4.2934,-4.3368,-4.4348,-4.5425,-4.5384,-4.5327,-4.5269,-4.5861,-4.5337,-4.3878,-4.0667,-3.9823,-3.9767,-4.0292,-3.9916,-3.9997,-4.0846,-3.9647,-3.9242,-3.935,-3.9184,-3.9383,-4.0311,-4.0583,-4.0583,-4.0583,-4.0583,-3.993,-3.8386,-3.7504,-3.5593,-3.278,-3.1223,-3.0551,-2.9014,-2.856,-2.8451,-2.8451,-2.8536,-2.862,-2.8572,-2.8644,-2.9043,-2.9405,-2.9743,-2.9984,-3.0129,-3.0004,-2.9835,-2.9467,-2.8977,-2.8194,-2.7461,-2.6811,-2.6294,-2.0025,-2.109,-2.3255,-2.4177,-2.4387,-2.4336,-2.5798,-2.8104,-2.7448,-2.7918,-2.9238,-3.0639,-3.1903,-3.2802,-3.3728,-3.4182,-3.4168,-3.4185,-3.4088,-3.4158,-3.3976,-3.3917,-3.372,-3.3879,-3.3818,-3.3756,-3.4118,-3.4275,-3.4066,-3.3846,-3.3671,-3.3583,-3.3554,-3.3685,-3.3875,-3.3905,-3.3905,-3.3905,-3.3905,-3.3846,-3.3715,-3.3524,-3.3641,-3.4036,-3.3861,-3.3934,-3.4373,-3.5151,-3.5835,-3.6083,-3.776,-3.8602,-3.8724,-3.9553,-4.0887,-4.2174,-4.2389,-4.2925,-4.4011,-4.4712,-4.5132,-4.5247,-4.5464,-4.5703,-4.582,-4.5664,-4.5488,-4.5488,-4.5488,-4.4578,-4.3846,-4.2609,-4.2544,-4.3486,-4.2085,-4.146,-4.2317,-4.1581,-4.0515,-4.0606,-4.0277,-4.022,-4.0385,-4.0583,-4.0583,-4.0583,-4.0583,-4.0186,-3.9772,-3.9141,-3.7398,-3.4158,-3.2754,-3.1563,-2.8347,-2.8258,-2.8331,-2.8415,-2.85,-2.8632,-2.8656,-2.8958,-2.9369,-2.9477,-2.9743,-2.996,-3.0129,-3.0153,-2.9936,-2.9535,-2.9045,-2.8513,-2.7933,-2.7306,-2.68,-2.226,-2.2287,-2.5454,-2.6791,-2.6713,-2.7067,-2.8344,-3.0364,-3.0133,-3.0004,-3.0307,-3.2031,-3.316,-3.346,-3.4883,-3.5508,-3.5494,-3.5182,-3.4998,-3.497,-3.4869,-3.4613,-3.4496,-3.4584,-3.4572,-3.4342,-3.4435,-3.4373,-3.4066,-3.3729,-3.3539,-3.3407,-3.3422,-3.348,-3.3554,-3.3568,-3.3568,-3.3568,-3.3568,-3.3705,-3.4113,-3.3471,-3.3799,-3.4858,-3.4651,-3.4518,-3.4923,-3.5856,-3.6795,-3.768,-3.9239,-4.0438,-4.0998,-4.1387,-4.2184,-4.369,-4.3903,-4.4447,-4.5599,-4.5781,-4.5723,-4.5859,-4.5508,-4.5293,-4.541,-4.5195,-4.5058,-4.5039,-4.5039,-4.5176,-4.541,-4.4712,-4.4679,-4.5687,-4.4178,-4.3379,-4.4516,-4.2986,-4.1551,-4.0711,-4.0593,-4.0498,-4.0446,-4.0532,-4.0566,-4.0583,-4.0498,-4.0412,-4.0361,-3.9895,-3.829,-3.4789,-3.3521,-3.1579,-2.9048,-2.8029,-2.8101,-2.8174,-2.8596,-2.8729,-2.891,-2.926,-2.9526,-2.961,-2.9767,-2.9972,-3.0093,-3.0129,-2.9924,-2.9598,-2.9231,-2.8855,-2.8339,-2.7813,-2.7295,-2.7638,-2.6238,-2.9996,-2.9462,-2.7432,-2.998,-3.0396,-3.0069,-3.3047,-3.3673,-3.2834,-3.4684,-3.5692,-3.6301,-3.6301,-3.6498,-3.64,-3.596,-3.5762,-3.5734,-3.5967,-3.5988,-3.5871,-3.5346,-3.5024,-3.4988,-3.449,-3.4051,-3.3729,-3.3393,-3.3115,-3.2851,-3.2851,-3.3012,-3.3142,-3.3246,-3.3246,-3.3246,-3.3246,-3.3873,-3.5121,-3.3925,-3.4628,-3.7291,-3.6356,-3.5979,-3.6568,-3.6459,-3.7309,-3.914,-4.0996,-4.2956,-4.4156,-4.4489,-4.4869,-4.4756,-4.4908,-4.4973,-4.4954,-4.4785,-4.4844,-4.5039,-4.4707,-4.4687,-4.4961,-4.4941,-4.4883,-4.4863,-4.4967,-4.5131,-4.5489,-4.5568,-4.5576,-4.5758,-4.5625,-4.5898,-4.5792,-4.4252,-4.1992,-4.0261,-4.0138,-4.0378,-4.0241,-4.0378,-4.0566,-4.0532,-4.031,-4.0104,-4.0053,-3.9539,-3.7326,-3.4469,-3.3081,-3.1736,-2.961,-2.7824,-2.7848,-2.7956,-2.8524,-2.8898,-2.9079,-2.9381,-2.9682,-2.9815,-2.9948,-3.0141,-3.0141,-3.0165,-3.0045,-2.9767,-2.9475,-2.9246,-2.875,-2.8209,-2.7909,-2.758,-2.7975,-3.0206,-3.105,-3.0622,-3.2271,-3.3173,-3.4059,-3.5295,-3.5394,-3.5479,-3.6004,-3.6498,-3.6612,-3.6612,-3.6612,-3.6612,-3.64,-3.6301,-3.6385,-3.6396,-3.6202,-3.5822,-3.5588,-3.5149,-3.4534,-3.4095,-3.3715,-3.3393,-3.3085,-3.2851,-3.2793,-3.2763,-3.2822,-3.2924,-3.2924,-3.2924,-3.2924,-3.2924,-3.3809,-3.5265,-3.5003,-3.5858,-3.7809,-3.7638,-3.8031,-3.9441,-3.9507,-3.9904,-4.0812,-4.2368,-4.3652,-4.4343,-4.459,-4.4726,-4.498,-4.5039,-4.5039,-4.5019,-4.4902,-4.4824,-4.4922,-4.4629,-4.4473,-4.4531,-4.4316,-4.416,-4.4141,-4.4371,-4.4802,-4.5163,-4.5513,-4.5797,-4.6111,-4.649,-4.6683,-4.6417,-4.4686,-4.2431,-4.0435,-4.007,-4.0224,-4.0378,-4.0532,-4.0549,-4.0549,-4.0258,-4.0018,-3.9916,-3.9351,-3.742,-3.4052,-3.3173,-3.1819,-2.9228,-2.7932,-2.8101,-2.8234,-2.8681,-2.9115,-2.9308,-2.9526,-2.9815,-2.9996,-3.0141,-3.0202,-3.0214,-3.0165,-3.0069,-2.9936,-2.9731,-2.9342,-2.9115,-2.8728,-2.8317,-3.0028,-3.0824,-3.2371,-3.3087,-3.3274,-3.41,-3.5309,-3.6498,-3.6202,-3.6301,-3.6498,-3.6612,-3.6612,-3.6612,-3.6612,-3.6612,-3.6612,-3.6612,-3.6612,-3.6612,-3.6612,-3.6305,-3.5807,-3.5558,-3.5046,-3.43,-3.389,-3.3568,-3.3246,-3.2939,-3.2763,-3.2763,-3.2763,-3.2778,-3.2763,-3.2763,-3.2763,-3.2852,-3.347,-3.4653,-3.6118,-3.6535,-3.774,-3.9769,-3.96,-4.021,-4.1844,-4.2011,-4.2143,-4.2396,-4.3247,-4.3867,-4.4121,-4.4141,-4.4258,-4.4453,-4.4531,-4.4512,-4.4531,-4.4473,-4.4531,-4.4492,-4.4297,-4.4141,-4.4101,-4.3828,-4.3711,-4.3958,-4.4225,-4.4713,-4.5443,-4.573,-4.6161,-4.6817,-4.6715,-4.6552,-4.5931,-4.446,-4.2542,-4.0665,-3.9961,-3.9988,-4.0104,-4.0327,-4.0446,-4.0481,-4.0155,-3.983,-3.9676,-3.9162,-3.6684,-3.4525,-3.3337,-3.1331,-2.8551,-2.8017,-2.8343,-2.8596,-2.8898,-2.9272,-2.9562,-2.9791,-3.0057,-3.0105,-3.0202,-3.0202,-3.0214,-3.0214,-3.0141,-2.9996,-2.9876,-2.9646,-2.9369,-2.9091,-2.8849,-3.4114,-3.4513,-3.5805,-3.5408,-3.4599,-3.5805,-3.6414,-3.6612,-3.6612,-3.6597,-3.6612,-3.6612,-3.6612,-3.6612,-3.6612,-3.6612,-3.6612,-3.6612,-3.6568,-3.6539,-3.6509,-3.6305,-3.588,-3.5368,-3.4783,-3.4183,-3.3861,-3.3539,-3.3158,-3.2895,-3.2763,-3.2763,-3.2763,-3.2763,-3.2852,-3.2852,-3.3117,-3.3455,-3.4844,-3.6535,-3.8238,-3.8323,-3.9854,-4.3112,-4.2011,-4.1844,-4.3112,-4.3361,-4.3526,-4.3628,-4.3628,-4.3711,-4.3711,-4.3711,-4.3769,-4.3828,-4.373,-4.3789,-4.375,-4.3848,-4.3828,-4.3848,-4.3808,-4.3691,-4.375,-4.3911,-4.4076,-4.4406,-4.4693,-4.5183,-4.6103,-4.6474,-4.6823,-4.7382,-4.6947,-4.596,-4.4406,-4.3395,-4.1992,-4.0539,-3.9774,-3.9488,-3.9625,-3.9916,-4.019,-4.0292,-3.9933,-3.9607,-3.9333,-3.8554,-3.6736,-3.5171,-3.3859,-3.1903,-2.9521,-2.8268,-2.8487,-2.8753,-2.9019,-2.9308,-2.9695,-2.996,-3.0141,-3.0189,-3.0214,-3.0214,-3.0214,-3.0214,-3.0214,-3.0141,-3.0008,-2.9864,-2.961,-2.9272,-2.9567,-3.38,-3.5805,-3.521,-3.5309,-3.5905,-3.6513,-3.6612,-3.6612,-3.6612,-3.6612,-3.6612,-3.6612,-3.6612,-3.6612,-3.6612,-3.6612,-3.6612,-3.6612,-3.6451,-3.6261,-3.6246,-3.5909,-3.5441,-3.5017,-3.449,-3.3934,-3.3773,-3.3436,-3.2924,-3.2822,-3.2763,-3.2763,-3.2763,-3.2852,-3.294,-3.4143,-3.4756,-3.5003,-3.6535,-3.8323,-3.9872,-4.021,-4.1407,-4.3278,-4.3195,-4.3195,-4.3691,-4.3691,-4.3691,-4.3691,-4.3691,-4.3691,-4.3691,-4.3691,-4.3774,-4.3774,-4.3691,-4.3691,-4.3691,-4.3691,-4.3691,-4.3691,-4.3813,-4.3691,-4.3711,-4.4336,-4.4723,-4.5071,-4.5707,-4.6449,-4.6904,-4.7195,-4.7527,-4.7506,-4.7113,-4.5734,-4.3662,-4.2588,-4.1629,-3.9667,-3.9201,-3.9248,-3.9659,-3.9881,-4.0036,-4.0053,-3.9779,-3.9351,-3.9111,-3.8921,-3.7517,-3.5968,-3.4487,-3.2718,-3.0969,-2.9412,-2.8716,-2.8874,-2.9091,-2.926,-2.9658,-3.0008,-3.0129,-3.0214,-3.0214,-3.0214,-3.0214,-3.0214,-3.0214,-3.0214,-3.0153,-3.0008,-2.9658,-2.9431,-3.0288,-3.4897,-3.6498,-3.5607,-3.5706,-3.6513,-3.6612,-3.6612,-3.6612,-3.6612,-3.6612,-3.6612,-3.6612,-3.6612,-3.6612,-3.6612,-3.6612,-3.6612,-3.6612,-3.6422,-3.6114,-3.5836,-3.55,-3.5149,-3.4841,-3.4358,-3.3788,-3.3729,-3.3363,-3.288,-3.2763,-3.2763,-3.2763,-3.2763,-3.319,-3.4055,-3.4828,-3.5944,-3.6794,-3.8408,-3.9957,-4.0903,-4.176,-4.2614,-4.3526,-4.3691,-4.3691,-4.3691,-4.3691,-4.3691,-4.3691,-4.3711,-4.3793,-4.3939,-4.3958,-4.3958,-4.3958,-4.4041,-4.3939,-4.3691,-4.3691,-4.3793,-4.3998,-4.4179,-4.4379,-4.4644,-4.5211,-4.5637,-4.6011,-4.6735,-4.717,-4.7647,-4.8064,-4.7896,-4.7226,-4.6898,-4.5804,-4.3607,-4.2291,-4.1049,-3.9783,-3.9046,-3.8871,-3.9505,-3.9556,-3.9659,-3.9676,-3.947,-3.9179,-3.8974,-3.8852,-3.8484,-3.6934,-3.5106,-3.3222,-3.149,-2.981,-2.8692,-2.8862,-2.9175,-2.9332,-2.9646,-3.002,-3.0141,-3.0214,-3.0214,-3.0214,-3.0214,-3.0214,-3.0214,-3.0214,-3.0214,-3.0081,-2.9731,-2.991,-3.0856,-3.6612,-3.6612,-3.6612,-3.6612,-3.6612,-3.6612,-3.6612,-3.6612,-3.6612,-3.6612,-3.6612,-3.6612,-3.6612,-3.6612,-3.6612,-3.6583,-3.6539,-3.6495,-3.6261,-3.588,-3.5456,-3.509,-3.5061,-3.4827,-3.4344,-3.3817,-3.3729,-3.3349,-3.291,-3.2763,-3.2763,-3.294,-3.3029,-3.3968,-3.5162,-3.5944,-3.7052,-3.8579,-4.0295,-4.1239,-4.176,-4.2761,-4.3443,-4.3609,-4.3691,-4.3691,-4.3691,-4.3691,-4.3711,-4.3793,-4.3691,-4.3958,-4.4288,-4.439,-4.4531,-4.4571,-4.4591,-4.4406,-4.4037,-4.4076,-4.4139,-4.4466,-4.4968,-4.5334,-4.5664,-4.6152,-4.6666,-4.6939,-4.7211,-4.777,-4.8312,-4.879,-4.8151,-4.6907,-4.6379,-4.5543,-4.4363,-4.2078,-4.03,-4.0077,-3.8922,-3.8615,-3.8785,-3.894,-3.9042,-3.9368,-3.9179,-3.9059,-3.9008,-3.8972,-3.8615,-3.7712,-3.582,-3.3715,-3.1934,-3.0115,-2.9221,-2.8801,-2.9175,-2.9429,-2.9695,-2.9984,-3.0129,-3.0214,-3.0214,-3.0214,-3.0214,-3.0214,-3.0214,-3.0214,-3.0214,-3.0057,-2.9952,-3.0528,-3.1295,-3.6612,-3.6612,-3.6612,-3.6612,-3.6612,-3.6612,-3.6612,-3.6612,-3.6612,-3.6597,-3.6597,-3.6597,-3.6583,-3.6583,-3.6539,-3.648,-3.6231,-3.6173,-3.5924,-3.5353,-3.5002,-3.4812,-3.4812,-3.4724,-3.4344,-3.3875,-3.3729,-3.3378,-3.291,-3.2763,-3.2852,-3.3029,-3.4143,-3.5177,-3.5858,-3.834,-3.989,-4.065,-4.2178,-4.2946,-4.2946,-4.3361,-4.3691,-4.3691,-4.3691,-4.3691,-4.3691,-4.3691,-4.3876,-4.4041,-4.3958,-4.4041,-4.4469,-4.4892,-4.5115,-4.5363,-4.5446,-4.5197,-4.4968,-4.5051,-4.5115,-4.5091,-4.568,-4.6129,-4.6233,-4.7037,-4.743,-4.7701,-4.8202,-4.8643,-4.8852,-4.8976,-4.8143,-4.6716,-4.523,-4.3757,-4.2481,-4.136,-4.0143,-3.9077,-3.8597,-3.8477,-3.8854,-3.8871,-3.894,-3.9008,-3.8974,-3.8922,-3.9025,-3.9145,-3.8889,-3.8446,-3.602,-3.3966,-3.2915,-3.089,-2.9282,-2.8825,-2.9175,-2.9489,-2.9755,-2.9996,-3.0153,-3.0214,-3.0214,-3.0214,-3.0214,-3.0214,-3.0214,-3.0214,-3.0303,-3.0347,-3.0514,-3.1151,-3.2181,-3.6612,-3.6612,-3.6612,-3.6612,-3.6612,-3.6612,-3.6612,-3.6612,-3.6612,-3.6509,-3.6392,-3.6378,-3.629,-3.6158,-3.6144,-3.6041,-3.5895,-3.5719,-3.55,-3.5149,-3.4871,-3.4724,-3.471,-3.4651,-3.4373,-3.3817,-3.3729,-3.3363,-3.2924,-3.2852,-3.3279,-3.4071,-3.5106,-3.6637,-3.7912,-4.0059,-4.1239,-4.2262,-4.3112,-4.3691,-4.3691,-4.3691,-4.3691,-4.3691,-4.3691,-4.3691,-4.3691,-4.3939,-4.4123,-4.4288,-4.439,-4.4653,-4.5305,-4.575,-4.6138,-4.6325,-4.6325,-4.6158,-4.5908,-4.5908,-4.5991,-4.6011,-4.6666,-4.7017,-4.7349,-4.7994,-4.8325,-4.8472,-4.8808,-4.9059,-4.9038,-4.8106,-4.7273,-4.5753,-4.3974,-4.2161,-4.0731,-3.998,-3.9423,-3.8546,-3.8323,-3.8409,-3.8563,-3.8683,-3.8666,-3.8666,-3.8666,-3.8648,-3.9008,-3.9179,-3.9573,-3.8701,-3.6205,-3.4455,-3.3628,-3.1853,-2.9223,-2.8922,-2.92,-2.9489,-2.9755,-2.9984,-3.0202,-3.0214,-3.0214,-3.0214,-3.0214,-3.0214,-3.0226,-3.0226,-3.0279,-3.0649,-3.1177,-3.2164,-3.3363,-3.648,-3.6539,-3.6539,-3.6524,-3.6539,-3.6524,-3.648,-3.6436,-3.6451,-3.6261,-3.6085,-3.6056,-3.5924,-3.5719,-3.5786,-3.5742,-3.55,-3.5266,-3.5061,-3.5017,-3.4812,-3.4724,-3.471,-3.4651,-3.4417,-3.3846,-3.3758,-3.3393,-3.2997,-3.297,-3.3631,-3.5177,-3.5858,-3.7569,-4.0228,-4.1425,-4.2178,-4.3361,-4.3526,-4.3691,-4.3691,-4.3691,-4.3691,-4.3691,-4.3856,-4.3876,-4.3958,-4.4205,-4.4534,-4.4616,-4.5024,-4.5594,-4.6289,-4.6863,-4.7108,-4.7192,-4.7213,-4.7043,-4.6707,-4.6707,-4.6875,-4.7231,-4.7704,-4.8014,-4.8477,-4.8684,-4.8849,-4.9017,-4.9059,-4.9017,-4.8955,-4.8049,-4.6227,-4.4482,-4.2778,-4.1063,-3.9374,-3.8563,-3.8375,-3.834,-3.8323,-3.8375,-3.8375,-3.8426,-3.8357,-3.8323,-3.834,-3.8512,-3.8905,-3.9248,-3.9642,-3.9014,-3.659,-3.3173,-3.1975,-3.1555,-2.903,-2.9043,-2.9284,-2.9538,-2.9791,-3.002,-3.0214,-3.0214,-3.0214,-3.0214,-3.0262,-3.031,-3.031,-3.0262,-3.0465,-3.0858,-3.1894,-3.3107,-3.4377,-3.5953,-3.6202,-3.6202,-3.6202,-3.6202,-3.6202,-3.6056,-3.5836,-3.5851,-3.5874,-3.5734,-3.5719,-3.569,-3.5713,-3.5728,-3.5485,-3.5207,-3.4958,-3.4827,-3.4812,-3.4724,-3.471,-3.471,-3.4695,-3.449,-3.4154,-3.3875,-3.351,-3.3158,-3.2999,-3.3822,-3.5439,-3.688,-3.8938,-4.0734,-4.2345,-4.3112,-4.3609,-4.3691,-4.3691,-4.3691,-4.3691,-4.3774,-4.3774,-4.4041,-4.4205,-4.437,-4.4718,-4.5046,-4.5494,-4.5901,-4.6331,-4.6742,-4.7009,-4.7255,-4.7566,-4.7856,-4.7852,-4.7576,-4.783,-4.783,-4.7932,-4.8305,-4.8722,-4.8935,-4.8997,-4.9059,-4.9059,-4.9038,-4.8935,-4.8521,-4.7763,-4.6436,-4.4481,-4.2732,-4.1427,-3.9409,-3.858,-3.8323,-3.8323,-3.8323,-3.8323,-3.8323,-3.8323,-3.8323,-3.8323,-3.8323,-3.8683,-3.9179,-3.9453,-3.9638,-3.8556,-3.6975,-3.3187,-2.9937,-2.9688,-2.8753,-2.9139,-2.9417,-2.9646,-2.9888,-3.0093,-3.0214,-3.0286,-3.0262,-3.0238,-3.0298,-3.0407,-3.0491,-3.0515,-3.0823,-3.1334,-3.2719,-3.4209,-3.4883,-3.5734,-3.588,-3.588,-3.588,-3.5866,-3.588,-3.5792,-3.5757,-3.5742,-3.564,-3.5522,-3.5478,-3.5295,-3.5192,-3.5163,-3.5046,-3.4914,-3.4797,-3.471,-3.471,-3.471,-3.471,-3.4724,-3.4724,-3.4622,-3.4358,-3.3993,-3.3568,-3.3232,-3.2924,-3.3822,-3.551,-3.7294,-3.9108,-4.0987,-4.2678,-4.3526,-4.3691,-4.3691,-4.3691,-4.3691,-4.3691,-4.3793,-4.4123,-4.4288,-4.4534,-4.478,-4.5127,-4.5454,-4.5739,-4.6066,-4.6413,-4.6722,-4.7113,-4.7629,-4.8024,-4.8272,-4.8436,-4.841,-4.8643,-4.8643,-4.8493,-4.887,-4.9038,-4.9059,-4.9059,-4.9059,-4.9059,-4.9038,-4.8873,-4.8438,-4.7051,-4.5163,-4.3566,-4.1896,-4.0179,-3.8994,-3.8512,-3.8357,-3.8323,-3.8323,-3.8323,-3.8323,-3.8323,-3.8323,-3.8323,-3.8323,-3.8785,-3.9368,-3.9573,-3.9638,-3.7622,-3.5896,-3.273,-2.965,-2.9304,-2.8862,-2.9151,-2.975,-2.9981,-2.996,-3.0153,-3.0322,-3.0443,-3.0383,-3.0346,-3.0419,-3.0552,-3.066,-3.0975,-3.1903,-3.2789,-3.4044,-3.5104,-3.5778,-3.5485,-3.564,-3.564,-3.564,-3.564,-3.564,-3.5596,-3.5566,-3.5427,-3.5295,-3.509,-3.5046,-3.4944,-3.4768,-3.4724,-3.4724,-3.471,-3.4753,-3.4827,-3.4856,-3.4929,-3.4914,-3.49,-3.4827,-3.4797,-3.4724,-3.4168,-3.3671,-3.3349,-3.2968,-3.391,-3.5494,-3.7294,-3.9193,-4.0987,-4.2761,-4.3443,-4.3691,-4.3691,-4.3691,-4.3691,-4.3793,-4.4041,-4.4452,-4.4534,-4.4862,-4.5127,-4.5617,-4.5779,-4.5942,-4.6145,-4.6328,-4.6596,-4.7154,-4.7796,-4.8272,-4.8438,-4.8728,-4.8914,-4.9038,-4.8997,-4.8997,-4.9038,-4.9059,-4.9059,-4.9059,-4.9059,-4.9059,-4.9059,-4.8534,-4.7491,-4.5687,-4.3898,-4.2151,-4.0395,-3.8666,-3.8529,-3.834,-3.834,-3.8323,-3.8323,-3.8323,-3.8323,-3.8323,-3.8323,-3.8323,-3.8323,-3.8751,-3.9282,-3.9436,-3.8965,-3.6542,-3.4312,-3.1623,-2.9841,-2.9746,-2.9272,-2.9103,-3.0046,-3.0664,-3.0401,-3.0214,-3.0383,-3.0564,-3.06,-3.0576,-3.0648,-3.0757,-3.0926,-3.1555,-3.3007,-3.4206,-3.5123,-3.5672,-3.6235,-3.4973,-3.5207,-3.5222,-3.5317,-3.5207,-3.5207,-3.5061,-3.4856,-3.4871,-3.4797,-3.4797,-3.4783,-3.4753,-3.471,-3.471,-3.471,-3.4797,-3.4944,-3.5075,-3.5134,-3.5324,-3.5427,-3.5441,-3.5222,-3.5075,-3.4929,-3.4417,-3.4007,-3.3583,-3.3056,-3.3631,-3.5336,-3.7036,-3.909,-4.0566,-4.2345,-4.3609,-4.3691,-4.3691,-4.3691,-4.3774,-4.4021,-4.4288,-4.4616,-4.5046,-4.5535,-4.5617,-4.5942,-4.6185,-4.6185,-4.6287,-4.6554,-4.6885,-4.6927,-4.7589,-4.821,-4.8707,-4.9017,-4.9059,-4.9059,-4.9059,-4.9059,-4.9059,-4.9059,-4.9059,-4.9059,-4.9059,-4.9059,-4.9038,-4.8134,-4.6675,-4.5614,-4.3687,-4.1955,-4.0202,-3.911,-3.8597,-3.8477,-3.846,-3.8323,-3.8323,-3.8323,-3.8323,-3.8323,-3.8323,-3.8323,-3.8426,-3.8854,-3.9072,-3.9134,-3.8283,-3.5868,-3.4406,-3.1894,-3.0401,-3.021,-3.0164,-2.9689,-2.9984,-3.091,-3.0676,-3.0346,-3.0527,-3.0672,-3.0745,-3.089,-3.101,-3.1143,-3.1264,-3.2349,-3.3915,-3.4941,-3.5755,-3.6343,-3.7183,-3.4783,-3.49,-3.49,-3.49,-3.49,-3.49,-3.4827,-3.4724,-3.471,-3.471,-3.471,-3.471,-3.471,-3.471,-3.471,-3.4812,-3.4958,-3.5119,-3.528,-3.5427,-3.5588,-3.5757,-3.564,-3.5324,-3.5163,-3.5031,-3.4549,-3.4036,-3.3671,-3.3305,-3.3487,-3.4143,-3.5826,-3.7449,-3.9618,-4.1323,-4.2595,-4.3361,-4.3691,-4.3691,-4.3774,-4.4123,-4.4534,-4.478,-4.5372,-4.5779,-4.6023,-4.6185,-4.6266,-4.6308,-4.6473,-4.6803,-4.7134,-4.7486,-4.8045,-4.8293,-4.881,-4.9038,-4.9059,-4.9059,-4.9059,-4.9059,-4.9059,-4.9059,-4.9059,-4.9059,-4.9059,-4.9059,-4.8106,-4.6977,-4.5503,-4.4068,-4.2339,-4.082,-3.9795,-3.9248,-3.8683,-3.877,-3.8648,-3.8477,-3.8323,-3.8323,-3.8323,-3.8323,-3.834,-3.8357,-3.8546,-3.8974,-3.8834,-3.8538,-3.7194,-3.5141,-3.4031,-3.2919,-3.1718,-3.1067,-3.1382,-3.0882,-2.9702,-3.0417,-3.0558,-3.0503,-3.0696,-3.0926,-3.1119,-3.1252,-3.1384,-3.1713,-3.2028,-3.3364,-3.4937,-3.6017,-3.7177,-3.8557,-3.8978,-3.471,-3.471,-3.471,-3.471,-3.471,-3.471,-3.471,-3.471,-3.471,-3.471,-3.471,-3.471,-3.471,-3.4739,-3.4797,-3.4958,-3.5149,-3.5324,-3.5529,-3.5705,-3.5851,-3.6021,-3.5866,-3.5617,-3.5397,-3.5295,-3.4827,-3.4256,-3.3788,-3.3466,-3.3173,-3.2881,-3.49,-3.6518,-3.8323,-4.021,-4.2011,-4.3609,-4.3876,-4.3958,-4.4041,-4.4452,-4.4882,-4.5209,-4.5617,-4.5942,-4.6266,-4.6266,-4.6266,-4.6535,-4.6803,-4.7092,-4.7486,-4.7962,-4.8355,-4.8583,-4.8935,-4.9059,-4.9059,-4.9059,-4.9059,-4.9059,-4.9059,-4.9059,-4.9059,-4.9059,-4.9059,-4.9059,-4.7516,-4.6325,-4.4915,-4.2724,-4.1056,-4.0022,-3.9113,-3.8718,-3.8443,-3.858,-3.8614,-3.8443,-3.8323,-3.8323,-3.8323,-3.8323,-3.834,-3.8375,-3.8683,-3.9094,-3.8897,-3.8515,-3.7309,-3.5695,-3.4701,-3.401,-3.3369,-3.2694,-3.2777,-3.2014,-3.0844,-3.0093,-3.0429,-3.0624,-3.0877,-3.1143,-3.1409,-3.2257,-3.2847,-3.2809,-3.2877,-3.4426,-3.5855,-3.7377,-3.8752,-4.0051,-3.9946,-3.471,-3.471,-3.471,-3.471,-3.471,-3.471,-3.471,-3.471,-3.471,-3.471,-3.471,-3.471,-3.471,-3.4768,-3.4958,-3.5119,-3.5207,-3.5778,-3.5983,-3.6158,-3.6348,-3.6422,-3.6305,-3.6085,-3.5822,-3.5558,-3.5105,-3.4505,-3.3919,-3.3671,-3.329,-3.3117,-3.4319,-3.6275,-3.8323,-4.0379,-4.1844,-4.3278,-4.3876,-4.4288,-4.4534,-4.4944,-4.5535,-4.5637,-4.6023,-4.6266,-4.6266,-4.6266,-4.6452,-4.6783,-4.7051,-4.7465,-4.7962,-4.8334,-4.8624,-4.8873,-4.8976,-4.9059,-4.9059,-4.9059,-4.9059,-4.9059,-4.9017,-4.8955,-4.8935,-4.8997,-4.9038,-4.8596,-4.6721,-4.5293,-4.3795,-4.2088,-4.0093,-3.9302,-3.8735,-3.8649,-3.8443,-3.8477,-3.8494,-3.8375,-3.8323,-3.8323,-3.8323,-3.8323,-3.8323,-3.8357,-3.8854,-3.9282,-3.9456,-3.9026,-3.8213,-3.693,-3.5849,-3.5222,-3.5191,-3.4702,-3.4095,-3.3048,-3.1796,-3.0952,-3.0465,-3.0739,-3.0998,-3.1324,-3.1684,-3.2947,-3.4175,-3.4518,-3.5004,-3.57,-3.6969,-3.8797,-3.8987,-3.9233,-3.8872,-3.471,-3.471,-3.471,-3.471,-3.471,-3.471,-3.471,-3.471,-3.471,-3.471,-3.471,-3.471,-3.471,-3.4797,-3.5017,-3.528,-3.55,-3.5895,-3.6187,-3.6392,-3.6553,-3.6597,-3.6495,-3.6275,-3.5939,-3.5646,-3.5295,-3.4666,-3.3817,-3.3744,-3.3319,-3.3309,-3.3734,-3.5684,-3.7912,-4.0632,-4.2095,-4.2428,-4.3609,-4.437,-4.4616,-4.5209,-4.5698,-4.5698,-4.6104,-4.6266,-4.6266,-4.6266,-4.6535,-4.6968,-4.7279,-4.7796,-4.8334,-4.8603,-4.8852,-4.9038,-4.9059,-4.9059,-4.9059,-4.9059,-4.9059,-4.8997,-4.8831,-4.8645,-4.8624,-4.8417,-4.7745,-4.678,-4.5458,-4.3785,-4.221,-4.0475,-3.8958,-3.8512,-3.8426,-3.8443,-3.846,-3.846,-3.8443,-3.8357,-3.8323,-3.8323,-3.8323,-3.8323,-3.8323,-3.8375,-3.8922,-3.9382,-3.966,-3.9778,-3.8968,-3.864,-3.7673,-3.6994,-3.6881,-3.6196,-3.5308,-3.3921,-3.2695,-3.1692,-3.0762,-3.0812,-3.1083,-3.1421,-3.2099,-3.3316,-3.4702,-3.6161,-3.7311,-3.8352,-3.9388,-4.0626,-4.0148,-3.8956,-3.8118,-3.471,-3.471,-3.471,-3.471,-3.471,-3.471,-3.471,-3.471,-3.471,-3.471,-3.471,-3.4783,-3.4841,-3.4944,-3.5295,-3.5558,-3.5836,-3.6129,-3.6378,-3.6524,-3.6597,-3.6612,-3.6524,-3.6363,-3.6085,-3.5801,-3.5478,-3.4812,-3.3758,-3.3729,-3.3334,-3.2954,-3.294,-3.4828,-3.7311,-4.0463,-4.2095,-4.2262,-4.3093,-4.4534,-4.478,-4.5454,-4.5861,-4.5942,-4.6185,-4.6266,-4.6266,-4.6287,-4.6699,-4.7134,-4.7548,-4.7982,-4.8459,-4.8852,-4.9038,-4.9059,-4.9059,-4.9059,-4.9059,-4.9059,-4.8997,-4.879,-4.8603,-4.8355,-4.8127,-4.7544,-4.6663,-4.5887,-4.3972,-4.1933,-4.089,-3.9612,-3.8649,-3.8357,-3.8443,-3.8477,-3.8443,-3.8426,-3.8409,-3.8357,-3.834,-3.8323,-3.8323,-3.8357,-3.8597,-3.8683,-3.9077,-3.9659,-4.0151,-4.0186,-3.9998,-3.9874,-3.9857,-3.9222,-3.8716,-3.7802,-3.6594,-3.4085,-3.2868,-3.1896,-3.1211,-3.1145,-3.1308,-3.1671,-3.2492,-3.3765,-3.5755,-3.7936,-3.9698,-4.1139,-4.1565,-4.1683,-4.042,-3.9223,-3.8369,-3.471,-3.471,-3.471,-3.471,-3.471,-3.471,-3.471,-3.4724,-3.4739,-3.4753,-3.4797,-3.5017,-3.5149,-3.528,-3.5719,-3.5953,-3.6085,-3.6378,-3.6583,-3.6597,-3.6612,-3.6612,-3.6597,-3.648,-3.6187,-3.586,-3.5581,-3.4929,-3.3788,-3.3744,-3.3363,-3.3057,-3.3073,-3.3895,-3.5787,-3.8426,-4.0734,-4.2614,-4.3278,-4.4534,-4.5372,-4.5942,-4.6104,-4.6185,-4.6266,-4.6266,-4.6266,-4.637,-4.6844,-4.7444,-4.7693,-4.8189,-4.8852,-4.8976,-4.9059,-4.9059,-4.9059,-4.9059,-4.9059,-4.9059,-4.8893,-4.8603,-4.8459,-4.8127,-4.7566,-4.6712,-4.5564,-4.4778,-4.2829,-4.1318,-4.0336,-3.9491,-3.8649,-3.834,-3.8426,-3.8443,-3.8409,-3.8392,-3.8357,-3.8357,-3.834,-3.8323,-3.8323,-3.8426,-3.8803,-3.9059,-3.9333,-3.9813,-4.0395,-4.0629,-4.0549,-4.0753,-4.0865,-4.0721,-4.0031,-3.9308,-3.7827,-3.5182,-3.3272,-3.2519,-3.1784,-3.1524,-3.1607,-3.1935,-3.326,-3.4716,-3.7311,-4.0111,-4.136,-4.2399,-4.2109,-4.1802,-4.0569,-3.955,-3.8751,-3.471,-3.471,-3.471,-3.471,-3.471,-3.471,-3.471,-3.4739,-3.49,-3.5002,-3.5075,-3.5434,-3.5566,-3.5631,-3.5895,-3.6158,-3.6187,-3.6451,-3.6612,-3.6612,-3.6612,-3.6612,-3.6612,-3.6553,-3.6261,-3.5807,-3.5654,-3.5119,-3.4066,-3.3846,-3.3524,-3.3248,-3.3633,-3.3998,-3.57,-3.8255,-4.1323,-4.1742,-4.3341,-4.5291,-4.5698,-4.6104,-4.6266,-4.6266,-4.6266,-4.6266,-4.6287,-4.6473,-4.7072,-4.7651,-4.7858,-4.8417,-4.8955,-4.9059,-4.9059,-4.9059,-4.9059,-4.9059,-4.9059,-4.9059,-4.9017,-4.8686,-4.8252,-4.79,-4.7505,-4.5813,-4.4636,-4.3388,-4.173,-4.0328,-3.9112,-3.8838,-3.8323,-3.8323,-3.8357,-3.8357,-3.834,-3.834,-3.8323,-3.8323,-3.8323,-3.8323,-3.8323,-3.8494,-3.882,-3.9196,-3.947,-3.9899,-4.0446,-4.084,-4.0971,-4.121,-4.1357,-4.1544,-4.1264,-4.0364,-3.9369,-3.7145,-3.5034,-3.3576,-3.2866,-3.2287,-3.1997,-3.2385,-3.3963,-3.5846,-3.8767,-4.1463,-4.2619,-4.3349,-4.3043,-4.2329,-4.1289,-4.0225,-3.9146,-3.471,-3.471,-3.471,-3.471,-3.471,-3.471,-3.4753,-3.49,-3.5192,-3.5419,-3.5493,-3.5661,-3.5807,-3.5924,-3.6231,-3.6348,-3.6348,-3.6626,-3.6773,-3.6758,-3.6641,-3.67,-3.6729,-3.6626,-3.6217,-3.5807,-3.564,-3.5149,-3.4197,-3.3875,-3.3466,-3.3517,-3.4617,-3.5455,-3.6724,-3.875,-4.1137,-4.1992,-4.4186,-4.527,-4.5779,-4.6185,-4.6266,-4.6266,-4.6266,-4.6266,-4.639,-4.67,-4.7237,-4.7672,-4.8127,-4.8583,-4.8914,-4.9059,-4.9059,-4.9059,-4.9059,-4.8976,-4.8852,-4.879,-4.8666,-4.8438,-4.7962,-4.7568,-4.6845,-4.4935,-4.3579,-4.2235,-4.0668,-3.9501,-3.8597,-3.8323,-3.8323,-3.8323,-3.8323,-3.8323,-3.8323,-3.8323,-3.8323,-3.8323,-3.8323,-3.8323,-3.8357,-3.8597,-3.8854,-3.9231,-3.959,-4.0053,-4.0515,-4.0909,-4.1303,-4.156,-4.1629,-4.1592,-4.1577,-4.1265,-4.0158,-3.8951,-3.7133,-3.5221,-3.4156,-3.3589,-3.3151,-3.3409,-3.6133,-3.8663,-4.0744,-4.2721,-4.3772,-4.4177,-4.4177,-4.3247,-4.2109,-4.0841,-3.9719,-3.471,-3.471,-3.4724,-3.4783,-3.4768,-3.4929,-3.5046,-3.5346,-3.5573,-3.583,-3.5845,-3.61,-3.6275,-3.6348,-3.6831,-3.6919,-3.6758,-3.6992,-3.7065,-3.7036,-3.6905,-3.6948,-3.6919,-3.6817,-3.6392,-3.5924,-3.5617,-3.531,-3.4329,-3.4164,-3.3692,-3.3841,-3.6009,-3.7052,-3.8066,-3.96,-4.1556,-4.3341,-4.4432,-4.5434,-4.6023,-4.6266,-4.6266,-4.6266,-4.6266,-4.6266,-4.6411,-4.6782,-4.7237,-4.7672,-4.8127,-4.8583,-4.8893,-4.9059,-4.9059,-4.9017,-4.8997,-4.8666,-4.8438,-4.8355,-4.8127,-4.7879,-4.7693,-4.7154,-4.6086,-4.4324,-4.2863,-4.1677,-4.0331,-3.9246,-3.8323,-3.8323,-3.8323,-3.8323,-3.8323,-3.8323,-3.8323,-3.8323,-3.8323,-3.8323,-3.8323,-3.834,-3.8392,-3.8597,-3.9008,-3.9368,-3.9779,-4.0275,-4.0703,-4.1063,-4.144,-4.1799,-4.1791,-4.1543,-4.1474,-4.1799,-4.15,-4.0464,-3.8952,-3.7171,-3.6009,-3.5261,-3.52,-3.6238,-3.927,-4.1463,-4.2925,-4.3856,-4.47,-4.4902,-4.4498,-4.3467,-4.2125,-4.1305,-4.0461,-3.4827,-3.5046,-3.528,-3.55,-3.5763,-3.6202,-3.6334,-3.6246,-3.6524,-3.667,-3.67,-3.7007,-3.7051,-3.7197,-3.7358,-3.7358,-3.7358,-3.7373,-3.7417,-3.7373,-3.727,-3.7197,-3.7183,-3.7139,-3.67,-3.6231,-3.5851,-3.5529,-3.5,-3.4736,-3.4548,-3.4659,-3.7185,-3.8631,-4.0144,-4.1723,-4.301,-4.4205,-4.5046,-4.5759,-4.6185,-4.6266,-4.6266,-4.6266,-4.6266,-4.6266,-4.637,-4.6803,-4.7237,-4.7651,-4.8107,-4.8583,-4.9017,-4.9038,-4.8976,-4.8562,-4.8293,-4.8003,-4.79,-4.7879,-4.7693,-4.7341,-4.7237,-4.7175,-4.6065,-4.4446,-4.2512,-4.1509,-4.0162,-3.899,-3.8409,-3.8323,-3.8323,-3.8323,-3.8323,-3.8323,-3.834,-3.8409,-3.8409,-3.8529,-3.8529,-3.8546,-3.858,-3.882,-3.9214,-3.9556,-3.9967,-4.0498,-4.0943,-4.132,-4.1611,-4.1971,-4.2201,-4.2048,-4.2246,-4.246,-4.2294,-4.1831,-4.0348,-3.9287,-3.8981,-3.831,-3.7745,-3.8752,-4.1037,-4.2909,-4.438,-4.5003,-4.5121,-4.4801,-4.438,-4.3247,-4.2227,-4.1407,-4.0688,-3.5916,-3.6214,-3.6423,-3.6534,-3.6813,-3.761,-3.7873,-3.7948,-3.7516,-3.7285,-3.73,-3.7475,-3.7578,-3.7563,-3.768,-3.7695,-3.7548,-3.7695,-3.7768,-3.7753,-3.7665,-3.7592,-3.7548,-3.7461,-3.6919,-3.6436,-3.5997,-3.5661,-3.535,-3.5608,-3.5537,-3.5958,-3.8304,-3.9969,-4.128,-4.2386,-4.3541,-4.4653,-4.5474,-4.6125,-4.6266,-4.6266,-4.6266,-4.6266,-4.6266,-4.6266,-4.6308,-4.6721,-4.7154,-4.7465,-4.7858,-4.8189,-4.85,-4.8479,-4.8438,-4.8065,-4.7941,-4.7651,-4.7486,-4.7424,-4.7175,-4.6906,-4.6782,-4.674,-4.6004,-4.4614,-4.3297,-4.2095,-4.0415,-3.899,-3.858,-3.8323,-3.8323,-3.8323,-3.8323,-3.8323,-3.8409,-3.8494,-3.8631,-3.8785,-3.8837,-3.8837,-3.8957,-3.9179,-3.9453,-3.983,-4.0327,-4.0892,-4.1337,-4.1697,-4.1919,-4.2159,-4.2501,-4.2618,-4.2782,-4.2981,-4.2981,-4.2586,-4.1483,-4.08,-4.117,-4.1038,-4.0271,-4.1037,-4.2399,-4.3856,-4.5003,-4.5104,-4.5003,-4.47,-4.4177,-4.3145,-4.2125,-4.1202,-4.0585,-3.7571,-3.7908,-3.7985,-3.812,-3.8084,-3.9085,-3.9694,-4.0096,-3.8819,-3.797,-3.7985,-3.7883,-3.7928,-3.7943,-3.7987,-3.7958,-3.7914,-3.8017,-3.8104,-3.809,-3.7914,-3.7841,-3.7841,-3.7753,-3.7212,-3.6539,-3.61,-3.6089,-3.5514,-3.5822,-3.667,-3.7476,-3.9305,-4.0795,-4.1745,-4.2406,-4.3337,-4.4444,-4.5448,-4.6188,-4.6226,-4.6185,-4.6185,-4.6266,-4.6266,-4.6266,-4.637,-4.6617,-4.6927,-4.7175,-4.7361,-4.7651,-4.7796,-4.7713,-4.7672,-4.7568,-4.7465,-4.7258,-4.7051,-4.6968,-4.6782,-4.6452,-4.6266,-4.6349,-4.5841,-4.4902,-4.3609,-4.2678,-4.1173,-3.9756,-3.916,-3.858,-3.8323,-3.8323,-3.8323,-3.8323,-3.8357,-3.8494,-3.8666,-3.882,-3.8974,-3.9008,-3.9248,-3.9453,-3.9659,-4.0087,-4.0686,-4.1286,-4.1628,-4.2005,-4.2244,-4.2381,-4.2604,-4.2765,-4.2833,-4.3101,-4.3495,-4.3068,-4.2309,-4.2335,-4.2697,-4.2827,-4.2909,-4.3332,-4.3755,-4.4279,-4.5121,-4.5121,-4.5003,-4.4801,-4.4177,-4.3043,-4.2022,-4.0996,-4.0187,-3.9002,-3.9381,-4.0154,-4.0583,-4.0818,-4.1054,-4.1234,-4.1392,-4.1045,-4.0322,-3.9635,-3.9532,-3.9105,-3.8472,-3.8324,-3.8295,-3.8531,-3.8383,-3.8397,-3.8397,-3.8354,-3.8104,-3.8134,-3.809,-3.7504,-3.6934,-3.6608,-3.6684,-3.6239,-3.6742,-3.7514,-3.8406,-3.9914,-4.1002,-4.1818,-4.2233,-4.2838,-4.3813,-4.4758,-4.5734,-4.6127,-4.5474,-4.5107,-4.5861,-4.6287,-4.6287,-4.6349,-4.6349,-4.6679,-4.701,-4.7092,-4.7361,-4.7651,-4.7361,-4.7217,-4.7134,-4.6927,-4.674,-4.6739,-4.6677,-4.6573,-4.6511,-4.6428,-4.6347,-4.584,-4.4924,-4.4001,-4.3176,-4.2076,-4.0753,-3.9671,-3.8905,-3.8323,-3.8323,-3.8323,-3.8323,-3.834,-3.8529,-3.87,-3.8922,-3.9094,-3.9299,-3.9539,-3.9744,-3.995,-4.0429,-4.1114,-4.1645,-4.1851,-4.2159,-4.2501,-4.2655,-4.2707,-4.2782,-4.285,-4.3221,-4.3632,-4.3991,-4.3505,-4.3758,-4.4127,-4.4043,-4.3958,-4.4481,-4.4902,-4.5121,-4.5121,-4.5121,-4.5003,-4.47,-4.3772,-4.2533,-4.151,-4.0481,-3.967,-4.0659,-4.108,-4.2457,-4.2543,-4.199,-4.2329,-4.2533,-4.2533,-4.2533,-4.2227,-4.1526,-4.0703,-3.9789,-3.9063,-3.8751,-3.9256,-3.9463,-3.8841,-3.9019,-3.9048,-3.8618,-3.8412,-3.8397,-3.8295,-3.8144,-3.7635,-3.7644,-3.7617,-3.7084,-3.7702,-3.8506,-3.9115,-4.0157,-4.084,-4.1583,-4.1923,-4.1983,-4.2802,-4.3709,-4.4707,-4.5817,-4.5817,-4.5205,-4.5902,-4.6086,-4.6269,-4.6287,-4.6266,-4.6411,-4.6576,-4.6638,-4.67,-4.6947,-4.6823,-4.6659,-4.6597,-4.6533,-4.6509,-4.6751,-4.6891,-4.6811,-4.6912,-4.7314,-4.7613,-4.6972,-4.6063,-4.5169,-4.4248,-4.2659,-4.1257,-3.9992,-3.916,-3.8494,-3.8323,-3.8357,-3.8392,-3.8529,-3.8734,-3.9094,-3.9522,-3.9659,-3.9779,-4.0001,-4.0173,-4.0361,-4.0481,-4.1217,-4.1679,-4.1953,-4.2296,-4.256,-4.2765,-4.2765,-4.2765,-4.2912,-4.3289,-4.3769,-4.4111,-4.4368,-4.4544,-4.4649,-4.4885,-4.5121,-4.507,-4.507,-4.5121,-4.5121,-4.5121,-4.4599,-4.4194,-4.3145,-4.192,-4.0996,-4.0275,-3.967,-4.2343,-4.3007,-4.4429,-4.4076,-4.2533,-4.3247,-4.367,-4.367,-4.367,-4.3569,-4.3162,-4.1423,-4.0703,-4.0084,-3.9152,-4.0378,-4.0481,-3.9152,-3.9256,-3.9478,-3.8945,-3.8515,-3.8295,-3.8266,-3.823,-3.8425,-3.8485,-3.8099,-3.7648,-3.8465,-3.92,-3.9762,-4.0138,-4.0487,-4.1319,-4.1071,-4.0596,-4.2044,-4.3024,-4.3717,-4.5124,-4.6669,-4.61,-4.5817,-4.6024,-4.6721,-4.6473,-4.6287,-4.6308,-4.6287,-4.6349,-4.639,-4.6411,-4.6411,-4.637,-4.6409,-4.6652,-4.6972,-4.7373,-4.7693,-4.7693,-4.7933,-4.8569,-4.8569,-4.7933,-4.7272,-4.6387,-4.4985,-4.3322,-4.1742,-4.05,-3.9246,-3.8666,-3.8409,-3.846,-3.8426,-3.8648,-3.8871,-3.9368,-3.9881,-4.0087,-4.019,-4.0429,-4.0601,-4.0738,-4.0857,-4.1114,-4.1491,-4.1902,-4.2347,-4.2663,-4.2765,-4.2765,-4.2765,-4.2878,-4.3255,-4.3751,-4.3974,-4.4214,-4.4693,-4.5053,-4.5053,-4.5036,-4.4984,-4.5001,-4.507,-4.5104,-4.5121,-4.4498,-4.3991,-4.3263,-4.2329,-4.151,-4.0791,-4.0084,-4.3985,-4.4597,-4.4952,-4.4801,-4.4498,-4.47,-4.4801,-4.4801,-4.47,-4.4397,-4.3569,-4.3162,-4.2447,-4.1407,-3.9359,-3.9862,-4.1715,-3.9965,-3.9463,-3.9877,-3.9359,-3.8693,-3.8487,-3.8791,-3.8448,-3.8737,-3.9211,-3.9052,-3.8858,-3.9315,-3.9833,-4.026,-4.0027,-4.0301,-4.0559,-4.0476,-4.0857,-4.228,-4.3574,-4.4614,-4.4636,-4.5831,-4.6585,-4.6719,-4.699,-4.7051,-4.6762,-4.6432,-4.6308,-4.6266,-4.6347,-4.6347,-4.6428,-4.6509,-4.6569,-4.6751,-4.6972,-4.7533,-4.7991,-4.841,-4.8569,-4.8648,-4.9122,-4.9122,-4.8727,-4.8648,-4.7432,-4.5799,-4.4064,-4.2243,-4.0837,-3.9331,-3.8494,-3.8683,-3.8786,-3.8615,-3.8666,-3.8871,-3.9248,-3.9762,-4.0173,-4.0446,-4.0823,-4.0994,-4.1183,-4.1337,-4.1594,-4.1936,-4.2005,-4.2416,-4.2748,-4.2765,-4.2765,-4.2765,-4.2765,-4.3169,-4.358,-4.3786,-4.4043,-4.4419,-4.4745,-4.4984,-4.4984,-4.4847,-4.4933,-4.5053,-4.5087,-4.5121,-4.4801,-4.4295,-4.3772,-4.3043,-4.2227,-4.151,-4.0893]}]]